<?xml version="1.0" encoding="UTF-8" standalone="no" ?>
<gpx xmlns="http://www.topografix.com/GPX/1/1" xmlns:xsi="http://www.w3.org/2001/XMLSchema-instance" xsi:schemaLocation="http://www.topografix.com/GPX/1/1 http://www.topografix.com/GPX/1/1/gpx.xsd" version="1.1" creator="VisuGPX - https://www.visugpx.com">
  <metadata>
    <name>circuit bergonne coudes sauvagnat</name>
    <desc><![CDATA[bon circuit vallonné deux ou trois erreur de parcours chemin en cul de sac visible sur le circuit ]]></desc>
  </metadata>
  <trk>
    <name><![CDATA[2012-10-05 14:23]]></name>
    <desc><![CDATA[<h1>OruxMaps</h1><br /><hr align="center" width="480" style="height: 2px; width: 517px"/><h2>Nom: 2012-10-05 14:23</h2><br /><p>Temps de départ: 10/05/2012 14:23</p><p>Temps d'arrivée: 10/05/2012 16:56</p><p>Distance: 43,9 km (02:32)</p><p>Temps déplacement: 02:24</p><p>Vitesse moyenne: 17,2 km/h</p><p>Vitesse moyenne: 18,2 km/h</p><p>Vitess Max.: 52,3 km/h</p><p>Altitude minimale: 394 m</p><p>Altitude maximale: 619 m</p><p>Vitesse d'élévation: 591,9 m/h</p><p>Vitesse de descente: -994,9 m/h</p><p>Gain Altitude: 698 m</p><p>Perte Altitude: -684 m</p><p>Temps d'élévation: 01:10</p><p>Temps de descente: 00:41</p><hr align="center" width="480" style="height: 2px; width: 517px"/>]]></desc>
    <trkseg>
      <trkpt lat="45.50673" lon="3.22278">
        <ele>547.834</ele>
        <time>2012-10-05T12:24:06Z</time>
      </trkpt>
      <trkpt lat="45.50656" lon="3.22267">
        <ele>541.14355</ele>
        <time>2012-10-05T12:25:58Z</time>
      </trkpt>
      <trkpt lat="45.50654" lon="3.22241">
        <ele>541.7845</ele>
        <time>2012-10-05T12:26:03Z</time>
      </trkpt>
      <trkpt lat="45.50646" lon="3.22218">
        <ele>542.29407</ele>
        <time>2012-10-05T12:26:09Z</time>
      </trkpt>
      <trkpt lat="45.50624" lon="3.22219">
        <ele>542.1812</ele>
        <time>2012-10-05T12:26:13Z</time>
      </trkpt>
      <trkpt lat="45.50605" lon="3.2221">
        <ele>542.2768</ele>
        <time>2012-10-05T12:26:17Z</time>
      </trkpt>
      <trkpt lat="45.506" lon="3.22181">
        <ele>544.01556</ele>
        <time>2012-10-05T12:26:23Z</time>
      </trkpt>
      <trkpt lat="45.50598" lon="3.22151">
        <ele>544.8789</ele>
        <time>2012-10-05T12:26:29Z</time>
      </trkpt>
      <trkpt lat="45.50605" lon="3.22125">
        <ele>547.10864</ele>
        <time>2012-10-05T12:26:36Z</time>
      </trkpt>
      <trkpt lat="45.50618" lon="3.22104">
        <ele>550.0772</ele>
        <time>2012-10-05T12:26:43Z</time>
      </trkpt>
      <trkpt lat="45.50631" lon="3.22087">
        <ele>550.8333</ele>
        <time>2012-10-05T12:26:49Z</time>
      </trkpt>
      <trkpt lat="45.50646" lon="3.2207">
        <ele>550.91174</ele>
        <time>2012-10-05T12:26:56Z</time>
      </trkpt>
      <trkpt lat="45.50665" lon="3.22059">
        <ele>552.30194</ele>
        <time>2012-10-05T12:27:02Z</time>
      </trkpt>
      <trkpt lat="45.50675" lon="3.22036">
        <ele>553.5498</ele>
        <time>2012-10-05T12:27:07Z</time>
      </trkpt>
      <trkpt lat="45.50675" lon="3.22006">
        <ele>555.9855</ele>
        <time>2012-10-05T12:27:15Z</time>
      </trkpt>
      <trkpt lat="45.50685" lon="3.21983">
        <ele>556.2127</ele>
        <time>2012-10-05T12:27:20Z</time>
      </trkpt>
      <trkpt lat="45.50704" lon="3.21979">
        <ele>556.27563</ele>
        <time>2012-10-05T12:27:25Z</time>
      </trkpt>
      <trkpt lat="45.50726" lon="3.21975">
        <ele>559.589</ele>
        <time>2012-10-05T12:27:30Z</time>
      </trkpt>
      <trkpt lat="45.50746" lon="3.21973">
        <ele>561.50616</ele>
        <time>2012-10-05T12:27:33Z</time>
      </trkpt>
      <trkpt lat="45.50767" lon="3.2197">
        <ele>562.56476</ele>
        <time>2012-10-05T12:27:38Z</time>
      </trkpt>
      <trkpt lat="45.50786" lon="3.21968">
        <ele>562.7313</ele>
        <time>2012-10-05T12:27:42Z</time>
      </trkpt>
      <trkpt lat="45.50805" lon="3.21967">
        <ele>562.3981</ele>
        <time>2012-10-05T12:27:46Z</time>
      </trkpt>
      <trkpt lat="45.50824" lon="3.21965">
        <ele>562.51373</ele>
        <time>2012-10-05T12:27:50Z</time>
      </trkpt>
      <trkpt lat="45.50845" lon="3.21961">
        <ele>562.7695</ele>
        <time>2012-10-05T12:27:54Z</time>
      </trkpt>
      <trkpt lat="45.50868" lon="3.21957">
        <ele>562.8039</ele>
        <time>2012-10-05T12:27:58Z</time>
      </trkpt>
      <trkpt lat="45.50891" lon="3.21949">
        <ele>562.9574</ele>
        <time>2012-10-05T12:28:02Z</time>
      </trkpt>
      <trkpt lat="45.5091" lon="3.21941">
        <ele>563.7169</ele>
        <time>2012-10-05T12:28:05Z</time>
      </trkpt>
      <trkpt lat="45.50929" lon="3.21934">
        <ele>564.3717</ele>
        <time>2012-10-05T12:28:08Z</time>
      </trkpt>
      <trkpt lat="45.50949" lon="3.21927">
        <ele>564.5511</ele>
        <time>2012-10-05T12:28:11Z</time>
      </trkpt>
      <trkpt lat="45.50968" lon="3.21919">
        <ele>564.4549</ele>
        <time>2012-10-05T12:28:14Z</time>
      </trkpt>
      <trkpt lat="45.50986" lon="3.21911">
        <ele>564.9518</ele>
        <time>2012-10-05T12:28:17Z</time>
      </trkpt>
      <trkpt lat="45.51005" lon="3.21902">
        <ele>565.2489</ele>
        <time>2012-10-05T12:28:19Z</time>
      </trkpt>
      <trkpt lat="45.51024" lon="3.21894">
        <ele>565.62585</ele>
        <time>2012-10-05T12:28:23Z</time>
      </trkpt>
      <trkpt lat="45.51043" lon="3.21887">
        <ele>565.71295</ele>
        <time>2012-10-05T12:28:26Z</time>
      </trkpt>
      <trkpt lat="45.51061" lon="3.21882">
        <ele>565.68567</ele>
        <time>2012-10-05T12:28:29Z</time>
      </trkpt>
      <trkpt lat="45.5108" lon="3.21878">
        <ele>566.1179</ele>
        <time>2012-10-05T12:28:32Z</time>
      </trkpt>
      <trkpt lat="45.51099" lon="3.21876">
        <ele>567.49713</ele>
        <time>2012-10-05T12:28:35Z</time>
      </trkpt>
      <trkpt lat="45.51118" lon="3.21874">
        <ele>569.0212</ele>
        <time>2012-10-05T12:28:38Z</time>
      </trkpt>
      <trkpt lat="45.51136" lon="3.21874">
        <ele>570.4641</ele>
        <time>2012-10-05T12:28:41Z</time>
      </trkpt>
      <trkpt lat="45.51154" lon="3.21875">
        <ele>570.81665</ele>
        <time>2012-10-05T12:28:44Z</time>
      </trkpt>
      <trkpt lat="45.51172" lon="3.21873">
        <ele>570.7966</ele>
        <time>2012-10-05T12:28:47Z</time>
      </trkpt>
      <trkpt lat="45.5119" lon="3.21873">
        <ele>570.9694</ele>
        <time>2012-10-05T12:28:50Z</time>
      </trkpt>
      <trkpt lat="45.51213" lon="3.21874">
        <ele>571.7238</ele>
        <time>2012-10-05T12:28:54Z</time>
      </trkpt>
      <trkpt lat="45.51236" lon="3.21878">
        <ele>572.3528</ele>
        <time>2012-10-05T12:28:58Z</time>
      </trkpt>
      <trkpt lat="45.51254" lon="3.21885">
        <ele>571.31024</ele>
        <time>2012-10-05T12:29:01Z</time>
      </trkpt>
      <trkpt lat="45.51276" lon="3.21893">
        <ele>569.6895</ele>
        <time>2012-10-05T12:29:05Z</time>
      </trkpt>
      <trkpt lat="45.51296" lon="3.21895">
        <ele>568.8836</ele>
        <time>2012-10-05T12:29:08Z</time>
      </trkpt>
      <trkpt lat="45.51315" lon="3.21894">
        <ele>567.7467</ele>
        <time>2012-10-05T12:29:11Z</time>
      </trkpt>
      <trkpt lat="45.51339" lon="3.2189">
        <ele>567.18695</ele>
        <time>2012-10-05T12:29:15Z</time>
      </trkpt>
      <trkpt lat="45.51356" lon="3.21898">
        <ele>567.52783</ele>
        <time>2012-10-05T12:29:18Z</time>
      </trkpt>
      <trkpt lat="45.51375" lon="3.21906">
        <ele>567.29034</ele>
        <time>2012-10-05T12:29:21Z</time>
      </trkpt>
      <trkpt lat="45.51394" lon="3.21921">
        <ele>566.6308</ele>
        <time>2012-10-05T12:29:24Z</time>
      </trkpt>
      <trkpt lat="45.51411" lon="3.2193">
        <ele>566.651</ele>
        <time>2012-10-05T12:29:27Z</time>
      </trkpt>
      <trkpt lat="45.51431" lon="3.21947">
        <ele>566.3383</ele>
        <time>2012-10-05T12:29:31Z</time>
      </trkpt>
      <trkpt lat="45.51452" lon="3.21962">
        <ele>565.2015</ele>
        <time>2012-10-05T12:29:35Z</time>
      </trkpt>
      <trkpt lat="45.51472" lon="3.21962">
        <ele>563.8793</ele>
        <time>2012-10-05T12:29:38Z</time>
      </trkpt>
      <trkpt lat="45.51491" lon="3.21952">
        <ele>561.5246</ele>
        <time>2012-10-05T12:29:41Z</time>
      </trkpt>
      <trkpt lat="45.51513" lon="3.21946">
        <ele>558.4405</ele>
        <time>2012-10-05T12:29:45Z</time>
      </trkpt>
      <trkpt lat="45.51533" lon="3.2195">
        <ele>556.1733</ele>
        <time>2012-10-05T12:29:49Z</time>
      </trkpt>
      <trkpt lat="45.51551" lon="3.21958">
        <ele>555.21893</ele>
        <time>2012-10-05T12:29:52Z</time>
      </trkpt>
      <trkpt lat="45.51571" lon="3.21962">
        <ele>553.68976</ele>
        <time>2012-10-05T12:29:55Z</time>
      </trkpt>
      <trkpt lat="45.51593" lon="3.21964">
        <ele>550.88367</ele>
        <time>2012-10-05T12:29:58Z</time>
      </trkpt>
      <trkpt lat="45.51613" lon="3.21973">
        <ele>548.4436</ele>
        <time>2012-10-05T12:30:01Z</time>
      </trkpt>
      <trkpt lat="45.51634" lon="3.21985">
        <ele>547.4033</ele>
        <time>2012-10-05T12:30:04Z</time>
      </trkpt>
      <trkpt lat="45.51653" lon="3.22008">
        <ele>546.5144</ele>
        <time>2012-10-05T12:30:07Z</time>
      </trkpt>
      <trkpt lat="45.51675" lon="3.22027">
        <ele>545.24567</ele>
        <time>2012-10-05T12:30:10Z</time>
      </trkpt>
      <trkpt lat="45.51692" lon="3.22038">
        <ele>544.4671</ele>
        <time>2012-10-05T12:30:12Z</time>
      </trkpt>
      <trkpt lat="45.5171" lon="3.22047">
        <ele>543.1229</ele>
        <time>2012-10-05T12:30:14Z</time>
      </trkpt>
      <trkpt lat="45.51734" lon="3.22063">
        <ele>541.68677</ele>
        <time>2012-10-05T12:30:17Z</time>
      </trkpt>
      <trkpt lat="45.51752" lon="3.22073">
        <ele>540.2465</ele>
        <time>2012-10-05T12:30:19Z</time>
      </trkpt>
      <trkpt lat="45.5177" lon="3.22078">
        <ele>538.82385</ele>
        <time>2012-10-05T12:30:21Z</time>
      </trkpt>
      <trkpt lat="45.51797" lon="3.22074">
        <ele>537.2996</ele>
        <time>2012-10-05T12:30:23Z</time>
      </trkpt>
      <trkpt lat="45.51818" lon="3.22072">
        <ele>537.185</ele>
        <time>2012-10-05T12:30:26Z</time>
      </trkpt>
      <trkpt lat="45.51838" lon="3.2207">
        <ele>537.883</ele>
        <time>2012-10-05T12:30:28Z</time>
      </trkpt>
      <trkpt lat="45.51858" lon="3.2207">
        <ele>539.1881</ele>
        <time>2012-10-05T12:30:30Z</time>
      </trkpt>
      <trkpt lat="45.51878" lon="3.2207">
        <ele>539.5535</ele>
        <time>2012-10-05T12:30:32Z</time>
      </trkpt>
      <trkpt lat="45.51903" lon="3.22072">
        <ele>537.8387</ele>
        <time>2012-10-05T12:30:35Z</time>
      </trkpt>
      <trkpt lat="45.51926" lon="3.22076">
        <ele>536.17</ele>
        <time>2012-10-05T12:30:38Z</time>
      </trkpt>
      <trkpt lat="45.51948" lon="3.22085">
        <ele>534.681</ele>
        <time>2012-10-05T12:30:42Z</time>
      </trkpt>
      <trkpt lat="45.5197" lon="3.22091">
        <ele>532.2628</ele>
        <time>2012-10-05T12:30:45Z</time>
      </trkpt>
      <trkpt lat="45.51994" lon="3.22099">
        <ele>530.6489</ele>
        <time>2012-10-05T12:30:48Z</time>
      </trkpt>
      <trkpt lat="45.52018" lon="3.22108">
        <ele>528.75397</ele>
        <time>2012-10-05T12:30:51Z</time>
      </trkpt>
      <trkpt lat="45.52039" lon="3.22118">
        <ele>527.1326</ele>
        <time>2012-10-05T12:30:54Z</time>
      </trkpt>
      <trkpt lat="45.52058" lon="3.22125">
        <ele>526.83307</ele>
        <time>2012-10-05T12:30:57Z</time>
      </trkpt>
      <trkpt lat="45.52077" lon="3.22138">
        <ele>526.099</ele>
        <time>2012-10-05T12:31:00Z</time>
      </trkpt>
      <trkpt lat="45.52094" lon="3.22152">
        <ele>524.3079</ele>
        <time>2012-10-05T12:31:04Z</time>
      </trkpt>
      <trkpt lat="45.52112" lon="3.22166">
        <ele>521.9726</ele>
        <time>2012-10-05T12:31:07Z</time>
      </trkpt>
      <trkpt lat="45.52128" lon="3.2218">
        <ele>518.5905</ele>
        <time>2012-10-05T12:31:09Z</time>
      </trkpt>
      <trkpt lat="45.52144" lon="3.22197">
        <ele>516.17773</ele>
        <time>2012-10-05T12:31:14Z</time>
      </trkpt>
      <trkpt lat="45.52159" lon="3.22213">
        <ele>514.5817</ele>
        <time>2012-10-05T12:31:17Z</time>
      </trkpt>
      <trkpt lat="45.52179" lon="3.22234">
        <ele>510.74338</ele>
        <time>2012-10-05T12:31:21Z</time>
      </trkpt>
      <trkpt lat="45.52192" lon="3.22258">
        <ele>508.05475</ele>
        <time>2012-10-05T12:31:24Z</time>
      </trkpt>
      <trkpt lat="45.52207" lon="3.22288">
        <ele>505.14548</ele>
        <time>2012-10-05T12:31:27Z</time>
      </trkpt>
      <trkpt lat="45.52223" lon="3.22316">
        <ele>502.17752</ele>
        <time>2012-10-05T12:31:30Z</time>
      </trkpt>
      <trkpt lat="45.52239" lon="3.22336">
        <ele>500.0879</ele>
        <time>2012-10-05T12:31:33Z</time>
      </trkpt>
      <trkpt lat="45.52259" lon="3.22354">
        <ele>498.6829</ele>
        <time>2012-10-05T12:31:36Z</time>
      </trkpt>
      <trkpt lat="45.52279" lon="3.2237">
        <ele>496.0156</ele>
        <time>2012-10-05T12:31:40Z</time>
      </trkpt>
      <trkpt lat="45.52299" lon="3.22388">
        <ele>494.5627</ele>
        <time>2012-10-05T12:31:42Z</time>
      </trkpt>
      <trkpt lat="45.52315" lon="3.22406">
        <ele>492.30173</ele>
        <time>2012-10-05T12:31:44Z</time>
      </trkpt>
      <trkpt lat="45.52331" lon="3.2242">
        <ele>490.52365</ele>
        <time>2012-10-05T12:31:46Z</time>
      </trkpt>
      <trkpt lat="45.52354" lon="3.22436">
        <ele>489.0433</ele>
        <time>2012-10-05T12:31:49Z</time>
      </trkpt>
      <trkpt lat="45.52378" lon="3.22453">
        <ele>488.13284</ele>
        <time>2012-10-05T12:31:52Z</time>
      </trkpt>
      <trkpt lat="45.52401" lon="3.22473">
        <ele>487.64093</ele>
        <time>2012-10-05T12:31:55Z</time>
      </trkpt>
      <trkpt lat="45.52414" lon="3.22492">
        <ele>487.35822</ele>
        <time>2012-10-05T12:31:57Z</time>
      </trkpt>
      <trkpt lat="45.52428" lon="3.22522">
        <ele>486.01413</ele>
        <time>2012-10-05T12:31:59Z</time>
      </trkpt>
      <trkpt lat="45.52439" lon="3.22545">
        <ele>484.11188</ele>
        <time>2012-10-05T12:32:02Z</time>
      </trkpt>
      <trkpt lat="45.52454" lon="3.22568">
        <ele>480.51334</ele>
        <time>2012-10-05T12:32:05Z</time>
      </trkpt>
      <trkpt lat="45.52469" lon="3.22587">
        <ele>479.08646</ele>
        <time>2012-10-05T12:32:07Z</time>
      </trkpt>
      <trkpt lat="45.52495" lon="3.226">
        <ele>477.7901</ele>
        <time>2012-10-05T12:32:10Z</time>
      </trkpt>
      <trkpt lat="45.52515" lon="3.22603">
        <ele>476.47964</ele>
        <time>2012-10-05T12:32:12Z</time>
      </trkpt>
      <trkpt lat="45.52533" lon="3.22617">
        <ele>475.72006</ele>
        <time>2012-10-05T12:32:14Z</time>
      </trkpt>
      <trkpt lat="45.52544" lon="3.2264">
        <ele>476.23242</ele>
        <time>2012-10-05T12:32:18Z</time>
      </trkpt>
      <trkpt lat="45.52559" lon="3.22664">
        <ele>475.49725</ele>
        <time>2012-10-05T12:32:22Z</time>
      </trkpt>
      <trkpt lat="45.52575" lon="3.22685">
        <ele>475.36154</ele>
        <time>2012-10-05T12:32:26Z</time>
      </trkpt>
      <trkpt lat="45.52589" lon="3.22702">
        <ele>472.7186</ele>
        <time>2012-10-05T12:32:30Z</time>
      </trkpt>
      <trkpt lat="45.52604" lon="3.2272">
        <ele>471.45364</ele>
        <time>2012-10-05T12:32:35Z</time>
      </trkpt>
      <trkpt lat="45.52617" lon="3.22701">
        <ele>473.16864</ele>
        <time>2012-10-05T12:32:45Z</time>
      </trkpt>
      <trkpt lat="45.52615" lon="3.22671">
        <ele>472.3579</ele>
        <time>2012-10-05T12:32:53Z</time>
      </trkpt>
      <trkpt lat="45.52622" lon="3.22643">
        <ele>472.91864</ele>
        <time>2012-10-05T12:33:00Z</time>
      </trkpt>
      <trkpt lat="45.52628" lon="3.22616">
        <ele>474.37115</ele>
        <time>2012-10-05T12:33:07Z</time>
      </trkpt>
      <trkpt lat="45.52635" lon="3.22589">
        <ele>475.96417</ele>
        <time>2012-10-05T12:33:14Z</time>
      </trkpt>
      <trkpt lat="45.52641" lon="3.22561">
        <ele>478.68585</ele>
        <time>2012-10-05T12:33:21Z</time>
      </trkpt>
      <trkpt lat="45.52658" lon="3.22573">
        <ele>479.31317</ele>
        <time>2012-10-05T12:33:29Z</time>
      </trkpt>
      <trkpt lat="45.52675" lon="3.22594">
        <ele>478.7884</ele>
        <time>2012-10-05T12:33:34Z</time>
      </trkpt>
      <trkpt lat="45.5269" lon="3.2261">
        <ele>478.3345</ele>
        <time>2012-10-05T12:33:38Z</time>
      </trkpt>
      <trkpt lat="45.52709" lon="3.22624">
        <ele>478.01044</ele>
        <time>2012-10-05T12:33:42Z</time>
      </trkpt>
      <trkpt lat="45.52725" lon="3.22642">
        <ele>477.6518</ele>
        <time>2012-10-05T12:33:45Z</time>
      </trkpt>
      <trkpt lat="45.52744" lon="3.2266">
        <ele>477.3708</ele>
        <time>2012-10-05T12:33:48Z</time>
      </trkpt>
      <trkpt lat="45.52765" lon="3.22677">
        <ele>477.3085</ele>
        <time>2012-10-05T12:33:51Z</time>
      </trkpt>
      <trkpt lat="45.52787" lon="3.22692">
        <ele>476.53378</ele>
        <time>2012-10-05T12:33:54Z</time>
      </trkpt>
      <trkpt lat="45.52809" lon="3.22712">
        <ele>474.93195</ele>
        <time>2012-10-05T12:33:57Z</time>
      </trkpt>
      <trkpt lat="45.52827" lon="3.2273">
        <ele>473.30774</ele>
        <time>2012-10-05T12:34:00Z</time>
      </trkpt>
      <trkpt lat="45.52846" lon="3.22747">
        <ele>472.1116</ele>
        <time>2012-10-05T12:34:03Z</time>
      </trkpt>
      <trkpt lat="45.52865" lon="3.22763">
        <ele>470.9476</ele>
        <time>2012-10-05T12:34:06Z</time>
      </trkpt>
      <trkpt lat="45.52882" lon="3.22777">
        <ele>469.23776</ele>
        <time>2012-10-05T12:34:09Z</time>
      </trkpt>
      <trkpt lat="45.52898" lon="3.22792">
        <ele>467.90863</ele>
        <time>2012-10-05T12:34:12Z</time>
      </trkpt>
      <trkpt lat="45.52916" lon="3.22808">
        <ele>467.00574</ele>
        <time>2012-10-05T12:34:15Z</time>
      </trkpt>
      <trkpt lat="45.52934" lon="3.22825">
        <ele>466.0248</ele>
        <time>2012-10-05T12:34:18Z</time>
      </trkpt>
      <trkpt lat="45.52952" lon="3.22843">
        <ele>465.12973</ele>
        <time>2012-10-05T12:34:21Z</time>
      </trkpt>
      <trkpt lat="45.52968" lon="3.22866">
        <ele>464.26306</ele>
        <time>2012-10-05T12:34:24Z</time>
      </trkpt>
      <trkpt lat="45.52981" lon="3.22891">
        <ele>463.27243</ele>
        <time>2012-10-05T12:34:27Z</time>
      </trkpt>
      <trkpt lat="45.52991" lon="3.22917">
        <ele>462.59982</ele>
        <time>2012-10-05T12:34:30Z</time>
      </trkpt>
      <trkpt lat="45.52998" lon="3.22943">
        <ele>462.3442</ele>
        <time>2012-10-05T12:34:33Z</time>
      </trkpt>
      <trkpt lat="45.53004" lon="3.22968">
        <ele>462.6051</ele>
        <time>2012-10-05T12:34:36Z</time>
      </trkpt>
      <trkpt lat="45.53012" lon="3.22991">
        <ele>463.12766</ele>
        <time>2012-10-05T12:34:39Z</time>
      </trkpt>
      <trkpt lat="45.53022" lon="3.23016">
        <ele>463.8036</ele>
        <time>2012-10-05T12:34:43Z</time>
      </trkpt>
      <trkpt lat="45.53037" lon="3.23038">
        <ele>463.04675</ele>
        <time>2012-10-05T12:34:47Z</time>
      </trkpt>
      <trkpt lat="45.53051" lon="3.23058">
        <ele>462.07562</ele>
        <time>2012-10-05T12:34:51Z</time>
      </trkpt>
      <trkpt lat="45.53069" lon="3.23073">
        <ele>462.3293</ele>
        <time>2012-10-05T12:34:55Z</time>
      </trkpt>
      <trkpt lat="45.53089" lon="3.23084">
        <ele>462.6291</ele>
        <time>2012-10-05T12:34:59Z</time>
      </trkpt>
      <trkpt lat="45.53108" lon="3.23097">
        <ele>462.69818</ele>
        <time>2012-10-05T12:35:03Z</time>
      </trkpt>
      <trkpt lat="45.53126" lon="3.23112">
        <ele>462.77393</ele>
        <time>2012-10-05T12:35:07Z</time>
      </trkpt>
      <trkpt lat="45.53143" lon="3.23126">
        <ele>462.49008</ele>
        <time>2012-10-05T12:35:11Z</time>
      </trkpt>
      <trkpt lat="45.53161" lon="3.23142">
        <ele>462.90497</ele>
        <time>2012-10-05T12:35:15Z</time>
      </trkpt>
      <trkpt lat="45.5318" lon="3.2316">
        <ele>463.91983</ele>
        <time>2012-10-05T12:35:19Z</time>
      </trkpt>
      <trkpt lat="45.53196" lon="3.23177">
        <ele>463.99054</ele>
        <time>2012-10-05T12:35:23Z</time>
      </trkpt>
      <trkpt lat="45.53211" lon="3.23198">
        <ele>463.28674</ele>
        <time>2012-10-05T12:35:27Z</time>
      </trkpt>
      <trkpt lat="45.53224" lon="3.23217">
        <ele>462.08868</ele>
        <time>2012-10-05T12:35:30Z</time>
      </trkpt>
      <trkpt lat="45.53238" lon="3.2324">
        <ele>460.69418</ele>
        <time>2012-10-05T12:35:32Z</time>
      </trkpt>
      <trkpt lat="45.53252" lon="3.23264">
        <ele>459.56836</ele>
        <time>2012-10-05T12:35:36Z</time>
      </trkpt>
      <trkpt lat="45.53267" lon="3.23289">
        <ele>458.35437</ele>
        <time>2012-10-05T12:35:39Z</time>
      </trkpt>
      <trkpt lat="45.53281" lon="3.23314">
        <ele>457.1016</ele>
        <time>2012-10-05T12:35:42Z</time>
      </trkpt>
      <trkpt lat="45.53296" lon="3.23336">
        <ele>455.81525</ele>
        <time>2012-10-05T12:35:45Z</time>
      </trkpt>
      <trkpt lat="45.53311" lon="3.2336">
        <ele>454.746</ele>
        <time>2012-10-05T12:35:48Z</time>
      </trkpt>
      <trkpt lat="45.53326" lon="3.23383">
        <ele>453.53867</ele>
        <time>2012-10-05T12:35:51Z</time>
      </trkpt>
      <trkpt lat="45.5334" lon="3.23405">
        <ele>452.21838</ele>
        <time>2012-10-05T12:35:54Z</time>
      </trkpt>
      <trkpt lat="45.53357" lon="3.23428">
        <ele>451.0067</ele>
        <time>2012-10-05T12:35:57Z</time>
      </trkpt>
      <trkpt lat="45.53377" lon="3.23448">
        <ele>449.79083</ele>
        <time>2012-10-05T12:36:00Z</time>
      </trkpt>
      <trkpt lat="45.53396" lon="3.23466">
        <ele>448.48608</ele>
        <time>2012-10-05T12:36:04Z</time>
      </trkpt>
      <trkpt lat="45.53416" lon="3.23489">
        <ele>446.68457</ele>
        <time>2012-10-05T12:36:08Z</time>
      </trkpt>
      <trkpt lat="45.53431" lon="3.23509">
        <ele>444.85962</ele>
        <time>2012-10-05T12:36:11Z</time>
      </trkpt>
      <trkpt lat="45.53447" lon="3.23534">
        <ele>443.13193</ele>
        <time>2012-10-05T12:36:14Z</time>
      </trkpt>
      <trkpt lat="45.53468" lon="3.23559">
        <ele>441.88898</ele>
        <time>2012-10-05T12:36:17Z</time>
      </trkpt>
      <trkpt lat="45.53483" lon="3.23579">
        <ele>440.979</ele>
        <time>2012-10-05T12:36:19Z</time>
      </trkpt>
      <trkpt lat="45.53497" lon="3.23596">
        <ele>440.07336</ele>
        <time>2012-10-05T12:36:21Z</time>
      </trkpt>
      <trkpt lat="45.53516" lon="3.23603">
        <ele>438.9327</ele>
        <time>2012-10-05T12:36:23Z</time>
      </trkpt>
      <trkpt lat="45.53534" lon="3.23592">
        <ele>437.54733</ele>
        <time>2012-10-05T12:36:25Z</time>
      </trkpt>
      <trkpt lat="45.53549" lon="3.23572">
        <ele>436.1618</ele>
        <time>2012-10-05T12:36:27Z</time>
      </trkpt>
      <trkpt lat="45.53562" lon="3.23546">
        <ele>435.2637</ele>
        <time>2012-10-05T12:36:29Z</time>
      </trkpt>
      <trkpt lat="45.53573" lon="3.23518">
        <ele>434.1273</ele>
        <time>2012-10-05T12:36:31Z</time>
      </trkpt>
      <trkpt lat="45.5359" lon="3.23501">
        <ele>432.96204</ele>
        <time>2012-10-05T12:36:34Z</time>
      </trkpt>
      <trkpt lat="45.53605" lon="3.23529">
        <ele>432.08917</ele>
        <time>2012-10-05T12:36:37Z</time>
      </trkpt>
      <trkpt lat="45.53612" lon="3.23565">
        <ele>430.17877</ele>
        <time>2012-10-05T12:36:39Z</time>
      </trkpt>
      <trkpt lat="45.53621" lon="3.23593">
        <ele>429.05447</ele>
        <time>2012-10-05T12:36:42Z</time>
      </trkpt>
      <trkpt lat="45.5363" lon="3.23623">
        <ele>427.1096</ele>
        <time>2012-10-05T12:36:44Z</time>
      </trkpt>
      <trkpt lat="45.53638" lon="3.23653">
        <ele>424.7281</ele>
        <time>2012-10-05T12:36:46Z</time>
      </trkpt>
      <trkpt lat="45.53647" lon="3.23682">
        <ele>422.1135</ele>
        <time>2012-10-05T12:36:48Z</time>
      </trkpt>
      <trkpt lat="45.53659" lon="3.23714">
        <ele>420.43027</ele>
        <time>2012-10-05T12:36:50Z</time>
      </trkpt>
      <trkpt lat="45.53668" lon="3.23746">
        <ele>418.9772</ele>
        <time>2012-10-05T12:36:52Z</time>
      </trkpt>
      <trkpt lat="45.53679" lon="3.23779">
        <ele>417.87238</ele>
        <time>2012-10-05T12:36:54Z</time>
      </trkpt>
      <trkpt lat="45.53686" lon="3.23812">
        <ele>417.23215</ele>
        <time>2012-10-05T12:36:56Z</time>
      </trkpt>
      <trkpt lat="45.53697" lon="3.23842">
        <ele>416.12827</ele>
        <time>2012-10-05T12:36:58Z</time>
      </trkpt>
      <trkpt lat="45.53708" lon="3.23871">
        <ele>414.99484</ele>
        <time>2012-10-05T12:37:00Z</time>
      </trkpt>
      <trkpt lat="45.5372" lon="3.23901">
        <ele>414.26355</ele>
        <time>2012-10-05T12:37:02Z</time>
      </trkpt>
      <trkpt lat="45.53726" lon="3.23924">
        <ele>413.8022</ele>
        <time>2012-10-05T12:37:04Z</time>
      </trkpt>
      <trkpt lat="45.53734" lon="3.23953">
        <ele>413.56766</ele>
        <time>2012-10-05T12:37:06Z</time>
      </trkpt>
      <trkpt lat="45.53744" lon="3.23979">
        <ele>413.1545</ele>
        <time>2012-10-05T12:37:08Z</time>
      </trkpt>
      <trkpt lat="45.53751" lon="3.24004">
        <ele>412.77835</ele>
        <time>2012-10-05T12:37:10Z</time>
      </trkpt>
      <trkpt lat="45.53759" lon="3.24037">
        <ele>411.12262</ele>
        <time>2012-10-05T12:37:13Z</time>
      </trkpt>
      <trkpt lat="45.53771" lon="3.24071">
        <ele>410.8085</ele>
        <time>2012-10-05T12:37:16Z</time>
      </trkpt>
      <trkpt lat="45.53781" lon="3.24101">
        <ele>408.49316</ele>
        <time>2012-10-05T12:37:19Z</time>
      </trkpt>
      <trkpt lat="45.53789" lon="3.24133">
        <ele>406.40387</ele>
        <time>2012-10-05T12:37:22Z</time>
      </trkpt>
      <trkpt lat="45.538" lon="3.24165">
        <ele>405.91464</ele>
        <time>2012-10-05T12:37:25Z</time>
      </trkpt>
      <trkpt lat="45.53812" lon="3.24194">
        <ele>404.93796</ele>
        <time>2012-10-05T12:37:28Z</time>
      </trkpt>
      <trkpt lat="45.53822" lon="3.24224">
        <ele>402.92435</ele>
        <time>2012-10-05T12:37:31Z</time>
      </trkpt>
      <trkpt lat="45.53829" lon="3.2425">
        <ele>401.6436</ele>
        <time>2012-10-05T12:37:33Z</time>
      </trkpt>
      <trkpt lat="45.53837" lon="3.24278">
        <ele>400.41736</ele>
        <time>2012-10-05T12:37:37Z</time>
      </trkpt>
      <trkpt lat="45.53846" lon="3.24306">
        <ele>399.1844</ele>
        <time>2012-10-05T12:37:40Z</time>
      </trkpt>
      <trkpt lat="45.53854" lon="3.24334">
        <ele>397.9486</ele>
        <time>2012-10-05T12:37:43Z</time>
      </trkpt>
      <trkpt lat="45.53863" lon="3.24361">
        <ele>397.20227</ele>
        <time>2012-10-05T12:37:46Z</time>
      </trkpt>
      <trkpt lat="45.5387" lon="3.24385">
        <ele>397.10306</ele>
        <time>2012-10-05T12:37:49Z</time>
      </trkpt>
      <trkpt lat="45.53888" lon="3.24401">
        <ele>395.81424</ele>
        <time>2012-10-05T12:38:14Z</time>
      </trkpt>
      <trkpt lat="45.53906" lon="3.2439">
        <ele>395.7548</ele>
        <time>2012-10-05T12:38:18Z</time>
      </trkpt>
      <trkpt lat="45.53924" lon="3.24383">
        <ele>396.8627</ele>
        <time>2012-10-05T12:38:21Z</time>
      </trkpt>
      <trkpt lat="45.5394" lon="3.24372">
        <ele>396.8129</ele>
        <time>2012-10-05T12:38:24Z</time>
      </trkpt>
      <trkpt lat="45.53957" lon="3.24361">
        <ele>396.0966</ele>
        <time>2012-10-05T12:38:27Z</time>
      </trkpt>
      <trkpt lat="45.53975" lon="3.2435">
        <ele>395.79126</ele>
        <time>2012-10-05T12:38:30Z</time>
      </trkpt>
      <trkpt lat="45.53995" lon="3.24339">
        <ele>395.35776</ele>
        <time>2012-10-05T12:38:33Z</time>
      </trkpt>
      <trkpt lat="45.54014" lon="3.24326">
        <ele>394.6108</ele>
        <time>2012-10-05T12:38:36Z</time>
      </trkpt>
      <trkpt lat="45.54035" lon="3.24314">
        <ele>394.51913</ele>
        <time>2012-10-05T12:38:39Z</time>
      </trkpt>
      <trkpt lat="45.54054" lon="3.24301">
        <ele>394.26328</ele>
        <time>2012-10-05T12:38:42Z</time>
      </trkpt>
      <trkpt lat="45.54074" lon="3.24288">
        <ele>394.13034</ele>
        <time>2012-10-05T12:38:45Z</time>
      </trkpt>
      <trkpt lat="45.54091" lon="3.24278">
        <ele>394.4149</ele>
        <time>2012-10-05T12:38:48Z</time>
      </trkpt>
      <trkpt lat="45.54113" lon="3.24266">
        <ele>395.22687</ele>
        <time>2012-10-05T12:38:52Z</time>
      </trkpt>
      <trkpt lat="45.54135" lon="3.24253">
        <ele>397.05176</ele>
        <time>2012-10-05T12:38:56Z</time>
      </trkpt>
      <trkpt lat="45.54157" lon="3.24238">
        <ele>398.09244</ele>
        <time>2012-10-05T12:39:00Z</time>
      </trkpt>
      <trkpt lat="45.54177" lon="3.24223">
        <ele>398.1694</ele>
        <time>2012-10-05T12:39:04Z</time>
      </trkpt>
      <trkpt lat="45.54197" lon="3.24218">
        <ele>398.58292</ele>
        <time>2012-10-05T12:39:07Z</time>
      </trkpt>
      <trkpt lat="45.54215" lon="3.24214">
        <ele>398.91986</ele>
        <time>2012-10-05T12:39:10Z</time>
      </trkpt>
      <trkpt lat="45.54234" lon="3.24207">
        <ele>399.19327</ele>
        <time>2012-10-05T12:39:13Z</time>
      </trkpt>
      <trkpt lat="45.54256" lon="3.24197">
        <ele>399.5841</ele>
        <time>2012-10-05T12:39:17Z</time>
      </trkpt>
      <trkpt lat="45.54276" lon="3.24191">
        <ele>401.10074</ele>
        <time>2012-10-05T12:39:21Z</time>
      </trkpt>
      <trkpt lat="45.54299" lon="3.24189">
        <ele>406.5267</ele>
        <time>2012-10-05T12:39:25Z</time>
      </trkpt>
      <trkpt lat="45.54323" lon="3.24188">
        <ele>409.39117</ele>
        <time>2012-10-05T12:39:29Z</time>
      </trkpt>
      <trkpt lat="45.54341" lon="3.24185">
        <ele>408.27493</ele>
        <time>2012-10-05T12:39:32Z</time>
      </trkpt>
      <trkpt lat="45.54362" lon="3.24182">
        <ele>407.44705</ele>
        <time>2012-10-05T12:39:36Z</time>
      </trkpt>
      <trkpt lat="45.54381" lon="3.24182">
        <ele>407.38443</ele>
        <time>2012-10-05T12:39:39Z</time>
      </trkpt>
      <trkpt lat="45.54399" lon="3.24182">
        <ele>406.59396</ele>
        <time>2012-10-05T12:39:42Z</time>
      </trkpt>
      <trkpt lat="45.54417" lon="3.24187">
        <ele>406.23077</ele>
        <time>2012-10-05T12:39:45Z</time>
      </trkpt>
      <trkpt lat="45.54436" lon="3.24183">
        <ele>406.90256</ele>
        <time>2012-10-05T12:39:48Z</time>
      </trkpt>
      <trkpt lat="45.54459" lon="3.24183">
        <ele>407.23587</ele>
        <time>2012-10-05T12:39:52Z</time>
      </trkpt>
      <trkpt lat="45.54478" lon="3.24186">
        <ele>407.68753</ele>
        <time>2012-10-05T12:39:55Z</time>
      </trkpt>
      <trkpt lat="45.54502" lon="3.24189">
        <ele>407.5307</ele>
        <time>2012-10-05T12:39:59Z</time>
      </trkpt>
      <trkpt lat="45.54525" lon="3.24198">
        <ele>406.8108</ele>
        <time>2012-10-05T12:40:03Z</time>
      </trkpt>
      <trkpt lat="45.54547" lon="3.24202">
        <ele>406.2727</ele>
        <time>2012-10-05T12:40:08Z</time>
      </trkpt>
      <trkpt lat="45.54571" lon="3.2421">
        <ele>405.8852</ele>
        <time>2012-10-05T12:40:14Z</time>
      </trkpt>
      <trkpt lat="45.54593" lon="3.24211">
        <ele>406.45453</ele>
        <time>2012-10-05T12:40:19Z</time>
      </trkpt>
      <trkpt lat="45.54611" lon="3.24229">
        <ele>407.62888</ele>
        <time>2012-10-05T12:40:23Z</time>
      </trkpt>
      <trkpt lat="45.54632" lon="3.24239">
        <ele>406.94992</ele>
        <time>2012-10-05T12:40:29Z</time>
      </trkpt>
      <trkpt lat="45.54648" lon="3.24222">
        <ele>407.54916</ele>
        <time>2012-10-05T12:40:34Z</time>
      </trkpt>
      <trkpt lat="45.54663" lon="3.24197">
        <ele>407.3748</ele>
        <time>2012-10-05T12:40:39Z</time>
      </trkpt>
      <trkpt lat="45.54676" lon="3.24176">
        <ele>407.27707</ele>
        <time>2012-10-05T12:40:43Z</time>
      </trkpt>
      <trkpt lat="45.54693" lon="3.24157">
        <ele>407.08405</ele>
        <time>2012-10-05T12:40:47Z</time>
      </trkpt>
      <trkpt lat="45.5471" lon="3.24138">
        <ele>406.8558</ele>
        <time>2012-10-05T12:40:51Z</time>
      </trkpt>
      <trkpt lat="45.54725" lon="3.24115">
        <ele>406.26483</ele>
        <time>2012-10-05T12:40:55Z</time>
      </trkpt>
      <trkpt lat="45.54741" lon="3.24093">
        <ele>406.16104</ele>
        <time>2012-10-05T12:40:59Z</time>
      </trkpt>
      <trkpt lat="45.54755" lon="3.24074">
        <ele>405.58054</ele>
        <time>2012-10-05T12:41:03Z</time>
      </trkpt>
      <trkpt lat="45.5477" lon="3.24055">
        <ele>405.26447</ele>
        <time>2012-10-05T12:41:07Z</time>
      </trkpt>
      <trkpt lat="45.54783" lon="3.24035">
        <ele>404.8695</ele>
        <time>2012-10-05T12:41:10Z</time>
      </trkpt>
      <trkpt lat="45.54803" lon="3.24021">
        <ele>404.83127</ele>
        <time>2012-10-05T12:41:15Z</time>
      </trkpt>
      <trkpt lat="45.54819" lon="3.24007">
        <ele>405.08362</ele>
        <time>2012-10-05T12:41:19Z</time>
      </trkpt>
      <trkpt lat="45.54835" lon="3.2399">
        <ele>404.52826</ele>
        <time>2012-10-05T12:41:24Z</time>
      </trkpt>
      <trkpt lat="45.54853" lon="3.23974">
        <ele>405.04004</ele>
        <time>2012-10-05T12:41:29Z</time>
      </trkpt>
      <trkpt lat="45.54873" lon="3.2396">
        <ele>405.73532</ele>
        <time>2012-10-05T12:41:34Z</time>
      </trkpt>
      <trkpt lat="45.54891" lon="3.23945">
        <ele>406.37833</ele>
        <time>2012-10-05T12:41:40Z</time>
      </trkpt>
      <trkpt lat="45.54908" lon="3.23932">
        <ele>407.73578</ele>
        <time>2012-10-05T12:41:46Z</time>
      </trkpt>
      <trkpt lat="45.54923" lon="3.23916">
        <ele>409.12753</ele>
        <time>2012-10-05T12:41:52Z</time>
      </trkpt>
      <trkpt lat="45.54939" lon="3.23897">
        <ele>411.00674</ele>
        <time>2012-10-05T12:41:58Z</time>
      </trkpt>
      <trkpt lat="45.54955" lon="3.23883">
        <ele>412.76932</ele>
        <time>2012-10-05T12:42:04Z</time>
      </trkpt>
      <trkpt lat="45.5497" lon="3.23868">
        <ele>416.21167</ele>
        <time>2012-10-05T12:42:10Z</time>
      </trkpt>
      <trkpt lat="45.54986" lon="3.2385">
        <ele>419.83575</ele>
        <time>2012-10-05T12:42:17Z</time>
      </trkpt>
      <trkpt lat="45.55003" lon="3.23832">
        <ele>425.80432</ele>
        <time>2012-10-05T12:42:24Z</time>
      </trkpt>
      <trkpt lat="45.55019" lon="3.23813">
        <ele>427.7293</ele>
        <time>2012-10-05T12:42:30Z</time>
      </trkpt>
      <trkpt lat="45.55033" lon="3.23793">
        <ele>429.08902</ele>
        <time>2012-10-05T12:42:36Z</time>
      </trkpt>
      <trkpt lat="45.55045" lon="3.23774">
        <ele>429.36646</ele>
        <time>2012-10-05T12:42:41Z</time>
      </trkpt>
      <trkpt lat="45.55059" lon="3.23754">
        <ele>429.02585</ele>
        <time>2012-10-05T12:42:46Z</time>
      </trkpt>
      <trkpt lat="45.55075" lon="3.23735">
        <ele>428.89856</ele>
        <time>2012-10-05T12:42:50Z</time>
      </trkpt>
      <trkpt lat="45.55086" lon="3.23712">
        <ele>428.58124</ele>
        <time>2012-10-05T12:42:56Z</time>
      </trkpt>
      <trkpt lat="45.55097" lon="3.23688">
        <ele>426.76324</ele>
        <time>2012-10-05T12:43:01Z</time>
      </trkpt>
      <trkpt lat="45.55109" lon="3.23667">
        <ele>426.33</ele>
        <time>2012-10-05T12:43:06Z</time>
      </trkpt>
      <trkpt lat="45.55119" lon="3.23642">
        <ele>427.3849</ele>
        <time>2012-10-05T12:43:11Z</time>
      </trkpt>
      <trkpt lat="45.55127" lon="3.23617">
        <ele>428.9697</ele>
        <time>2012-10-05T12:43:16Z</time>
      </trkpt>
      <trkpt lat="45.55137" lon="3.2359">
        <ele>429.57632</ele>
        <time>2012-10-05T12:43:21Z</time>
      </trkpt>
      <trkpt lat="45.55147" lon="3.23563">
        <ele>429.99188</ele>
        <time>2012-10-05T12:43:26Z</time>
      </trkpt>
      <trkpt lat="45.55156" lon="3.23533">
        <ele>430.59457</ele>
        <time>2012-10-05T12:43:31Z</time>
      </trkpt>
      <trkpt lat="45.55164" lon="3.23508">
        <ele>431.81772</ele>
        <time>2012-10-05T12:43:35Z</time>
      </trkpt>
      <trkpt lat="45.55173" lon="3.23482">
        <ele>432.27466</ele>
        <time>2012-10-05T12:43:39Z</time>
      </trkpt>
      <trkpt lat="45.55183" lon="3.23455">
        <ele>432.4333</ele>
        <time>2012-10-05T12:43:43Z</time>
      </trkpt>
      <trkpt lat="45.55192" lon="3.23428">
        <ele>433.1452</ele>
        <time>2012-10-05T12:43:47Z</time>
      </trkpt>
      <trkpt lat="45.55201" lon="3.23403">
        <ele>434.2767</ele>
        <time>2012-10-05T12:43:51Z</time>
      </trkpt>
      <trkpt lat="45.55209" lon="3.23378">
        <ele>435.03433</ele>
        <time>2012-10-05T12:43:54Z</time>
      </trkpt>
      <trkpt lat="45.55218" lon="3.23354">
        <ele>435.82678</ele>
        <time>2012-10-05T12:43:59Z</time>
      </trkpt>
      <trkpt lat="45.55225" lon="3.23328">
        <ele>436.8568</ele>
        <time>2012-10-05T12:44:03Z</time>
      </trkpt>
      <trkpt lat="45.55232" lon="3.23303">
        <ele>437.47803</ele>
        <time>2012-10-05T12:44:07Z</time>
      </trkpt>
      <trkpt lat="45.55238" lon="3.23278">
        <ele>437.35352</ele>
        <time>2012-10-05T12:44:11Z</time>
      </trkpt>
      <trkpt lat="45.55245" lon="3.23252">
        <ele>435.58597</ele>
        <time>2012-10-05T12:44:15Z</time>
      </trkpt>
      <trkpt lat="45.55249" lon="3.23226">
        <ele>434.85718</ele>
        <time>2012-10-05T12:44:19Z</time>
      </trkpt>
      <trkpt lat="45.55251" lon="3.23198">
        <ele>434.70395</ele>
        <time>2012-10-05T12:44:23Z</time>
      </trkpt>
      <trkpt lat="45.55253" lon="3.2317">
        <ele>434.6027</ele>
        <time>2012-10-05T12:44:27Z</time>
      </trkpt>
      <trkpt lat="45.55255" lon="3.23141">
        <ele>435.0285</ele>
        <time>2012-10-05T12:44:31Z</time>
      </trkpt>
      <trkpt lat="45.55257" lon="3.23112">
        <ele>435.63315</ele>
        <time>2012-10-05T12:44:35Z</time>
      </trkpt>
      <trkpt lat="45.5526" lon="3.23083">
        <ele>436.53186</ele>
        <time>2012-10-05T12:44:39Z</time>
      </trkpt>
      <trkpt lat="45.55264" lon="3.23057">
        <ele>437.35333</ele>
        <time>2012-10-05T12:44:43Z</time>
      </trkpt>
      <trkpt lat="45.55265" lon="3.23028">
        <ele>438.36325</ele>
        <time>2012-10-05T12:44:47Z</time>
      </trkpt>
      <trkpt lat="45.55269" lon="3.22999">
        <ele>439.60587</ele>
        <time>2012-10-05T12:44:51Z</time>
      </trkpt>
      <trkpt lat="45.55273" lon="3.22972">
        <ele>440.2994</ele>
        <time>2012-10-05T12:44:55Z</time>
      </trkpt>
      <trkpt lat="45.55277" lon="3.22944">
        <ele>440.39932</ele>
        <time>2012-10-05T12:44:59Z</time>
      </trkpt>
      <trkpt lat="45.55281" lon="3.22917">
        <ele>440.23914</ele>
        <time>2012-10-05T12:45:03Z</time>
      </trkpt>
      <trkpt lat="45.55285" lon="3.22889">
        <ele>440.3244</ele>
        <time>2012-10-05T12:45:07Z</time>
      </trkpt>
      <trkpt lat="45.5529" lon="3.22864">
        <ele>440.17715</ele>
        <time>2012-10-05T12:45:11Z</time>
      </trkpt>
      <trkpt lat="45.553" lon="3.2284">
        <ele>440.03098</ele>
        <time>2012-10-05T12:45:15Z</time>
      </trkpt>
      <trkpt lat="45.55312" lon="3.22821">
        <ele>440.81088</ele>
        <time>2012-10-05T12:45:19Z</time>
      </trkpt>
      <trkpt lat="45.55327" lon="3.22804">
        <ele>441.7709</ele>
        <time>2012-10-05T12:45:23Z</time>
      </trkpt>
      <trkpt lat="45.55346" lon="3.22786">
        <ele>443.81647</ele>
        <time>2012-10-05T12:45:28Z</time>
      </trkpt>
      <trkpt lat="45.55363" lon="3.2277">
        <ele>446.28976</ele>
        <time>2012-10-05T12:45:33Z</time>
      </trkpt>
      <trkpt lat="45.55381" lon="3.22752">
        <ele>447.4693</ele>
        <time>2012-10-05T12:45:38Z</time>
      </trkpt>
      <trkpt lat="45.55399" lon="3.22737">
        <ele>448.67233</ele>
        <time>2012-10-05T12:45:43Z</time>
      </trkpt>
      <trkpt lat="45.55416" lon="3.22722">
        <ele>450.94376</ele>
        <time>2012-10-05T12:45:48Z</time>
      </trkpt>
      <trkpt lat="45.55431" lon="3.22707">
        <ele>451.15204</ele>
        <time>2012-10-05T12:45:52Z</time>
      </trkpt>
      <trkpt lat="45.55448" lon="3.22692">
        <ele>451.34097</ele>
        <time>2012-10-05T12:45:56Z</time>
      </trkpt>
      <trkpt lat="45.55467" lon="3.22678">
        <ele>450.77225</ele>
        <time>2012-10-05T12:46:00Z</time>
      </trkpt>
      <trkpt lat="45.55484" lon="3.22658">
        <ele>451.43137</ele>
        <time>2012-10-05T12:46:04Z</time>
      </trkpt>
      <trkpt lat="45.55502" lon="3.22635">
        <ele>451.43637</ele>
        <time>2012-10-05T12:46:08Z</time>
      </trkpt>
      <trkpt lat="45.55516" lon="3.2261">
        <ele>451.26337</ele>
        <time>2012-10-05T12:46:12Z</time>
      </trkpt>
      <trkpt lat="45.55525" lon="3.22588">
        <ele>451.346</ele>
        <time>2012-10-05T12:46:15Z</time>
      </trkpt>
      <trkpt lat="45.55535" lon="3.22566">
        <ele>450.68243</ele>
        <time>2012-10-05T12:46:17Z</time>
      </trkpt>
      <trkpt lat="45.55548" lon="3.22542">
        <ele>450.5424</ele>
        <time>2012-10-05T12:46:22Z</time>
      </trkpt>
      <trkpt lat="45.55558" lon="3.22512">
        <ele>451.27075</ele>
        <time>2012-10-05T12:46:26Z</time>
      </trkpt>
      <trkpt lat="45.55568" lon="3.22485">
        <ele>451.26877</ele>
        <time>2012-10-05T12:46:30Z</time>
      </trkpt>
      <trkpt lat="45.5558" lon="3.22465">
        <ele>450.75684</ele>
        <time>2012-10-05T12:46:34Z</time>
      </trkpt>
      <trkpt lat="45.55591" lon="3.22441">
        <ele>449.9038</ele>
        <time>2012-10-05T12:46:38Z</time>
      </trkpt>
      <trkpt lat="45.55603" lon="3.22417">
        <ele>449.56985</ele>
        <time>2012-10-05T12:46:42Z</time>
      </trkpt>
      <trkpt lat="45.55615" lon="3.2239">
        <ele>450.25</ele>
        <time>2012-10-05T12:46:47Z</time>
      </trkpt>
      <trkpt lat="45.55625" lon="3.22363">
        <ele>451.35956</ele>
        <time>2012-10-05T12:46:52Z</time>
      </trkpt>
      <trkpt lat="45.55634" lon="3.22335">
        <ele>452.2631</ele>
        <time>2012-10-05T12:46:57Z</time>
      </trkpt>
      <trkpt lat="45.5564" lon="3.2231">
        <ele>453.27844</ele>
        <time>2012-10-05T12:47:01Z</time>
      </trkpt>
      <trkpt lat="45.55645" lon="3.22285">
        <ele>454.1138</ele>
        <time>2012-10-05T12:47:05Z</time>
      </trkpt>
      <trkpt lat="45.55652" lon="3.22258">
        <ele>453.6909</ele>
        <time>2012-10-05T12:47:10Z</time>
      </trkpt>
      <trkpt lat="45.5566" lon="3.2223">
        <ele>453.9506</ele>
        <time>2012-10-05T12:47:15Z</time>
      </trkpt>
      <trkpt lat="45.55668" lon="3.22203">
        <ele>455.01202</ele>
        <time>2012-10-05T12:47:20Z</time>
      </trkpt>
      <trkpt lat="45.55675" lon="3.22177">
        <ele>456.97778</ele>
        <time>2012-10-05T12:47:25Z</time>
      </trkpt>
      <trkpt lat="45.55679" lon="3.22152">
        <ele>458.7804</ele>
        <time>2012-10-05T12:47:30Z</time>
      </trkpt>
      <trkpt lat="45.55681" lon="3.22125">
        <ele>460.15408</ele>
        <time>2012-10-05T12:47:35Z</time>
      </trkpt>
      <trkpt lat="45.55681" lon="3.22097">
        <ele>461.51517</ele>
        <time>2012-10-05T12:47:41Z</time>
      </trkpt>
      <trkpt lat="45.55682" lon="3.2207">
        <ele>462.2221</ele>
        <time>2012-10-05T12:47:47Z</time>
      </trkpt>
      <trkpt lat="45.55684" lon="3.22042">
        <ele>463.39658</ele>
        <time>2012-10-05T12:47:53Z</time>
      </trkpt>
      <trkpt lat="45.55687" lon="3.22016">
        <ele>466.01984</ele>
        <time>2012-10-05T12:47:59Z</time>
      </trkpt>
      <trkpt lat="45.5569" lon="3.21987">
        <ele>466.8777</ele>
        <time>2012-10-05T12:48:05Z</time>
      </trkpt>
      <trkpt lat="45.55694" lon="3.21958">
        <ele>467.7706</ele>
        <time>2012-10-05T12:48:11Z</time>
      </trkpt>
      <trkpt lat="45.55702" lon="3.21934">
        <ele>468.99146</ele>
        <time>2012-10-05T12:48:17Z</time>
      </trkpt>
      <trkpt lat="45.5571" lon="3.2191">
        <ele>469.00507</ele>
        <time>2012-10-05T12:48:23Z</time>
      </trkpt>
      <trkpt lat="45.55722" lon="3.21887">
        <ele>471.1247</ele>
        <time>2012-10-05T12:48:29Z</time>
      </trkpt>
      <trkpt lat="45.55736" lon="3.21865">
        <ele>472.33755</ele>
        <time>2012-10-05T12:48:35Z</time>
      </trkpt>
      <trkpt lat="45.55748" lon="3.21842">
        <ele>474.61252</ele>
        <time>2012-10-05T12:48:42Z</time>
      </trkpt>
      <trkpt lat="45.5576" lon="3.21819">
        <ele>477.06375</ele>
        <time>2012-10-05T12:48:49Z</time>
      </trkpt>
      <trkpt lat="45.55767" lon="3.21795">
        <ele>478.343</ele>
        <time>2012-10-05T12:48:55Z</time>
      </trkpt>
      <trkpt lat="45.55774" lon="3.21767">
        <ele>479.65317</ele>
        <time>2012-10-05T12:49:01Z</time>
      </trkpt>
      <trkpt lat="45.55775" lon="3.21739">
        <ele>483.39175</ele>
        <time>2012-10-05T12:49:09Z</time>
      </trkpt>
      <trkpt lat="45.55779" lon="3.21713">
        <ele>486.3643</ele>
        <time>2012-10-05T12:49:16Z</time>
      </trkpt>
      <trkpt lat="45.55786" lon="3.21686">
        <ele>488.46558</ele>
        <time>2012-10-05T12:49:24Z</time>
      </trkpt>
      <trkpt lat="45.55792" lon="3.21661">
        <ele>490.8693</ele>
        <time>2012-10-05T12:49:32Z</time>
      </trkpt>
      <trkpt lat="45.55796" lon="3.21634">
        <ele>493.58328</ele>
        <time>2012-10-05T12:49:41Z</time>
      </trkpt>
      <trkpt lat="45.55802" lon="3.21608">
        <ele>494.3494</ele>
        <time>2012-10-05T12:49:51Z</time>
      </trkpt>
      <trkpt lat="45.55808" lon="3.21582">
        <ele>496.2421</ele>
        <time>2012-10-05T12:50:00Z</time>
      </trkpt>
      <trkpt lat="45.5581" lon="3.21554">
        <ele>499.70428</ele>
        <time>2012-10-05T12:50:08Z</time>
      </trkpt>
      <trkpt lat="45.55816" lon="3.21526">
        <ele>502.17847</ele>
        <time>2012-10-05T12:50:17Z</time>
      </trkpt>
      <trkpt lat="45.55816" lon="3.215">
        <ele>504.2771</ele>
        <time>2012-10-05T12:50:24Z</time>
      </trkpt>
      <trkpt lat="45.55819" lon="3.21471">
        <ele>506.50372</ele>
        <time>2012-10-05T12:50:33Z</time>
      </trkpt>
      <trkpt lat="45.55822" lon="3.21443">
        <ele>506.22067</ele>
        <time>2012-10-05T12:50:42Z</time>
      </trkpt>
      <trkpt lat="45.55826" lon="3.21418">
        <ele>505.25443</ele>
        <time>2012-10-05T12:50:50Z</time>
      </trkpt>
      <trkpt lat="45.55829" lon="3.21391">
        <ele>505.55386</ele>
        <time>2012-10-05T12:50:58Z</time>
      </trkpt>
      <trkpt lat="45.55835" lon="3.21365">
        <ele>509.78775</ele>
        <time>2012-10-05T12:51:07Z</time>
      </trkpt>
      <trkpt lat="45.55836" lon="3.21339">
        <ele>510.8189</ele>
        <time>2012-10-05T12:51:16Z</time>
      </trkpt>
      <trkpt lat="45.55844" lon="3.21314">
        <ele>514.1932</ele>
        <time>2012-10-05T12:51:23Z</time>
      </trkpt>
      <trkpt lat="45.55842" lon="3.21287">
        <ele>514.68207</ele>
        <time>2012-10-05T12:51:29Z</time>
      </trkpt>
      <trkpt lat="45.55846" lon="3.21259">
        <ele>517.1897</ele>
        <time>2012-10-05T12:51:37Z</time>
      </trkpt>
      <trkpt lat="45.55846" lon="3.21233">
        <ele>518.0402</ele>
        <time>2012-10-05T12:51:45Z</time>
      </trkpt>
      <trkpt lat="45.55849" lon="3.21206">
        <ele>519.88306</ele>
        <time>2012-10-05T12:51:52Z</time>
      </trkpt>
      <trkpt lat="45.55851" lon="3.21177">
        <ele>523.0641</ele>
        <time>2012-10-05T12:52:00Z</time>
      </trkpt>
      <trkpt lat="45.55852" lon="3.21148">
        <ele>527.86804</ele>
        <time>2012-10-05T12:52:08Z</time>
      </trkpt>
      <trkpt lat="45.55853" lon="3.21119">
        <ele>531.8051</ele>
        <time>2012-10-05T12:52:16Z</time>
      </trkpt>
      <trkpt lat="45.55851" lon="3.21091">
        <ele>534.5555</ele>
        <time>2012-10-05T12:52:24Z</time>
      </trkpt>
      <trkpt lat="45.5585" lon="3.21064">
        <ele>535.0423</ele>
        <time>2012-10-05T12:52:32Z</time>
      </trkpt>
      <trkpt lat="45.5585" lon="3.21037">
        <ele>537.88</ele>
        <time>2012-10-05T12:52:40Z</time>
      </trkpt>
      <trkpt lat="45.55848" lon="3.21011">
        <ele>539.5151</ele>
        <time>2012-10-05T12:52:46Z</time>
      </trkpt>
      <trkpt lat="45.55843" lon="3.20986">
        <ele>541.47626</ele>
        <time>2012-10-05T12:52:53Z</time>
      </trkpt>
      <trkpt lat="45.55834" lon="3.20961">
        <ele>541.94995</ele>
        <time>2012-10-05T12:52:59Z</time>
      </trkpt>
      <trkpt lat="45.55827" lon="3.20932">
        <ele>541.7731</ele>
        <time>2012-10-05T12:53:06Z</time>
      </trkpt>
      <trkpt lat="45.55819" lon="3.20905">
        <ele>542.07697</ele>
        <time>2012-10-05T12:53:12Z</time>
      </trkpt>
      <trkpt lat="45.55811" lon="3.20881">
        <ele>543.07776</ele>
        <time>2012-10-05T12:53:17Z</time>
      </trkpt>
      <trkpt lat="45.55802" lon="3.20855">
        <ele>542.37476</ele>
        <time>2012-10-05T12:53:24Z</time>
      </trkpt>
      <trkpt lat="45.55807" lon="3.20826">
        <ele>544.6943</ele>
        <time>2012-10-05T12:53:31Z</time>
      </trkpt>
      <trkpt lat="45.55817" lon="3.20804">
        <ele>545.82886</ele>
        <time>2012-10-05T12:53:36Z</time>
      </trkpt>
      <trkpt lat="45.55829" lon="3.20784">
        <ele>546.94135</ele>
        <time>2012-10-05T12:53:41Z</time>
      </trkpt>
      <trkpt lat="45.55839" lon="3.20761">
        <ele>547.5607</ele>
        <time>2012-10-05T12:53:47Z</time>
      </trkpt>
      <trkpt lat="45.55845" lon="3.20734">
        <ele>548.9415</ele>
        <time>2012-10-05T12:53:53Z</time>
      </trkpt>
      <trkpt lat="45.5585" lon="3.20707">
        <ele>551.44086</ele>
        <time>2012-10-05T12:53:59Z</time>
      </trkpt>
      <trkpt lat="45.55855" lon="3.2068">
        <ele>554.4318</ele>
        <time>2012-10-05T12:54:05Z</time>
      </trkpt>
      <trkpt lat="45.55857" lon="3.20652">
        <ele>554.4157</ele>
        <time>2012-10-05T12:54:10Z</time>
      </trkpt>
      <trkpt lat="45.55856" lon="3.20625">
        <ele>554.232</ele>
        <time>2012-10-05T12:54:15Z</time>
      </trkpt>
      <trkpt lat="45.55856" lon="3.20597">
        <ele>554.35547</ele>
        <time>2012-10-05T12:54:20Z</time>
      </trkpt>
      <trkpt lat="45.55854" lon="3.2057">
        <ele>553.0747</ele>
        <time>2012-10-05T12:54:25Z</time>
      </trkpt>
      <trkpt lat="45.55852" lon="3.20542">
        <ele>553.17566</ele>
        <time>2012-10-05T12:54:30Z</time>
      </trkpt>
      <trkpt lat="45.55849" lon="3.20515">
        <ele>553.4477</ele>
        <time>2012-10-05T12:54:35Z</time>
      </trkpt>
      <trkpt lat="45.55846" lon="3.20485">
        <ele>554.77386</ele>
        <time>2012-10-05T12:54:41Z</time>
      </trkpt>
      <trkpt lat="45.55844" lon="3.20455">
        <ele>553.445</ele>
        <time>2012-10-05T12:54:47Z</time>
      </trkpt>
      <trkpt lat="45.55837" lon="3.20428">
        <ele>552.1156</ele>
        <time>2012-10-05T12:54:52Z</time>
      </trkpt>
      <trkpt lat="45.55829" lon="3.20405">
        <ele>550.63586</ele>
        <time>2012-10-05T12:54:57Z</time>
      </trkpt>
      <trkpt lat="45.55821" lon="3.20379">
        <ele>549.9929</ele>
        <time>2012-10-05T12:55:01Z</time>
      </trkpt>
      <trkpt lat="45.55813" lon="3.20356">
        <ele>552.3615</ele>
        <time>2012-10-05T12:55:06Z</time>
      </trkpt>
      <trkpt lat="45.55804" lon="3.20329">
        <ele>555.1868</ele>
        <time>2012-10-05T12:55:12Z</time>
      </trkpt>
      <trkpt lat="45.55799" lon="3.20303">
        <ele>556.7948</ele>
        <time>2012-10-05T12:55:18Z</time>
      </trkpt>
      <trkpt lat="45.55801" lon="3.20277">
        <ele>559.566</ele>
        <time>2012-10-05T12:55:24Z</time>
      </trkpt>
      <trkpt lat="45.55806" lon="3.20252">
        <ele>559.7548</ele>
        <time>2012-10-05T12:55:30Z</time>
      </trkpt>
      <trkpt lat="45.55815" lon="3.20229">
        <ele>563.0704</ele>
        <time>2012-10-05T12:55:37Z</time>
      </trkpt>
      <trkpt lat="45.55818" lon="3.202">
        <ele>565.93054</ele>
        <time>2012-10-05T12:55:45Z</time>
      </trkpt>
      <trkpt lat="45.55816" lon="3.20174">
        <ele>568.04407</ele>
        <time>2012-10-05T12:55:52Z</time>
      </trkpt>
      <trkpt lat="45.55813" lon="3.20146">
        <ele>569.7848</ele>
        <time>2012-10-05T12:55:59Z</time>
      </trkpt>
      <trkpt lat="45.55808" lon="3.20119">
        <ele>570.5493</ele>
        <time>2012-10-05T12:56:06Z</time>
      </trkpt>
      <trkpt lat="45.55802" lon="3.20094">
        <ele>571.35144</ele>
        <time>2012-10-05T12:56:13Z</time>
      </trkpt>
      <trkpt lat="45.55799" lon="3.20068">
        <ele>573.3328</ele>
        <time>2012-10-05T12:56:20Z</time>
      </trkpt>
      <trkpt lat="45.55794" lon="3.2004">
        <ele>574.0794</ele>
        <time>2012-10-05T12:56:27Z</time>
      </trkpt>
      <trkpt lat="45.55788" lon="3.20015">
        <ele>573.464</ele>
        <time>2012-10-05T12:56:33Z</time>
      </trkpt>
      <trkpt lat="45.55785" lon="3.19986">
        <ele>573.6884</ele>
        <time>2012-10-05T12:56:39Z</time>
      </trkpt>
      <trkpt lat="45.55786" lon="3.19957">
        <ele>575.2845</ele>
        <time>2012-10-05T12:56:45Z</time>
      </trkpt>
      <trkpt lat="45.55788" lon="3.19929">
        <ele>576.73</ele>
        <time>2012-10-05T12:56:51Z</time>
      </trkpt>
      <trkpt lat="45.55789" lon="3.19901">
        <ele>578.1515</ele>
        <time>2012-10-05T12:56:57Z</time>
      </trkpt>
      <trkpt lat="45.55789" lon="3.19874">
        <ele>578.594</ele>
        <time>2012-10-05T12:57:03Z</time>
      </trkpt>
      <trkpt lat="45.55788" lon="3.19847">
        <ele>580.10803</ele>
        <time>2012-10-05T12:57:09Z</time>
      </trkpt>
      <trkpt lat="45.55785" lon="3.1982">
        <ele>581.0026</ele>
        <time>2012-10-05T12:57:15Z</time>
      </trkpt>
      <trkpt lat="45.5578" lon="3.19792">
        <ele>581.5502</ele>
        <time>2012-10-05T12:57:21Z</time>
      </trkpt>
      <trkpt lat="45.55775" lon="3.19764">
        <ele>582.9298</ele>
        <time>2012-10-05T12:57:27Z</time>
      </trkpt>
      <trkpt lat="45.55766" lon="3.19736">
        <ele>584.39453</ele>
        <time>2012-10-05T12:57:33Z</time>
      </trkpt>
      <trkpt lat="45.55759" lon="3.1971">
        <ele>585.3502</ele>
        <time>2012-10-05T12:57:39Z</time>
      </trkpt>
      <trkpt lat="45.55751" lon="3.19684">
        <ele>585.97906</ele>
        <time>2012-10-05T12:57:45Z</time>
      </trkpt>
      <trkpt lat="45.55742" lon="3.19659">
        <ele>586.84576</ele>
        <time>2012-10-05T12:57:51Z</time>
      </trkpt>
      <trkpt lat="45.55733" lon="3.19637">
        <ele>587.0733</ele>
        <time>2012-10-05T12:57:56Z</time>
      </trkpt>
      <trkpt lat="45.55724" lon="3.19614">
        <ele>587.19476</ele>
        <time>2012-10-05T12:58:01Z</time>
      </trkpt>
      <trkpt lat="45.55717" lon="3.19589">
        <ele>587.6757</ele>
        <time>2012-10-05T12:58:06Z</time>
      </trkpt>
      <trkpt lat="45.55712" lon="3.19564">
        <ele>588.53326</ele>
        <time>2012-10-05T12:58:11Z</time>
      </trkpt>
      <trkpt lat="45.55708" lon="3.19537">
        <ele>589.59326</ele>
        <time>2012-10-05T12:58:16Z</time>
      </trkpt>
      <trkpt lat="45.55705" lon="3.19509">
        <ele>590.13934</ele>
        <time>2012-10-05T12:58:21Z</time>
      </trkpt>
      <trkpt lat="45.55702" lon="3.19481">
        <ele>591.0018</ele>
        <time>2012-10-05T12:58:26Z</time>
      </trkpt>
      <trkpt lat="45.55701" lon="3.19453">
        <ele>592.9315</ele>
        <time>2012-10-05T12:58:31Z</time>
      </trkpt>
      <trkpt lat="45.55696" lon="3.19422">
        <ele>594.062</ele>
        <time>2012-10-05T12:58:36Z</time>
      </trkpt>
      <trkpt lat="45.55692" lon="3.19391">
        <ele>594.8506</ele>
        <time>2012-10-05T12:58:41Z</time>
      </trkpt>
      <trkpt lat="45.5569" lon="3.19365">
        <ele>595.6257</ele>
        <time>2012-10-05T12:58:45Z</time>
      </trkpt>
      <trkpt lat="45.55687" lon="3.19339">
        <ele>596.1401</ele>
        <time>2012-10-05T12:58:49Z</time>
      </trkpt>
      <trkpt lat="45.55686" lon="3.19312">
        <ele>596.2407</ele>
        <time>2012-10-05T12:58:53Z</time>
      </trkpt>
      <trkpt lat="45.55688" lon="3.19283">
        <ele>595.4671</ele>
        <time>2012-10-05T12:58:57Z</time>
      </trkpt>
      <trkpt lat="45.55691" lon="3.19254">
        <ele>594.72736</ele>
        <time>2012-10-05T12:59:01Z</time>
      </trkpt>
      <trkpt lat="45.55691" lon="3.19222">
        <ele>594.0925</ele>
        <time>2012-10-05T12:59:05Z</time>
      </trkpt>
      <trkpt lat="45.55691" lon="3.19194">
        <ele>593.7815</ele>
        <time>2012-10-05T12:59:09Z</time>
      </trkpt>
      <trkpt lat="45.55689" lon="3.19163">
        <ele>594.889</ele>
        <time>2012-10-05T12:59:13Z</time>
      </trkpt>
      <trkpt lat="45.55685" lon="3.19135">
        <ele>595.21045</ele>
        <time>2012-10-05T12:59:17Z</time>
      </trkpt>
      <trkpt lat="45.55681" lon="3.19108">
        <ele>595.3286</ele>
        <time>2012-10-05T12:59:21Z</time>
      </trkpt>
      <trkpt lat="45.55677" lon="3.19081">
        <ele>595.40466</ele>
        <time>2012-10-05T12:59:25Z</time>
      </trkpt>
      <trkpt lat="45.55675" lon="3.19051">
        <ele>595.30084</ele>
        <time>2012-10-05T12:59:30Z</time>
      </trkpt>
      <trkpt lat="45.5568" lon="3.1902">
        <ele>596.28784</ele>
        <time>2012-10-05T12:59:35Z</time>
      </trkpt>
      <trkpt lat="45.55684" lon="3.18993">
        <ele>597.1047</ele>
        <time>2012-10-05T12:59:39Z</time>
      </trkpt>
      <trkpt lat="45.55686" lon="3.18965">
        <ele>597.4791</ele>
        <time>2012-10-05T12:59:43Z</time>
      </trkpt>
      <trkpt lat="45.55686" lon="3.18935">
        <ele>597.0683</ele>
        <time>2012-10-05T12:59:47Z</time>
      </trkpt>
      <trkpt lat="45.55689" lon="3.18907">
        <ele>597.13794</ele>
        <time>2012-10-05T12:59:51Z</time>
      </trkpt>
      <trkpt lat="45.55691" lon="3.18878">
        <ele>597.7564</ele>
        <time>2012-10-05T12:59:55Z</time>
      </trkpt>
      <trkpt lat="45.55697" lon="3.18853">
        <ele>598.8697</ele>
        <time>2012-10-05T12:59:59Z</time>
      </trkpt>
      <trkpt lat="45.55704" lon="3.18828">
        <ele>599.34735</ele>
        <time>2012-10-05T13:00:03Z</time>
      </trkpt>
      <trkpt lat="45.55708" lon="3.18802">
        <ele>599.7524</ele>
        <time>2012-10-05T13:00:07Z</time>
      </trkpt>
      <trkpt lat="45.55715" lon="3.18776">
        <ele>599.59344</ele>
        <time>2012-10-05T13:00:11Z</time>
      </trkpt>
      <trkpt lat="45.55721" lon="3.18745">
        <ele>599.3027</ele>
        <time>2012-10-05T13:00:16Z</time>
      </trkpt>
      <trkpt lat="45.55729" lon="3.1872">
        <ele>599.7429</ele>
        <time>2012-10-05T13:00:20Z</time>
      </trkpt>
      <trkpt lat="45.55738" lon="3.18696">
        <ele>600.45685</ele>
        <time>2012-10-05T13:00:24Z</time>
      </trkpt>
      <trkpt lat="45.55746" lon="3.1867">
        <ele>601.1011</ele>
        <time>2012-10-05T13:00:28Z</time>
      </trkpt>
      <trkpt lat="45.55758" lon="3.18647">
        <ele>601.0819</ele>
        <time>2012-10-05T13:00:32Z</time>
      </trkpt>
      <trkpt lat="45.55772" lon="3.18624">
        <ele>602.38086</ele>
        <time>2012-10-05T13:00:36Z</time>
      </trkpt>
      <trkpt lat="45.55787" lon="3.186">
        <ele>602.72705</ele>
        <time>2012-10-05T13:00:40Z</time>
      </trkpt>
      <trkpt lat="45.55801" lon="3.18574">
        <ele>602.9206</ele>
        <time>2012-10-05T13:00:44Z</time>
      </trkpt>
      <trkpt lat="45.55812" lon="3.18553">
        <ele>602.7373</ele>
        <time>2012-10-05T13:00:47Z</time>
      </trkpt>
      <trkpt lat="45.55828" lon="3.18528">
        <ele>602.29254</ele>
        <time>2012-10-05T13:00:51Z</time>
      </trkpt>
      <trkpt lat="45.55842" lon="3.18505">
        <ele>602.47394</ele>
        <time>2012-10-05T13:00:54Z</time>
      </trkpt>
      <trkpt lat="45.55856" lon="3.18484">
        <ele>602.26764</ele>
        <time>2012-10-05T13:00:57Z</time>
      </trkpt>
      <trkpt lat="45.55869" lon="3.18461">
        <ele>602.03375</ele>
        <time>2012-10-05T13:01:00Z</time>
      </trkpt>
      <trkpt lat="45.55884" lon="3.18438">
        <ele>602.2335</ele>
        <time>2012-10-05T13:01:03Z</time>
      </trkpt>
      <trkpt lat="45.55894" lon="3.18416">
        <ele>603.07404</ele>
        <time>2012-10-05T13:01:06Z</time>
      </trkpt>
      <trkpt lat="45.55905" lon="3.18393">
        <ele>603.6271</ele>
        <time>2012-10-05T13:01:09Z</time>
      </trkpt>
      <trkpt lat="45.55916" lon="3.18369">
        <ele>604.0869</ele>
        <time>2012-10-05T13:01:12Z</time>
      </trkpt>
      <trkpt lat="45.55927" lon="3.18347">
        <ele>604.09033</ele>
        <time>2012-10-05T13:01:15Z</time>
      </trkpt>
      <trkpt lat="45.55938" lon="3.18324">
        <ele>604.5824</ele>
        <time>2012-10-05T13:01:18Z</time>
      </trkpt>
      <trkpt lat="45.55945" lon="3.18299">
        <ele>605.5962</ele>
        <time>2012-10-05T13:01:21Z</time>
      </trkpt>
      <trkpt lat="45.55956" lon="3.18277">
        <ele>606.15204</ele>
        <time>2012-10-05T13:01:24Z</time>
      </trkpt>
      <trkpt lat="45.55971" lon="3.18255">
        <ele>607.34216</ele>
        <time>2012-10-05T13:01:28Z</time>
      </trkpt>
      <trkpt lat="45.55986" lon="3.18237">
        <ele>608.11365</ele>
        <time>2012-10-05T13:01:32Z</time>
      </trkpt>
      <trkpt lat="45.55997" lon="3.18216">
        <ele>608.8688</ele>
        <time>2012-10-05T13:01:35Z</time>
      </trkpt>
      <trkpt lat="45.56008" lon="3.18187">
        <ele>608.28613</ele>
        <time>2012-10-05T13:01:39Z</time>
      </trkpt>
      <trkpt lat="45.56017" lon="3.18162">
        <ele>608.3846</ele>
        <time>2012-10-05T13:01:43Z</time>
      </trkpt>
      <trkpt lat="45.56027" lon="3.18134">
        <ele>608.7079</ele>
        <time>2012-10-05T13:01:47Z</time>
      </trkpt>
      <trkpt lat="45.56038" lon="3.18105">
        <ele>609.6692</ele>
        <time>2012-10-05T13:01:51Z</time>
      </trkpt>
      <trkpt lat="45.5605" lon="3.18076">
        <ele>610.0831</ele>
        <time>2012-10-05T13:01:55Z</time>
      </trkpt>
      <trkpt lat="45.56062" lon="3.18047">
        <ele>609.9114</ele>
        <time>2012-10-05T13:01:59Z</time>
      </trkpt>
      <trkpt lat="45.56071" lon="3.18024">
        <ele>609.6725</ele>
        <time>2012-10-05T13:02:02Z</time>
      </trkpt>
      <trkpt lat="45.56079" lon="3.18">
        <ele>610.2483</ele>
        <time>2012-10-05T13:02:05Z</time>
      </trkpt>
      <trkpt lat="45.56089" lon="3.17978">
        <ele>610.75995</ele>
        <time>2012-10-05T13:02:08Z</time>
      </trkpt>
      <trkpt lat="45.56099" lon="3.17956">
        <ele>611.1211</ele>
        <time>2012-10-05T13:02:11Z</time>
      </trkpt>
      <trkpt lat="45.5611" lon="3.17927">
        <ele>611.95734</ele>
        <time>2012-10-05T13:02:15Z</time>
      </trkpt>
      <trkpt lat="45.5612" lon="3.17901">
        <ele>612.9872</ele>
        <time>2012-10-05T13:02:19Z</time>
      </trkpt>
      <trkpt lat="45.56133" lon="3.17875">
        <ele>614.4986</ele>
        <time>2012-10-05T13:02:23Z</time>
      </trkpt>
      <trkpt lat="45.56144" lon="3.17848">
        <ele>615.6893</ele>
        <time>2012-10-05T13:02:27Z</time>
      </trkpt>
      <trkpt lat="45.56159" lon="3.17821">
        <ele>616.8422</ele>
        <time>2012-10-05T13:02:31Z</time>
      </trkpt>
      <trkpt lat="45.56169" lon="3.17793">
        <ele>616.05505</ele>
        <time>2012-10-05T13:02:35Z</time>
      </trkpt>
      <trkpt lat="45.56176" lon="3.17769">
        <ele>615.64716</ele>
        <time>2012-10-05T13:02:38Z</time>
      </trkpt>
      <trkpt lat="45.56183" lon="3.17743">
        <ele>615.00793</ele>
        <time>2012-10-05T13:02:41Z</time>
      </trkpt>
      <trkpt lat="45.5619" lon="3.17712">
        <ele>613.70074</ele>
        <time>2012-10-05T13:02:44Z</time>
      </trkpt>
      <trkpt lat="45.56195" lon="3.17687">
        <ele>612.34186</ele>
        <time>2012-10-05T13:02:46Z</time>
      </trkpt>
      <trkpt lat="45.56198" lon="3.1766">
        <ele>610.92126</ele>
        <time>2012-10-05T13:02:48Z</time>
      </trkpt>
      <trkpt lat="45.56199" lon="3.17632">
        <ele>609.9846</ele>
        <time>2012-10-05T13:02:50Z</time>
      </trkpt>
      <trkpt lat="45.56203" lon="3.17603">
        <ele>608.83905</ele>
        <time>2012-10-05T13:02:52Z</time>
      </trkpt>
      <trkpt lat="45.56208" lon="3.1757">
        <ele>606.5884</ele>
        <time>2012-10-05T13:02:54Z</time>
      </trkpt>
      <trkpt lat="45.56213" lon="3.17531">
        <ele>603.3599</ele>
        <time>2012-10-05T13:02:56Z</time>
      </trkpt>
      <trkpt lat="45.5622" lon="3.17496">
        <ele>600.3751</ele>
        <time>2012-10-05T13:02:58Z</time>
      </trkpt>
      <trkpt lat="45.56224" lon="3.17468">
        <ele>597.6025</ele>
        <time>2012-10-05T13:03:00Z</time>
      </trkpt>
      <trkpt lat="45.56224" lon="3.17437">
        <ele>594.6303</ele>
        <time>2012-10-05T13:03:01Z</time>
      </trkpt>
      <trkpt lat="45.5623" lon="3.17405">
        <ele>591.8397</ele>
        <time>2012-10-05T13:03:04Z</time>
      </trkpt>
      <trkpt lat="45.56238" lon="3.17378">
        <ele>589.29504</ele>
        <time>2012-10-05T13:03:06Z</time>
      </trkpt>
      <trkpt lat="45.56248" lon="3.17352">
        <ele>587.5199</ele>
        <time>2012-10-05T13:03:08Z</time>
      </trkpt>
      <trkpt lat="45.56259" lon="3.17331">
        <ele>586.4401</ele>
        <time>2012-10-05T13:03:10Z</time>
      </trkpt>
      <trkpt lat="45.56272" lon="3.17311">
        <ele>585.8265</ele>
        <time>2012-10-05T13:03:12Z</time>
      </trkpt>
      <trkpt lat="45.56288" lon="3.17293">
        <ele>584.2376</ele>
        <time>2012-10-05T13:03:14Z</time>
      </trkpt>
      <trkpt lat="45.56304" lon="3.17279">
        <ele>582.8626</ele>
        <time>2012-10-05T13:03:16Z</time>
      </trkpt>
      <trkpt lat="45.56326" lon="3.17272">
        <ele>581.7754</ele>
        <time>2012-10-05T13:03:19Z</time>
      </trkpt>
      <trkpt lat="45.56345" lon="3.17283">
        <ele>581.7687</ele>
        <time>2012-10-05T13:03:23Z</time>
      </trkpt>
      <trkpt lat="45.5636" lon="3.17299">
        <ele>584.6404</ele>
        <time>2012-10-05T13:03:27Z</time>
      </trkpt>
      <trkpt lat="45.56376" lon="3.1731">
        <ele>586.2089</ele>
        <time>2012-10-05T13:03:32Z</time>
      </trkpt>
      <trkpt lat="45.56391" lon="3.17325">
        <ele>585.1413</ele>
        <time>2012-10-05T13:03:37Z</time>
      </trkpt>
      <trkpt lat="45.5641" lon="3.17337">
        <ele>582.69055</ele>
        <time>2012-10-05T13:03:44Z</time>
      </trkpt>
      <trkpt lat="45.5643" lon="3.17341">
        <ele>584.4407</ele>
        <time>2012-10-05T13:03:52Z</time>
      </trkpt>
      <trkpt lat="45.56451" lon="3.17339">
        <ele>586.2494</ele>
        <time>2012-10-05T13:03:58Z</time>
      </trkpt>
      <trkpt lat="45.56473" lon="3.17335">
        <ele>586.9082</ele>
        <time>2012-10-05T13:04:04Z</time>
      </trkpt>
      <trkpt lat="45.56493" lon="3.17338">
        <ele>588.0443</ele>
        <time>2012-10-05T13:04:10Z</time>
      </trkpt>
      <trkpt lat="45.56512" lon="3.17347">
        <ele>588.03503</ele>
        <time>2012-10-05T13:04:15Z</time>
      </trkpt>
      <trkpt lat="45.56531" lon="3.17359">
        <ele>586.5125</ele>
        <time>2012-10-05T13:04:21Z</time>
      </trkpt>
      <trkpt lat="45.56546" lon="3.17376">
        <ele>586.7151</ele>
        <time>2012-10-05T13:04:27Z</time>
      </trkpt>
      <trkpt lat="45.56559" lon="3.17397">
        <ele>591.1469</ele>
        <time>2012-10-05T13:04:33Z</time>
      </trkpt>
      <trkpt lat="45.56572" lon="3.1742">
        <ele>594.2226</ele>
        <time>2012-10-05T13:04:40Z</time>
      </trkpt>
      <trkpt lat="45.56581" lon="3.17446">
        <ele>597.2158</ele>
        <time>2012-10-05T13:04:48Z</time>
      </trkpt>
      <trkpt lat="45.56588" lon="3.1747">
        <ele>599.9371</ele>
        <time>2012-10-05T13:04:56Z</time>
      </trkpt>
      <trkpt lat="45.56596" lon="3.17497">
        <ele>601.11066</ele>
        <time>2012-10-05T13:05:04Z</time>
      </trkpt>
      <trkpt lat="45.566" lon="3.17524">
        <ele>601.15625</ele>
        <time>2012-10-05T13:05:11Z</time>
      </trkpt>
      <trkpt lat="45.56601" lon="3.17551">
        <ele>603.07355</ele>
        <time>2012-10-05T13:05:19Z</time>
      </trkpt>
      <trkpt lat="45.56605" lon="3.17579">
        <ele>603.2747</ele>
        <time>2012-10-05T13:05:25Z</time>
      </trkpt>
      <trkpt lat="45.56609" lon="3.17607">
        <ele>605.361</ele>
        <time>2012-10-05T13:05:32Z</time>
      </trkpt>
      <trkpt lat="45.56613" lon="3.17635">
        <ele>605.6659</ele>
        <time>2012-10-05T13:05:39Z</time>
      </trkpt>
      <trkpt lat="45.5662" lon="3.17663">
        <ele>608.65125</ele>
        <time>2012-10-05T13:05:46Z</time>
      </trkpt>
      <trkpt lat="45.56633" lon="3.17685">
        <ele>610.7704</ele>
        <time>2012-10-05T13:05:52Z</time>
      </trkpt>
      <trkpt lat="45.56646" lon="3.17704">
        <ele>611.4176</ele>
        <time>2012-10-05T13:05:58Z</time>
      </trkpt>
      <trkpt lat="45.56663" lon="3.17721">
        <ele>611.6711</ele>
        <time>2012-10-05T13:06:04Z</time>
      </trkpt>
      <trkpt lat="45.56682" lon="3.17738">
        <ele>610.82935</ele>
        <time>2012-10-05T13:06:10Z</time>
      </trkpt>
      <trkpt lat="45.56698" lon="3.17757">
        <ele>609.6632</ele>
        <time>2012-10-05T13:06:15Z</time>
      </trkpt>
      <trkpt lat="45.5671" lon="3.17776">
        <ele>609.08044</ele>
        <time>2012-10-05T13:06:19Z</time>
      </trkpt>
      <trkpt lat="45.56727" lon="3.17792">
        <ele>608.966</ele>
        <time>2012-10-05T13:06:23Z</time>
      </trkpt>
      <trkpt lat="45.56746" lon="3.17807">
        <ele>608.7212</ele>
        <time>2012-10-05T13:06:27Z</time>
      </trkpt>
      <trkpt lat="45.56766" lon="3.17821">
        <ele>608.9636</ele>
        <time>2012-10-05T13:06:31Z</time>
      </trkpt>
      <trkpt lat="45.56785" lon="3.17836">
        <ele>609.8001</ele>
        <time>2012-10-05T13:06:35Z</time>
      </trkpt>
      <trkpt lat="45.56802" lon="3.17856">
        <ele>610.83356</ele>
        <time>2012-10-05T13:06:39Z</time>
      </trkpt>
      <trkpt lat="45.56818" lon="3.17879">
        <ele>611.42145</ele>
        <time>2012-10-05T13:06:43Z</time>
      </trkpt>
      <trkpt lat="45.56834" lon="3.17893">
        <ele>612.0111</ele>
        <time>2012-10-05T13:06:46Z</time>
      </trkpt>
      <trkpt lat="45.56848" lon="3.17911">
        <ele>612.61304</ele>
        <time>2012-10-05T13:06:49Z</time>
      </trkpt>
      <trkpt lat="45.56865" lon="3.17932">
        <ele>613.1001</ele>
        <time>2012-10-05T13:06:53Z</time>
      </trkpt>
      <trkpt lat="45.56882" lon="3.17948">
        <ele>612.2256</ele>
        <time>2012-10-05T13:06:56Z</time>
      </trkpt>
      <trkpt lat="45.56898" lon="3.17966">
        <ele>612.4004</ele>
        <time>2012-10-05T13:06:59Z</time>
      </trkpt>
      <trkpt lat="45.56914" lon="3.1798">
        <ele>612.99445</ele>
        <time>2012-10-05T13:07:02Z</time>
      </trkpt>
      <trkpt lat="45.56931" lon="3.18">
        <ele>613.3712</ele>
        <time>2012-10-05T13:07:06Z</time>
      </trkpt>
      <trkpt lat="45.56952" lon="3.18017">
        <ele>613.4821</ele>
        <time>2012-10-05T13:07:09Z</time>
      </trkpt>
      <trkpt lat="45.56969" lon="3.18027">
        <ele>614.6211</ele>
        <time>2012-10-05T13:07:12Z</time>
      </trkpt>
      <trkpt lat="45.56988" lon="3.18042">
        <ele>615.5157</ele>
        <time>2012-10-05T13:07:15Z</time>
      </trkpt>
      <trkpt lat="45.57005" lon="3.18059">
        <ele>616.8915</ele>
        <time>2012-10-05T13:07:18Z</time>
      </trkpt>
      <trkpt lat="45.57022" lon="3.18071">
        <ele>617.4235</ele>
        <time>2012-10-05T13:07:21Z</time>
      </trkpt>
      <trkpt lat="45.5704" lon="3.1809">
        <ele>617.6745</ele>
        <time>2012-10-05T13:07:24Z</time>
      </trkpt>
      <trkpt lat="45.57055" lon="3.18105">
        <ele>617.8898</ele>
        <time>2012-10-05T13:07:27Z</time>
      </trkpt>
      <trkpt lat="45.57069" lon="3.18126">
        <ele>618.21027</ele>
        <time>2012-10-05T13:07:30Z</time>
      </trkpt>
      <trkpt lat="45.57088" lon="3.18146">
        <ele>618.5215</ele>
        <time>2012-10-05T13:07:34Z</time>
      </trkpt>
      <trkpt lat="45.57106" lon="3.1817">
        <ele>618.7673</ele>
        <time>2012-10-05T13:07:38Z</time>
      </trkpt>
      <trkpt lat="45.5712" lon="3.18192">
        <ele>619.0789</ele>
        <time>2012-10-05T13:07:41Z</time>
      </trkpt>
      <trkpt lat="45.57138" lon="3.18209">
        <ele>619.03424</ele>
        <time>2012-10-05T13:07:45Z</time>
      </trkpt>
      <trkpt lat="45.57155" lon="3.18227">
        <ele>618.0799</ele>
        <time>2012-10-05T13:07:49Z</time>
      </trkpt>
      <trkpt lat="45.57165" lon="3.1825">
        <ele>617.9999</ele>
        <time>2012-10-05T13:07:52Z</time>
      </trkpt>
      <trkpt lat="45.5718" lon="3.18269">
        <ele>615.712</ele>
        <time>2012-10-05T13:07:56Z</time>
      </trkpt>
      <trkpt lat="45.57194" lon="3.18294">
        <ele>614.60876</ele>
        <time>2012-10-05T13:08:00Z</time>
      </trkpt>
      <trkpt lat="45.57208" lon="3.1832">
        <ele>614.3937</ele>
        <time>2012-10-05T13:08:04Z</time>
      </trkpt>
      <trkpt lat="45.57215" lon="3.18348">
        <ele>613.6619</ele>
        <time>2012-10-05T13:08:07Z</time>
      </trkpt>
      <trkpt lat="45.57225" lon="3.18376">
        <ele>615.14764</ele>
        <time>2012-10-05T13:08:11Z</time>
      </trkpt>
      <trkpt lat="45.57239" lon="3.18397">
        <ele>615.15247</ele>
        <time>2012-10-05T13:08:15Z</time>
      </trkpt>
      <trkpt lat="45.57251" lon="3.1842">
        <ele>614.34033</ele>
        <time>2012-10-05T13:08:19Z</time>
      </trkpt>
      <trkpt lat="45.57269" lon="3.18449">
        <ele>613.9564</ele>
        <time>2012-10-05T13:08:23Z</time>
      </trkpt>
      <trkpt lat="45.57275" lon="3.18478">
        <ele>616.2162</ele>
        <time>2012-10-05T13:08:27Z</time>
      </trkpt>
      <trkpt lat="45.57279" lon="3.18509">
        <ele>618.67377</ele>
        <time>2012-10-05T13:08:31Z</time>
      </trkpt>
      <trkpt lat="45.57281" lon="3.18537">
        <ele>619.77795</ele>
        <time>2012-10-05T13:08:35Z</time>
      </trkpt>
      <trkpt lat="45.57285" lon="3.18568">
        <ele>619.1679</ele>
        <time>2012-10-05T13:08:39Z</time>
      </trkpt>
      <trkpt lat="45.57281" lon="3.18599">
        <ele>617.67804</ele>
        <time>2012-10-05T13:08:43Z</time>
      </trkpt>
      <trkpt lat="45.57279" lon="3.1863">
        <ele>615.55426</ele>
        <time>2012-10-05T13:08:47Z</time>
      </trkpt>
      <trkpt lat="45.57277" lon="3.18662">
        <ele>614.42725</ele>
        <time>2012-10-05T13:08:51Z</time>
      </trkpt>
      <trkpt lat="45.57277" lon="3.18692">
        <ele>612.0736</ele>
        <time>2012-10-05T13:08:56Z</time>
      </trkpt>
      <trkpt lat="45.57267" lon="3.18713">
        <ele>610.4537</ele>
        <time>2012-10-05T13:09:00Z</time>
      </trkpt>
      <trkpt lat="45.57255" lon="3.18736">
        <ele>610.66766</ele>
        <time>2012-10-05T13:09:04Z</time>
      </trkpt>
      <trkpt lat="45.57248" lon="3.18759">
        <ele>609.87524</ele>
        <time>2012-10-05T13:09:08Z</time>
      </trkpt>
      <trkpt lat="45.5724" lon="3.18789">
        <ele>609.2666</ele>
        <time>2012-10-05T13:09:13Z</time>
      </trkpt>
      <trkpt lat="45.5723" lon="3.18813">
        <ele>609.6388</ele>
        <time>2012-10-05T13:09:18Z</time>
      </trkpt>
      <trkpt lat="45.57218" lon="3.18835">
        <ele>609.3899</ele>
        <time>2012-10-05T13:09:22Z</time>
      </trkpt>
      <trkpt lat="45.57207" lon="3.18858">
        <ele>609.3014</ele>
        <time>2012-10-05T13:09:26Z</time>
      </trkpt>
      <trkpt lat="45.5719" lon="3.18878">
        <ele>609.6617</ele>
        <time>2012-10-05T13:09:30Z</time>
      </trkpt>
      <trkpt lat="45.57175" lon="3.18891">
        <ele>609.91394</ele>
        <time>2012-10-05T13:09:33Z</time>
      </trkpt>
      <trkpt lat="45.57172" lon="3.1892">
        <ele>609.65155</ele>
        <time>2012-10-05T13:10:46Z</time>
      </trkpt>
      <trkpt lat="45.5718" lon="3.18946">
        <ele>607.1498</ele>
        <time>2012-10-05T13:10:50Z</time>
      </trkpt>
      <trkpt lat="45.57193" lon="3.18967">
        <ele>603.9148</ele>
        <time>2012-10-05T13:10:55Z</time>
      </trkpt>
      <trkpt lat="45.57212" lon="3.18954">
        <ele>602.01587</ele>
        <time>2012-10-05T13:11:01Z</time>
      </trkpt>
      <trkpt lat="45.57229" lon="3.18941">
        <ele>600.30963</ele>
        <time>2012-10-05T13:11:05Z</time>
      </trkpt>
      <trkpt lat="45.57246" lon="3.18928">
        <ele>598.5249</ele>
        <time>2012-10-05T13:11:08Z</time>
      </trkpt>
      <trkpt lat="45.57264" lon="3.18913">
        <ele>596.37195</ele>
        <time>2012-10-05T13:11:11Z</time>
      </trkpt>
      <trkpt lat="45.57284" lon="3.18894">
        <ele>594.7277</ele>
        <time>2012-10-05T13:11:14Z</time>
      </trkpt>
      <trkpt lat="45.57306" lon="3.18877">
        <ele>592.1466</ele>
        <time>2012-10-05T13:11:17Z</time>
      </trkpt>
      <trkpt lat="45.57327" lon="3.18859">
        <ele>589.078</ele>
        <time>2012-10-05T13:11:20Z</time>
      </trkpt>
      <trkpt lat="45.57349" lon="3.1884">
        <ele>585.9428</ele>
        <time>2012-10-05T13:11:23Z</time>
      </trkpt>
      <trkpt lat="45.57371" lon="3.18821">
        <ele>582.5795</ele>
        <time>2012-10-05T13:11:26Z</time>
      </trkpt>
      <trkpt lat="45.57389" lon="3.18807">
        <ele>579.57367</ele>
        <time>2012-10-05T13:11:28Z</time>
      </trkpt>
      <trkpt lat="45.57407" lon="3.18791">
        <ele>576.2579</ele>
        <time>2012-10-05T13:11:30Z</time>
      </trkpt>
      <trkpt lat="45.57425" lon="3.18772">
        <ele>572.94275</ele>
        <time>2012-10-05T13:11:32Z</time>
      </trkpt>
      <trkpt lat="45.57441" lon="3.18752">
        <ele>569.5155</ele>
        <time>2012-10-05T13:11:34Z</time>
      </trkpt>
      <trkpt lat="45.57455" lon="3.18733">
        <ele>566.5001</ele>
        <time>2012-10-05T13:11:36Z</time>
      </trkpt>
      <trkpt lat="45.5747" lon="3.18716">
        <ele>564.01025</ele>
        <time>2012-10-05T13:11:38Z</time>
      </trkpt>
      <trkpt lat="45.57485" lon="3.18697">
        <ele>561.516</ele>
        <time>2012-10-05T13:11:40Z</time>
      </trkpt>
      <trkpt lat="45.57503" lon="3.18682">
        <ele>559.1129</ele>
        <time>2012-10-05T13:11:42Z</time>
      </trkpt>
      <trkpt lat="45.57522" lon="3.1867">
        <ele>556.605</ele>
        <time>2012-10-05T13:11:44Z</time>
      </trkpt>
      <trkpt lat="45.57542" lon="3.18662">
        <ele>553.9255</ele>
        <time>2012-10-05T13:11:46Z</time>
      </trkpt>
      <trkpt lat="45.57561" lon="3.18657">
        <ele>551.14954</ele>
        <time>2012-10-05T13:11:48Z</time>
      </trkpt>
      <trkpt lat="45.57582" lon="3.1865">
        <ele>548.463</ele>
        <time>2012-10-05T13:11:50Z</time>
      </trkpt>
      <trkpt lat="45.57603" lon="3.18643">
        <ele>545.74567</ele>
        <time>2012-10-05T13:11:52Z</time>
      </trkpt>
      <trkpt lat="45.57625" lon="3.18636">
        <ele>542.8984</ele>
        <time>2012-10-05T13:11:54Z</time>
      </trkpt>
      <trkpt lat="45.57647" lon="3.18628">
        <ele>539.7593</ele>
        <time>2012-10-05T13:11:56Z</time>
      </trkpt>
      <trkpt lat="45.57669" lon="3.18618">
        <ele>536.4185</ele>
        <time>2012-10-05T13:11:58Z</time>
      </trkpt>
      <trkpt lat="45.57692" lon="3.18609">
        <ele>532.9706</ele>
        <time>2012-10-05T13:12:00Z</time>
      </trkpt>
      <trkpt lat="45.57715" lon="3.186">
        <ele>529.7249</ele>
        <time>2012-10-05T13:12:02Z</time>
      </trkpt>
      <trkpt lat="45.57738" lon="3.1859">
        <ele>526.7617</ele>
        <time>2012-10-05T13:12:04Z</time>
      </trkpt>
      <trkpt lat="45.5776" lon="3.1858">
        <ele>523.8949</ele>
        <time>2012-10-05T13:12:06Z</time>
      </trkpt>
      <trkpt lat="45.57783" lon="3.18569">
        <ele>521.25104</ele>
        <time>2012-10-05T13:12:08Z</time>
      </trkpt>
      <trkpt lat="45.57804" lon="3.18558">
        <ele>518.1514</ele>
        <time>2012-10-05T13:12:10Z</time>
      </trkpt>
      <trkpt lat="45.57825" lon="3.18546">
        <ele>515.49536</ele>
        <time>2012-10-05T13:12:12Z</time>
      </trkpt>
      <trkpt lat="45.57842" lon="3.18534">
        <ele>512.94507</ele>
        <time>2012-10-05T13:12:14Z</time>
      </trkpt>
      <trkpt lat="45.57864" lon="3.18516">
        <ele>509.75546</ele>
        <time>2012-10-05T13:12:17Z</time>
      </trkpt>
      <trkpt lat="45.57882" lon="3.18509">
        <ele>505.66605</ele>
        <time>2012-10-05T13:12:24Z</time>
      </trkpt>
      <trkpt lat="45.57886" lon="3.18538">
        <ele>504.06195</ele>
        <time>2012-10-05T13:12:30Z</time>
      </trkpt>
      <trkpt lat="45.57889" lon="3.18563">
        <ele>503.30972</ele>
        <time>2012-10-05T13:12:34Z</time>
      </trkpt>
      <trkpt lat="45.57892" lon="3.18592">
        <ele>502.6518</ele>
        <time>2012-10-05T13:12:38Z</time>
      </trkpt>
      <trkpt lat="45.57896" lon="3.18623">
        <ele>502.19794</ele>
        <time>2012-10-05T13:12:42Z</time>
      </trkpt>
      <trkpt lat="45.579" lon="3.18655">
        <ele>501.08676</ele>
        <time>2012-10-05T13:12:46Z</time>
      </trkpt>
      <trkpt lat="45.57904" lon="3.18686">
        <ele>500.38712</ele>
        <time>2012-10-05T13:12:50Z</time>
      </trkpt>
      <trkpt lat="45.57906" lon="3.18712">
        <ele>499.78104</ele>
        <time>2012-10-05T13:12:53Z</time>
      </trkpt>
      <trkpt lat="45.57909" lon="3.18738">
        <ele>499.2675</ele>
        <time>2012-10-05T13:12:56Z</time>
      </trkpt>
      <trkpt lat="45.57912" lon="3.18763">
        <ele>498.50244</ele>
        <time>2012-10-05T13:12:59Z</time>
      </trkpt>
      <trkpt lat="45.57915" lon="3.18796">
        <ele>497.94208</ele>
        <time>2012-10-05T13:13:03Z</time>
      </trkpt>
      <trkpt lat="45.57919" lon="3.18829">
        <ele>497.98703</ele>
        <time>2012-10-05T13:13:07Z</time>
      </trkpt>
      <trkpt lat="45.57922" lon="3.18859">
        <ele>497.66806</ele>
        <time>2012-10-05T13:13:11Z</time>
      </trkpt>
      <trkpt lat="45.57926" lon="3.18888">
        <ele>497.24136</ele>
        <time>2012-10-05T13:13:15Z</time>
      </trkpt>
      <trkpt lat="45.57929" lon="3.18916">
        <ele>497.65283</ele>
        <time>2012-10-05T13:13:19Z</time>
      </trkpt>
      <trkpt lat="45.57932" lon="3.18944">
        <ele>498.06506</ele>
        <time>2012-10-05T13:13:23Z</time>
      </trkpt>
      <trkpt lat="45.57936" lon="3.1897">
        <ele>498.95972</ele>
        <time>2012-10-05T13:13:28Z</time>
      </trkpt>
      <trkpt lat="45.57941" lon="3.18997">
        <ele>500.3736</ele>
        <time>2012-10-05T13:13:36Z</time>
      </trkpt>
      <trkpt lat="45.57961" lon="3.18983">
        <ele>499.96136</ele>
        <time>2012-10-05T13:13:43Z</time>
      </trkpt>
      <trkpt lat="45.57978" lon="3.18966">
        <ele>498.8916</ele>
        <time>2012-10-05T13:13:47Z</time>
      </trkpt>
      <trkpt lat="45.57995" lon="3.18949">
        <ele>497.79385</ele>
        <time>2012-10-05T13:13:50Z</time>
      </trkpt>
      <trkpt lat="45.58015" lon="3.18929">
        <ele>495.60886</ele>
        <time>2012-10-05T13:13:53Z</time>
      </trkpt>
      <trkpt lat="45.58031" lon="3.18915">
        <ele>493.8089</ele>
        <time>2012-10-05T13:13:55Z</time>
      </trkpt>
      <trkpt lat="45.58047" lon="3.18899">
        <ele>492.2027</ele>
        <time>2012-10-05T13:13:57Z</time>
      </trkpt>
      <trkpt lat="45.58064" lon="3.18883">
        <ele>490.68045</ele>
        <time>2012-10-05T13:13:59Z</time>
      </trkpt>
      <trkpt lat="45.58081" lon="3.18867">
        <ele>489.26794</ele>
        <time>2012-10-05T13:14:01Z</time>
      </trkpt>
      <trkpt lat="45.58098" lon="3.18851">
        <ele>487.7984</ele>
        <time>2012-10-05T13:14:03Z</time>
      </trkpt>
      <trkpt lat="45.58115" lon="3.18834">
        <ele>486.60928</ele>
        <time>2012-10-05T13:14:05Z</time>
      </trkpt>
      <trkpt lat="45.58132" lon="3.18818">
        <ele>485.6904</ele>
        <time>2012-10-05T13:14:07Z</time>
      </trkpt>
      <trkpt lat="45.58148" lon="3.18802">
        <ele>485.26105</ele>
        <time>2012-10-05T13:14:09Z</time>
      </trkpt>
      <trkpt lat="45.58163" lon="3.18786">
        <ele>485.11328</ele>
        <time>2012-10-05T13:14:11Z</time>
      </trkpt>
      <trkpt lat="45.58183" lon="3.18767">
        <ele>484.99518</ele>
        <time>2012-10-05T13:14:14Z</time>
      </trkpt>
      <trkpt lat="45.58201" lon="3.18747">
        <ele>484.97192</ele>
        <time>2012-10-05T13:14:17Z</time>
      </trkpt>
      <trkpt lat="45.58218" lon="3.1873">
        <ele>484.79492</ele>
        <time>2012-10-05T13:14:20Z</time>
      </trkpt>
      <trkpt lat="45.58235" lon="3.18714">
        <ele>484.2343</ele>
        <time>2012-10-05T13:14:23Z</time>
      </trkpt>
      <trkpt lat="45.58251" lon="3.18698">
        <ele>483.81345</ele>
        <time>2012-10-05T13:14:26Z</time>
      </trkpt>
      <trkpt lat="45.58268" lon="3.18681">
        <ele>483.19525</ele>
        <time>2012-10-05T13:14:29Z</time>
      </trkpt>
      <trkpt lat="45.58286" lon="3.18664">
        <ele>482.12665</ele>
        <time>2012-10-05T13:14:32Z</time>
      </trkpt>
      <trkpt lat="45.58303" lon="3.18646">
        <ele>480.83832</ele>
        <time>2012-10-05T13:14:35Z</time>
      </trkpt>
      <trkpt lat="45.58322" lon="3.18629">
        <ele>479.537</ele>
        <time>2012-10-05T13:14:38Z</time>
      </trkpt>
      <trkpt lat="45.58341" lon="3.18611">
        <ele>478.513</ele>
        <time>2012-10-05T13:14:41Z</time>
      </trkpt>
      <trkpt lat="45.5836" lon="3.18592">
        <ele>477.5232</ele>
        <time>2012-10-05T13:14:44Z</time>
      </trkpt>
      <trkpt lat="45.5838" lon="3.18574">
        <ele>476.20248</ele>
        <time>2012-10-05T13:14:47Z</time>
      </trkpt>
      <trkpt lat="45.584" lon="3.18555">
        <ele>475.42657</ele>
        <time>2012-10-05T13:14:50Z</time>
      </trkpt>
      <trkpt lat="45.5842" lon="3.18538">
        <ele>474.4742</ele>
        <time>2012-10-05T13:14:53Z</time>
      </trkpt>
      <trkpt lat="45.5844" lon="3.18523">
        <ele>473.6631</ele>
        <time>2012-10-05T13:14:56Z</time>
      </trkpt>
      <trkpt lat="45.58461" lon="3.18511">
        <ele>472.9662</ele>
        <time>2012-10-05T13:14:59Z</time>
      </trkpt>
      <trkpt lat="45.58481" lon="3.18499">
        <ele>472.27222</ele>
        <time>2012-10-05T13:15:02Z</time>
      </trkpt>
      <trkpt lat="45.58502" lon="3.18487">
        <ele>471.6966</ele>
        <time>2012-10-05T13:15:05Z</time>
      </trkpt>
      <trkpt lat="45.58522" lon="3.18476">
        <ele>471.18347</ele>
        <time>2012-10-05T13:15:08Z</time>
      </trkpt>
      <trkpt lat="45.5854" lon="3.18464">
        <ele>470.5076</ele>
        <time>2012-10-05T13:15:11Z</time>
      </trkpt>
      <trkpt lat="45.58561" lon="3.18453">
        <ele>469.23315</ele>
        <time>2012-10-05T13:15:15Z</time>
      </trkpt>
      <trkpt lat="45.58579" lon="3.18454">
        <ele>467.09705</ele>
        <time>2012-10-05T13:15:20Z</time>
      </trkpt>
      <trkpt lat="45.5859" lon="3.18476">
        <ele>467.106</ele>
        <time>2012-10-05T13:15:24Z</time>
      </trkpt>
      <trkpt lat="45.58606" lon="3.18492">
        <ele>468.0575</ele>
        <time>2012-10-05T13:15:29Z</time>
      </trkpt>
      <trkpt lat="45.58626" lon="3.18488">
        <ele>468.6753</ele>
        <time>2012-10-05T13:15:34Z</time>
      </trkpt>
      <trkpt lat="45.58648" lon="3.1848">
        <ele>470.00052</ele>
        <time>2012-10-05T13:15:39Z</time>
      </trkpt>
      <trkpt lat="45.5867" lon="3.18472">
        <ele>470.2071</ele>
        <time>2012-10-05T13:15:43Z</time>
      </trkpt>
      <trkpt lat="45.58691" lon="3.18463">
        <ele>469.80096</ele>
        <time>2012-10-05T13:15:47Z</time>
      </trkpt>
      <trkpt lat="45.58708" lon="3.18454">
        <ele>469.48373</ele>
        <time>2012-10-05T13:15:50Z</time>
      </trkpt>
      <trkpt lat="45.58725" lon="3.18445">
        <ele>469.1124</ele>
        <time>2012-10-05T13:15:53Z</time>
      </trkpt>
      <trkpt lat="45.58742" lon="3.18435">
        <ele>469.26514</ele>
        <time>2012-10-05T13:15:56Z</time>
      </trkpt>
      <trkpt lat="45.58761" lon="3.18428">
        <ele>469.68427</ele>
        <time>2012-10-05T13:15:59Z</time>
      </trkpt>
      <trkpt lat="45.58779" lon="3.18422">
        <ele>469.51575</ele>
        <time>2012-10-05T13:16:02Z</time>
      </trkpt>
      <trkpt lat="45.58798" lon="3.1842">
        <ele>469.45245</ele>
        <time>2012-10-05T13:16:05Z</time>
      </trkpt>
      <trkpt lat="45.58817" lon="3.18418">
        <ele>469.07422</ele>
        <time>2012-10-05T13:16:08Z</time>
      </trkpt>
      <trkpt lat="45.58837" lon="3.18416">
        <ele>469.08026</ele>
        <time>2012-10-05T13:16:11Z</time>
      </trkpt>
      <trkpt lat="45.58856" lon="3.18415">
        <ele>468.3719</ele>
        <time>2012-10-05T13:16:14Z</time>
      </trkpt>
      <trkpt lat="45.58875" lon="3.18416">
        <ele>467.59335</ele>
        <time>2012-10-05T13:16:17Z</time>
      </trkpt>
      <trkpt lat="45.58893" lon="3.18419">
        <ele>467.59613</ele>
        <time>2012-10-05T13:16:20Z</time>
      </trkpt>
      <trkpt lat="45.58914" lon="3.18419">
        <ele>467.54108</ele>
        <time>2012-10-05T13:16:23Z</time>
      </trkpt>
      <trkpt lat="45.58934" lon="3.18414">
        <ele>466.2444</ele>
        <time>2012-10-05T13:16:26Z</time>
      </trkpt>
      <trkpt lat="45.58953" lon="3.1841">
        <ele>464.69424</ele>
        <time>2012-10-05T13:16:29Z</time>
      </trkpt>
      <trkpt lat="45.58973" lon="3.18404">
        <ele>464.04965</ele>
        <time>2012-10-05T13:16:32Z</time>
      </trkpt>
      <trkpt lat="45.58996" lon="3.18399">
        <ele>463.4824</ele>
        <time>2012-10-05T13:16:36Z</time>
      </trkpt>
      <trkpt lat="45.59018" lon="3.18394">
        <ele>463.43225</ele>
        <time>2012-10-05T13:16:40Z</time>
      </trkpt>
      <trkpt lat="45.59037" lon="3.18387">
        <ele>463.4429</ele>
        <time>2012-10-05T13:16:44Z</time>
      </trkpt>
      <trkpt lat="45.59057" lon="3.18386">
        <ele>466.38104</ele>
        <time>2012-10-05T13:16:48Z</time>
      </trkpt>
      <trkpt lat="45.59079" lon="3.18376">
        <ele>467.26733</ele>
        <time>2012-10-05T13:16:52Z</time>
      </trkpt>
      <trkpt lat="45.59099" lon="3.18368">
        <ele>466.97043</ele>
        <time>2012-10-05T13:16:56Z</time>
      </trkpt>
      <trkpt lat="45.59122" lon="3.18359">
        <ele>465.82843</ele>
        <time>2012-10-05T13:17:00Z</time>
      </trkpt>
      <trkpt lat="45.59145" lon="3.18351">
        <ele>465.3292</ele>
        <time>2012-10-05T13:17:04Z</time>
      </trkpt>
      <trkpt lat="45.59168" lon="3.18344">
        <ele>465.37515</ele>
        <time>2012-10-05T13:17:08Z</time>
      </trkpt>
      <trkpt lat="45.59189" lon="3.18336">
        <ele>464.36508</ele>
        <time>2012-10-05T13:17:12Z</time>
      </trkpt>
      <trkpt lat="45.5921" lon="3.18328">
        <ele>463.5912</ele>
        <time>2012-10-05T13:17:16Z</time>
      </trkpt>
      <trkpt lat="45.59229" lon="3.18322">
        <ele>463.4143</ele>
        <time>2012-10-05T13:17:20Z</time>
      </trkpt>
      <trkpt lat="45.59248" lon="3.18312">
        <ele>463.01108</ele>
        <time>2012-10-05T13:17:24Z</time>
      </trkpt>
      <trkpt lat="45.59265" lon="3.18317">
        <ele>462.83545</ele>
        <time>2012-10-05T13:17:28Z</time>
      </trkpt>
      <trkpt lat="45.5928" lon="3.18336">
        <ele>461.53143</ele>
        <time>2012-10-05T13:17:32Z</time>
      </trkpt>
      <trkpt lat="45.59295" lon="3.18353">
        <ele>460.4376</ele>
        <time>2012-10-05T13:17:36Z</time>
      </trkpt>
      <trkpt lat="45.59309" lon="3.18371">
        <ele>460.1325</ele>
        <time>2012-10-05T13:17:40Z</time>
      </trkpt>
      <trkpt lat="45.59325" lon="3.18388">
        <ele>460.84457</ele>
        <time>2012-10-05T13:17:44Z</time>
      </trkpt>
      <trkpt lat="45.59342" lon="3.18403">
        <ele>461.58157</ele>
        <time>2012-10-05T13:17:48Z</time>
      </trkpt>
      <trkpt lat="45.59359" lon="3.18414">
        <ele>461.53625</ele>
        <time>2012-10-05T13:17:52Z</time>
      </trkpt>
      <trkpt lat="45.59376" lon="3.18423">
        <ele>462.66617</ele>
        <time>2012-10-05T13:17:57Z</time>
      </trkpt>
      <trkpt lat="45.59395" lon="3.18435">
        <ele>463.96436</ele>
        <time>2012-10-05T13:18:02Z</time>
      </trkpt>
      <trkpt lat="45.59414" lon="3.18445">
        <ele>463.77505</ele>
        <time>2012-10-05T13:18:07Z</time>
      </trkpt>
      <trkpt lat="45.59434" lon="3.18456">
        <ele>463.1961</ele>
        <time>2012-10-05T13:18:13Z</time>
      </trkpt>
      <trkpt lat="45.59452" lon="3.18467">
        <ele>464.19315</ele>
        <time>2012-10-05T13:18:19Z</time>
      </trkpt>
      <trkpt lat="45.59464" lon="3.18486">
        <ele>462.9491</ele>
        <time>2012-10-05T13:18:24Z</time>
      </trkpt>
      <trkpt lat="45.59455" lon="3.18462">
        <ele>460.30917</ele>
        <time>2012-10-05T13:18:51Z</time>
      </trkpt>
      <trkpt lat="45.59438" lon="3.18449">
        <ele>461.34732</ele>
        <time>2012-10-05T13:18:56Z</time>
      </trkpt>
      <trkpt lat="45.59419" lon="3.1844">
        <ele>461.3143</ele>
        <time>2012-10-05T13:19:01Z</time>
      </trkpt>
      <trkpt lat="45.59401" lon="3.1843">
        <ele>460.82938</ele>
        <time>2012-10-05T13:19:06Z</time>
      </trkpt>
      <trkpt lat="45.59382" lon="3.1842">
        <ele>458.23532</ele>
        <time>2012-10-05T13:19:11Z</time>
      </trkpt>
      <trkpt lat="45.59362" lon="3.18407">
        <ele>457.19016</ele>
        <time>2012-10-05T13:19:16Z</time>
      </trkpt>
      <trkpt lat="45.59345" lon="3.18391">
        <ele>457.14914</ele>
        <time>2012-10-05T13:19:20Z</time>
      </trkpt>
      <trkpt lat="45.59325" lon="3.18375">
        <ele>457.21472</ele>
        <time>2012-10-05T13:19:25Z</time>
      </trkpt>
      <trkpt lat="45.59309" lon="3.18357">
        <ele>456.4797</ele>
        <time>2012-10-05T13:19:29Z</time>
      </trkpt>
      <trkpt lat="45.59292" lon="3.18338">
        <ele>456.70108</ele>
        <time>2012-10-05T13:19:35Z</time>
      </trkpt>
      <trkpt lat="45.59276" lon="3.1832">
        <ele>457.04883</ele>
        <time>2012-10-05T13:19:40Z</time>
      </trkpt>
      <trkpt lat="45.59258" lon="3.18305">
        <ele>456.94736</ele>
        <time>2012-10-05T13:19:45Z</time>
      </trkpt>
      <trkpt lat="45.59238" lon="3.18308">
        <ele>457.49915</ele>
        <time>2012-10-05T13:19:50Z</time>
      </trkpt>
      <trkpt lat="45.59217" lon="3.18316">
        <ele>457.64417</ele>
        <time>2012-10-05T13:19:55Z</time>
      </trkpt>
      <trkpt lat="45.592" lon="3.18327">
        <ele>458.28107</ele>
        <time>2012-10-05T13:19:59Z</time>
      </trkpt>
      <trkpt lat="45.59181" lon="3.18331">
        <ele>458.32437</ele>
        <time>2012-10-05T13:20:03Z</time>
      </trkpt>
      <trkpt lat="45.59162" lon="3.18339">
        <ele>458.34122</ele>
        <time>2012-10-05T13:20:07Z</time>
      </trkpt>
      <trkpt lat="45.59144" lon="3.18348">
        <ele>458.39105</ele>
        <time>2012-10-05T13:20:11Z</time>
      </trkpt>
      <trkpt lat="45.59124" lon="3.1836">
        <ele>458.71225</ele>
        <time>2012-10-05T13:20:16Z</time>
      </trkpt>
      <trkpt lat="45.59104" lon="3.18365">
        <ele>459.2119</ele>
        <time>2012-10-05T13:20:21Z</time>
      </trkpt>
      <trkpt lat="45.59084" lon="3.18372">
        <ele>460.0343</ele>
        <time>2012-10-05T13:20:26Z</time>
      </trkpt>
      <trkpt lat="45.59065" lon="3.1838">
        <ele>459.90808</ele>
        <time>2012-10-05T13:20:31Z</time>
      </trkpt>
      <trkpt lat="45.59047" lon="3.18383">
        <ele>460.05792</ele>
        <time>2012-10-05T13:20:35Z</time>
      </trkpt>
      <trkpt lat="45.59027" lon="3.18389">
        <ele>460.81415</ele>
        <time>2012-10-05T13:20:40Z</time>
      </trkpt>
      <trkpt lat="45.59038" lon="3.1841">
        <ele>461.0107</ele>
        <time>2012-10-05T13:20:47Z</time>
      </trkpt>
      <trkpt lat="45.59056" lon="3.18421">
        <ele>460.25876</ele>
        <time>2012-10-05T13:20:51Z</time>
      </trkpt>
      <trkpt lat="45.59077" lon="3.18436">
        <ele>459.08176</ele>
        <time>2012-10-05T13:20:55Z</time>
      </trkpt>
      <trkpt lat="45.59095" lon="3.18449">
        <ele>458.616</ele>
        <time>2012-10-05T13:20:59Z</time>
      </trkpt>
      <trkpt lat="45.59113" lon="3.18468">
        <ele>458.48154</ele>
        <time>2012-10-05T13:21:03Z</time>
      </trkpt>
      <trkpt lat="45.59126" lon="3.1849">
        <ele>458.6265</ele>
        <time>2012-10-05T13:21:07Z</time>
      </trkpt>
      <trkpt lat="45.59142" lon="3.18515">
        <ele>458.66296</ele>
        <time>2012-10-05T13:21:11Z</time>
      </trkpt>
      <trkpt lat="45.59156" lon="3.18539">
        <ele>459.50378</ele>
        <time>2012-10-05T13:21:15Z</time>
      </trkpt>
      <trkpt lat="45.59168" lon="3.18563">
        <ele>460.11206</ele>
        <time>2012-10-05T13:21:19Z</time>
      </trkpt>
      <trkpt lat="45.59181" lon="3.18584">
        <ele>459.75558</ele>
        <time>2012-10-05T13:21:22Z</time>
      </trkpt>
      <trkpt lat="45.59193" lon="3.1861">
        <ele>459.30695</ele>
        <time>2012-10-05T13:21:26Z</time>
      </trkpt>
      <trkpt lat="45.59206" lon="3.18636">
        <ele>457.28842</ele>
        <time>2012-10-05T13:21:30Z</time>
      </trkpt>
      <trkpt lat="45.59217" lon="3.18657">
        <ele>456.9128</ele>
        <time>2012-10-05T13:21:33Z</time>
      </trkpt>
      <trkpt lat="45.59229" lon="3.1868">
        <ele>456.60123</ele>
        <time>2012-10-05T13:21:36Z</time>
      </trkpt>
      <trkpt lat="45.59239" lon="3.18702">
        <ele>455.09323</ele>
        <time>2012-10-05T13:21:39Z</time>
      </trkpt>
      <trkpt lat="45.59254" lon="3.18728">
        <ele>453.46103</ele>
        <time>2012-10-05T13:21:43Z</time>
      </trkpt>
      <trkpt lat="45.59265" lon="3.18751">
        <ele>452.24344</ele>
        <time>2012-10-05T13:21:46Z</time>
      </trkpt>
      <trkpt lat="45.59279" lon="3.18771">
        <ele>451.54852</ele>
        <time>2012-10-05T13:21:49Z</time>
      </trkpt>
      <trkpt lat="45.59291" lon="3.18793">
        <ele>450.5585</ele>
        <time>2012-10-05T13:21:52Z</time>
      </trkpt>
      <trkpt lat="45.59301" lon="3.18815">
        <ele>450.17206</ele>
        <time>2012-10-05T13:21:55Z</time>
      </trkpt>
      <trkpt lat="45.59313" lon="3.18838">
        <ele>449.87112</ele>
        <time>2012-10-05T13:21:59Z</time>
      </trkpt>
      <trkpt lat="45.59324" lon="3.18863">
        <ele>450.48022</ele>
        <time>2012-10-05T13:22:03Z</time>
      </trkpt>
      <trkpt lat="45.59335" lon="3.18885">
        <ele>450.24286</ele>
        <time>2012-10-05T13:22:07Z</time>
      </trkpt>
      <trkpt lat="45.59347" lon="3.18905">
        <ele>450.90292</ele>
        <time>2012-10-05T13:22:11Z</time>
      </trkpt>
      <trkpt lat="45.59362" lon="3.18929">
        <ele>451.93375</ele>
        <time>2012-10-05T13:22:16Z</time>
      </trkpt>
      <trkpt lat="45.59373" lon="3.1895">
        <ele>452.64993</ele>
        <time>2012-10-05T13:22:21Z</time>
      </trkpt>
      <trkpt lat="45.59386" lon="3.18976">
        <ele>454.4027</ele>
        <time>2012-10-05T13:22:27Z</time>
      </trkpt>
      <trkpt lat="45.59399" lon="3.18999">
        <ele>454.06522</ele>
        <time>2012-10-05T13:22:32Z</time>
      </trkpt>
      <trkpt lat="45.59412" lon="3.19022">
        <ele>453.2454</ele>
        <time>2012-10-05T13:22:37Z</time>
      </trkpt>
      <trkpt lat="45.59423" lon="3.19047">
        <ele>452.76694</ele>
        <time>2012-10-05T13:22:42Z</time>
      </trkpt>
      <trkpt lat="45.59435" lon="3.19069">
        <ele>452.50272</ele>
        <time>2012-10-05T13:22:46Z</time>
      </trkpt>
      <trkpt lat="45.59446" lon="3.1909">
        <ele>452.6738</ele>
        <time>2012-10-05T13:22:50Z</time>
      </trkpt>
      <trkpt lat="45.59458" lon="3.19114">
        <ele>453.07755</ele>
        <time>2012-10-05T13:22:54Z</time>
      </trkpt>
      <trkpt lat="45.5947" lon="3.19137">
        <ele>453.20062</ele>
        <time>2012-10-05T13:22:58Z</time>
      </trkpt>
      <trkpt lat="45.59483" lon="3.19159">
        <ele>453.51376</ele>
        <time>2012-10-05T13:23:02Z</time>
      </trkpt>
      <trkpt lat="45.59497" lon="3.19182">
        <ele>453.4156</ele>
        <time>2012-10-05T13:23:06Z</time>
      </trkpt>
      <trkpt lat="45.59511" lon="3.19207">
        <ele>453.2892</ele>
        <time>2012-10-05T13:23:10Z</time>
      </trkpt>
      <trkpt lat="45.59526" lon="3.19228">
        <ele>453.00546</ele>
        <time>2012-10-05T13:23:14Z</time>
      </trkpt>
      <trkpt lat="45.5954" lon="3.1925">
        <ele>452.62155</ele>
        <time>2012-10-05T13:23:18Z</time>
      </trkpt>
      <trkpt lat="45.59553" lon="3.19272">
        <ele>452.36063</ele>
        <time>2012-10-05T13:23:22Z</time>
      </trkpt>
      <trkpt lat="45.59567" lon="3.19295">
        <ele>452.98276</ele>
        <time>2012-10-05T13:23:26Z</time>
      </trkpt>
      <trkpt lat="45.59579" lon="3.19315">
        <ele>453.29248</ele>
        <time>2012-10-05T13:23:29Z</time>
      </trkpt>
      <trkpt lat="45.59593" lon="3.19336">
        <ele>453.11667</ele>
        <time>2012-10-05T13:23:34Z</time>
      </trkpt>
      <trkpt lat="45.59608" lon="3.19359">
        <ele>451.7591</ele>
        <time>2012-10-05T13:23:38Z</time>
      </trkpt>
      <trkpt lat="45.59622" lon="3.19383">
        <ele>450.2854</ele>
        <time>2012-10-05T13:23:42Z</time>
      </trkpt>
      <trkpt lat="45.59638" lon="3.19405">
        <ele>449.69684</ele>
        <time>2012-10-05T13:23:46Z</time>
      </trkpt>
      <trkpt lat="45.59653" lon="3.19428">
        <ele>449.73407</ele>
        <time>2012-10-05T13:23:50Z</time>
      </trkpt>
      <trkpt lat="45.59669" lon="3.19453">
        <ele>448.97827</ele>
        <time>2012-10-05T13:23:54Z</time>
      </trkpt>
      <trkpt lat="45.59681" lon="3.19472">
        <ele>448.0382</ele>
        <time>2012-10-05T13:23:57Z</time>
      </trkpt>
      <trkpt lat="45.59698" lon="3.19497">
        <ele>447.3034</ele>
        <time>2012-10-05T13:24:00Z</time>
      </trkpt>
      <trkpt lat="45.59716" lon="3.1952">
        <ele>446.3506</ele>
        <time>2012-10-05T13:24:05Z</time>
      </trkpt>
      <trkpt lat="45.59731" lon="3.19543">
        <ele>445.56592</ele>
        <time>2012-10-05T13:24:09Z</time>
      </trkpt>
      <trkpt lat="45.59746" lon="3.19567">
        <ele>445.66257</ele>
        <time>2012-10-05T13:24:13Z</time>
      </trkpt>
      <trkpt lat="45.59759" lon="3.19589">
        <ele>445.7158</ele>
        <time>2012-10-05T13:24:16Z</time>
      </trkpt>
      <trkpt lat="45.59772" lon="3.19611">
        <ele>445.4248</ele>
        <time>2012-10-05T13:24:21Z</time>
      </trkpt>
      <trkpt lat="45.59784" lon="3.19632">
        <ele>444.73285</ele>
        <time>2012-10-05T13:24:24Z</time>
      </trkpt>
      <trkpt lat="45.59797" lon="3.19651">
        <ele>442.7878</ele>
        <time>2012-10-05T13:24:27Z</time>
      </trkpt>
      <trkpt lat="45.59808" lon="3.19672">
        <ele>440.45474</ele>
        <time>2012-10-05T13:24:30Z</time>
      </trkpt>
      <trkpt lat="45.59822" lon="3.19695">
        <ele>438.87048</ele>
        <time>2012-10-05T13:24:33Z</time>
      </trkpt>
      <trkpt lat="45.59833" lon="3.19721">
        <ele>436.83493</ele>
        <time>2012-10-05T13:24:36Z</time>
      </trkpt>
      <trkpt lat="45.59848" lon="3.19744">
        <ele>435.34183</ele>
        <time>2012-10-05T13:24:39Z</time>
      </trkpt>
      <trkpt lat="45.5986" lon="3.19771">
        <ele>434.68066</ele>
        <time>2012-10-05T13:24:42Z</time>
      </trkpt>
      <trkpt lat="45.59872" lon="3.19797">
        <ele>431.99887</ele>
        <time>2012-10-05T13:24:46Z</time>
      </trkpt>
      <trkpt lat="45.59882" lon="3.19822">
        <ele>427.7285</ele>
        <time>2012-10-05T13:24:51Z</time>
      </trkpt>
      <trkpt lat="45.59895" lon="3.19845">
        <ele>424.1546</ele>
        <time>2012-10-05T13:24:58Z</time>
      </trkpt>
      <trkpt lat="45.5992" lon="3.19848">
        <ele>421.50977</ele>
        <time>2012-10-05T13:25:02Z</time>
      </trkpt>
      <trkpt lat="45.59945" lon="3.1985">
        <ele>418.68118</ele>
        <time>2012-10-05T13:25:05Z</time>
      </trkpt>
      <trkpt lat="45.59972" lon="3.19856">
        <ele>416.71445</ele>
        <time>2012-10-05T13:25:08Z</time>
      </trkpt>
      <trkpt lat="45.59991" lon="3.1986">
        <ele>415.13705</ele>
        <time>2012-10-05T13:25:10Z</time>
      </trkpt>
      <trkpt lat="45.60012" lon="3.19864">
        <ele>413.7498</ele>
        <time>2012-10-05T13:25:12Z</time>
      </trkpt>
      <trkpt lat="45.60032" lon="3.19867">
        <ele>412.78195</ele>
        <time>2012-10-05T13:25:14Z</time>
      </trkpt>
      <trkpt lat="45.6005" lon="3.19871">
        <ele>411.81253</ele>
        <time>2012-10-05T13:25:16Z</time>
      </trkpt>
      <trkpt lat="45.60069" lon="3.19877">
        <ele>410.93597</ele>
        <time>2012-10-05T13:25:18Z</time>
      </trkpt>
      <trkpt lat="45.60087" lon="3.19882">
        <ele>410.4492</ele>
        <time>2012-10-05T13:25:20Z</time>
      </trkpt>
      <trkpt lat="45.60105" lon="3.1989">
        <ele>410.3566</ele>
        <time>2012-10-05T13:25:22Z</time>
      </trkpt>
      <trkpt lat="45.60122" lon="3.19898">
        <ele>410.2795</ele>
        <time>2012-10-05T13:25:24Z</time>
      </trkpt>
      <trkpt lat="45.60146" lon="3.19906">
        <ele>410.47937</ele>
        <time>2012-10-05T13:25:27Z</time>
      </trkpt>
      <trkpt lat="45.60166" lon="3.19911">
        <ele>410.43243</ele>
        <time>2012-10-05T13:25:30Z</time>
      </trkpt>
      <trkpt lat="45.60184" lon="3.1991">
        <ele>409.96265</ele>
        <time>2012-10-05T13:25:33Z</time>
      </trkpt>
      <trkpt lat="45.60202" lon="3.19914">
        <ele>408.99255</ele>
        <time>2012-10-05T13:25:36Z</time>
      </trkpt>
      <trkpt lat="45.60221" lon="3.19921">
        <ele>407.7124</ele>
        <time>2012-10-05T13:25:40Z</time>
      </trkpt>
      <trkpt lat="45.60241" lon="3.19931">
        <ele>406.25266</ele>
        <time>2012-10-05T13:25:44Z</time>
      </trkpt>
      <trkpt lat="45.60226" lon="3.19915">
        <ele>403.46143</ele>
        <time>2012-10-05T13:26:50Z</time>
      </trkpt>
      <trkpt lat="45.60209" lon="3.19907">
        <ele>403.23428</ele>
        <time>2012-10-05T13:26:56Z</time>
      </trkpt>
      <trkpt lat="45.60188" lon="3.19903">
        <ele>399.80682</ele>
        <time>2012-10-05T13:27:02Z</time>
      </trkpt>
      <trkpt lat="45.60168" lon="3.19904">
        <ele>399.31155</ele>
        <time>2012-10-05T13:27:08Z</time>
      </trkpt>
      <trkpt lat="45.60147" lon="3.19899">
        <ele>401.48163</ele>
        <time>2012-10-05T13:27:15Z</time>
      </trkpt>
      <trkpt lat="45.60129" lon="3.19892">
        <ele>402.5224</ele>
        <time>2012-10-05T13:27:21Z</time>
      </trkpt>
      <trkpt lat="45.6011" lon="3.19886">
        <ele>403.27316</ele>
        <time>2012-10-05T13:27:27Z</time>
      </trkpt>
      <trkpt lat="45.60091" lon="3.19877">
        <ele>403.25513</ele>
        <time>2012-10-05T13:27:33Z</time>
      </trkpt>
      <trkpt lat="45.60072" lon="3.19871">
        <ele>403.52057</ele>
        <time>2012-10-05T13:27:39Z</time>
      </trkpt>
      <trkpt lat="45.60054" lon="3.19864">
        <ele>405.2646</ele>
        <time>2012-10-05T13:27:44Z</time>
      </trkpt>
      <trkpt lat="45.60034" lon="3.19862">
        <ele>404.42932</ele>
        <time>2012-10-05T13:27:50Z</time>
      </trkpt>
      <trkpt lat="45.60015" lon="3.19857">
        <ele>402.63165</ele>
        <time>2012-10-05T13:27:56Z</time>
      </trkpt>
      <trkpt lat="45.59994" lon="3.19855">
        <ele>404.064</ele>
        <time>2012-10-05T13:28:03Z</time>
      </trkpt>
      <trkpt lat="45.59976" lon="3.19851">
        <ele>405.83145</ele>
        <time>2012-10-05T13:28:09Z</time>
      </trkpt>
      <trkpt lat="45.59956" lon="3.19846">
        <ele>410.038</ele>
        <time>2012-10-05T13:28:16Z</time>
      </trkpt>
      <trkpt lat="45.59938" lon="3.19849">
        <ele>412.587</ele>
        <time>2012-10-05T13:28:24Z</time>
      </trkpt>
      <trkpt lat="45.59951" lon="3.19872">
        <ele>412.68475</ele>
        <time>2012-10-05T13:28:32Z</time>
      </trkpt>
      <trkpt lat="45.5997" lon="3.19891">
        <ele>412.02554</ele>
        <time>2012-10-05T13:28:36Z</time>
      </trkpt>
      <trkpt lat="45.59988" lon="3.19902">
        <ele>412.29254</ele>
        <time>2012-10-05T13:28:39Z</time>
      </trkpt>
      <trkpt lat="45.60007" lon="3.19919">
        <ele>412.19894</ele>
        <time>2012-10-05T13:28:42Z</time>
      </trkpt>
      <trkpt lat="45.60025" lon="3.19933">
        <ele>411.94382</ele>
        <time>2012-10-05T13:28:45Z</time>
      </trkpt>
      <trkpt lat="45.60039" lon="3.19951">
        <ele>411.87524</ele>
        <time>2012-10-05T13:28:48Z</time>
      </trkpt>
      <trkpt lat="45.60053" lon="3.19969">
        <ele>411.80103</ele>
        <time>2012-10-05T13:28:51Z</time>
      </trkpt>
      <trkpt lat="45.6007" lon="3.19989">
        <ele>412.1846</ele>
        <time>2012-10-05T13:28:55Z</time>
      </trkpt>
      <trkpt lat="45.60086" lon="3.20009">
        <ele>412.28293</ele>
        <time>2012-10-05T13:28:59Z</time>
      </trkpt>
      <trkpt lat="45.60101" lon="3.20024">
        <ele>412.56482</ele>
        <time>2012-10-05T13:29:03Z</time>
      </trkpt>
      <trkpt lat="45.60118" lon="3.20039">
        <ele>412.7954</ele>
        <time>2012-10-05T13:29:07Z</time>
      </trkpt>
      <trkpt lat="45.60132" lon="3.20056">
        <ele>412.08673</ele>
        <time>2012-10-05T13:29:11Z</time>
      </trkpt>
      <trkpt lat="45.60145" lon="3.20075">
        <ele>412.1332</ele>
        <time>2012-10-05T13:29:15Z</time>
      </trkpt>
      <trkpt lat="45.60159" lon="3.20098">
        <ele>412.5936</ele>
        <time>2012-10-05T13:29:19Z</time>
      </trkpt>
      <trkpt lat="45.60172" lon="3.20121">
        <ele>412.89905</ele>
        <time>2012-10-05T13:29:23Z</time>
      </trkpt>
      <trkpt lat="45.60184" lon="3.20147">
        <ele>412.84256</ele>
        <time>2012-10-05T13:29:27Z</time>
      </trkpt>
      <trkpt lat="45.60194" lon="3.20173">
        <ele>412.87354</ele>
        <time>2012-10-05T13:29:31Z</time>
      </trkpt>
      <trkpt lat="45.60206" lon="3.20201">
        <ele>411.49115</ele>
        <time>2012-10-05T13:29:35Z</time>
      </trkpt>
      <trkpt lat="45.60214" lon="3.20225">
        <ele>411.19052</ele>
        <time>2012-10-05T13:29:38Z</time>
      </trkpt>
      <trkpt lat="45.60228" lon="3.2025">
        <ele>411.27426</ele>
        <time>2012-10-05T13:29:42Z</time>
      </trkpt>
      <trkpt lat="45.60246" lon="3.20269">
        <ele>411.70105</ele>
        <time>2012-10-05T13:29:47Z</time>
      </trkpt>
      <trkpt lat="45.60265" lon="3.2028">
        <ele>410.96234</ele>
        <time>2012-10-05T13:29:51Z</time>
      </trkpt>
      <trkpt lat="45.60285" lon="3.20295">
        <ele>410.854</ele>
        <time>2012-10-05T13:29:55Z</time>
      </trkpt>
      <trkpt lat="45.60302" lon="3.20307">
        <ele>411.09204</ele>
        <time>2012-10-05T13:29:58Z</time>
      </trkpt>
      <trkpt lat="45.60321" lon="3.20321">
        <ele>411.1487</ele>
        <time>2012-10-05T13:30:01Z</time>
      </trkpt>
      <trkpt lat="45.60338" lon="3.20339">
        <ele>410.5789</ele>
        <time>2012-10-05T13:30:04Z</time>
      </trkpt>
      <trkpt lat="45.60354" lon="3.20356">
        <ele>409.20566</ele>
        <time>2012-10-05T13:30:07Z</time>
      </trkpt>
      <trkpt lat="45.60371" lon="3.20375">
        <ele>408.3498</ele>
        <time>2012-10-05T13:30:10Z</time>
      </trkpt>
      <trkpt lat="45.60389" lon="3.20402">
        <ele>407.32465</ele>
        <time>2012-10-05T13:30:13Z</time>
      </trkpt>
      <trkpt lat="45.60408" lon="3.2042">
        <ele>406.06155</ele>
        <time>2012-10-05T13:30:15Z</time>
      </trkpt>
      <trkpt lat="45.60427" lon="3.20438">
        <ele>404.90732</ele>
        <time>2012-10-05T13:30:17Z</time>
      </trkpt>
      <trkpt lat="45.60445" lon="3.20454">
        <ele>404.28305</ele>
        <time>2012-10-05T13:30:19Z</time>
      </trkpt>
      <trkpt lat="45.60462" lon="3.20465">
        <ele>403.53815</ele>
        <time>2012-10-05T13:30:21Z</time>
      </trkpt>
      <trkpt lat="45.60476" lon="3.20483">
        <ele>402.60413</ele>
        <time>2012-10-05T13:30:24Z</time>
      </trkpt>
      <trkpt lat="45.60489" lon="3.20503">
        <ele>402.38193</ele>
        <time>2012-10-05T13:30:27Z</time>
      </trkpt>
      <trkpt lat="45.60502" lon="3.20526">
        <ele>402.30072</ele>
        <time>2012-10-05T13:30:30Z</time>
      </trkpt>
      <trkpt lat="45.60515" lon="3.20546">
        <ele>401.01865</ele>
        <time>2012-10-05T13:30:35Z</time>
      </trkpt>
      <trkpt lat="45.60515" lon="3.20574">
        <ele>395.70856</ele>
        <time>2012-10-05T13:30:48Z</time>
      </trkpt>
      <trkpt lat="45.60501" lon="3.20594">
        <ele>397.91214</ele>
        <time>2012-10-05T13:30:57Z</time>
      </trkpt>
      <trkpt lat="45.6049" lon="3.20616">
        <ele>402.02524</ele>
        <time>2012-10-05T13:31:06Z</time>
      </trkpt>
      <trkpt lat="45.60477" lon="3.20637">
        <ele>404.3652</ele>
        <time>2012-10-05T13:31:15Z</time>
      </trkpt>
      <trkpt lat="45.60469" lon="3.20662">
        <ele>403.6216</ele>
        <time>2012-10-05T13:31:23Z</time>
      </trkpt>
      <trkpt lat="45.60459" lon="3.20685">
        <ele>404.16837</ele>
        <time>2012-10-05T13:31:32Z</time>
      </trkpt>
      <trkpt lat="45.6045" lon="3.20708">
        <ele>405.01367</ele>
        <time>2012-10-05T13:31:40Z</time>
      </trkpt>
      <trkpt lat="45.6044" lon="3.20729">
        <ele>407.276</ele>
        <time>2012-10-05T13:31:49Z</time>
      </trkpt>
      <trkpt lat="45.6043" lon="3.20752">
        <ele>408.17276</ele>
        <time>2012-10-05T13:31:57Z</time>
      </trkpt>
      <trkpt lat="45.60419" lon="3.20774">
        <ele>409.0566</ele>
        <time>2012-10-05T13:32:06Z</time>
      </trkpt>
      <trkpt lat="45.60411" lon="3.20797">
        <ele>410.55234</ele>
        <time>2012-10-05T13:32:16Z</time>
      </trkpt>
      <trkpt lat="45.60411" lon="3.20824">
        <ele>410.72223</ele>
        <time>2012-10-05T13:32:27Z</time>
      </trkpt>
      <trkpt lat="45.60416" lon="3.20851">
        <ele>411.96707</ele>
        <time>2012-10-05T13:32:36Z</time>
      </trkpt>
      <trkpt lat="45.60423" lon="3.20876">
        <ele>412.57202</ele>
        <time>2012-10-05T13:32:43Z</time>
      </trkpt>
      <trkpt lat="45.60431" lon="3.20903">
        <ele>412.1609</ele>
        <time>2012-10-05T13:32:50Z</time>
      </trkpt>
      <trkpt lat="45.60437" lon="3.20927">
        <ele>411.59607</ele>
        <time>2012-10-05T13:32:56Z</time>
      </trkpt>
      <trkpt lat="45.60445" lon="3.20954">
        <ele>412.4727</ele>
        <time>2012-10-05T13:33:03Z</time>
      </trkpt>
      <trkpt lat="45.60452" lon="3.2098">
        <ele>413.35187</ele>
        <time>2012-10-05T13:33:10Z</time>
      </trkpt>
      <trkpt lat="45.60458" lon="3.2101">
        <ele>413.58203</ele>
        <time>2012-10-05T13:33:18Z</time>
      </trkpt>
      <trkpt lat="45.6046" lon="3.21036">
        <ele>413.35583</ele>
        <time>2012-10-05T13:33:23Z</time>
      </trkpt>
      <trkpt lat="45.60462" lon="3.21064">
        <ele>413.96512</ele>
        <time>2012-10-05T13:33:29Z</time>
      </trkpt>
      <trkpt lat="45.60465" lon="3.21093">
        <ele>413.49567</ele>
        <time>2012-10-05T13:33:37Z</time>
      </trkpt>
      <trkpt lat="45.60467" lon="3.2112">
        <ele>414.18015</ele>
        <time>2012-10-05T13:33:43Z</time>
      </trkpt>
      <trkpt lat="45.60469" lon="3.21145">
        <ele>413.09525</ele>
        <time>2012-10-05T13:33:49Z</time>
      </trkpt>
      <trkpt lat="45.60471" lon="3.21173">
        <ele>412.86902</ele>
        <time>2012-10-05T13:33:55Z</time>
      </trkpt>
      <trkpt lat="45.60477" lon="3.21199">
        <ele>413.49332</ele>
        <time>2012-10-05T13:34:02Z</time>
      </trkpt>
      <trkpt lat="45.60489" lon="3.21223">
        <ele>414.2788</ele>
        <time>2012-10-05T13:34:08Z</time>
      </trkpt>
      <trkpt lat="45.60501" lon="3.21245">
        <ele>414.8987</ele>
        <time>2012-10-05T13:34:13Z</time>
      </trkpt>
      <trkpt lat="45.60513" lon="3.2127">
        <ele>414.61935</ele>
        <time>2012-10-05T13:34:17Z</time>
      </trkpt>
      <trkpt lat="45.60525" lon="3.21293">
        <ele>414.17047</ele>
        <time>2012-10-05T13:34:22Z</time>
      </trkpt>
      <trkpt lat="45.60538" lon="3.21317">
        <ele>412.98157</ele>
        <time>2012-10-05T13:34:26Z</time>
      </trkpt>
      <trkpt lat="45.60551" lon="3.21341">
        <ele>412.5304</ele>
        <time>2012-10-05T13:34:30Z</time>
      </trkpt>
      <trkpt lat="45.60563" lon="3.21365">
        <ele>412.52554</ele>
        <time>2012-10-05T13:34:34Z</time>
      </trkpt>
      <trkpt lat="45.60578" lon="3.21392">
        <ele>411.665</ele>
        <time>2012-10-05T13:34:38Z</time>
      </trkpt>
      <trkpt lat="45.60591" lon="3.21415">
        <ele>411.66852</ele>
        <time>2012-10-05T13:34:42Z</time>
      </trkpt>
      <trkpt lat="45.60601" lon="3.21437">
        <ele>412.25037</ele>
        <time>2012-10-05T13:34:46Z</time>
      </trkpt>
      <trkpt lat="45.60588" lon="3.21455">
        <ele>412.00607</ele>
        <time>2012-10-05T13:34:53Z</time>
      </trkpt>
      <trkpt lat="45.60571" lon="3.21471">
        <ele>411.94498</ele>
        <time>2012-10-05T13:34:59Z</time>
      </trkpt>
      <trkpt lat="45.60554" lon="3.21485">
        <ele>412.46634</ele>
        <time>2012-10-05T13:35:05Z</time>
      </trkpt>
      <trkpt lat="45.60537" lon="3.21501">
        <ele>413.06284</ele>
        <time>2012-10-05T13:35:11Z</time>
      </trkpt>
      <trkpt lat="45.60521" lon="3.21517">
        <ele>413.9701</ele>
        <time>2012-10-05T13:35:17Z</time>
      </trkpt>
      <trkpt lat="45.60505" lon="3.21533">
        <ele>414.6708</ele>
        <time>2012-10-05T13:35:23Z</time>
      </trkpt>
      <trkpt lat="45.6049" lon="3.21549">
        <ele>414.56607</ele>
        <time>2012-10-05T13:35:29Z</time>
      </trkpt>
      <trkpt lat="45.60474" lon="3.21563">
        <ele>415.96198</ele>
        <time>2012-10-05T13:35:35Z</time>
      </trkpt>
      <trkpt lat="45.60458" lon="3.21578">
        <ele>416.42102</ele>
        <time>2012-10-05T13:35:41Z</time>
      </trkpt>
      <trkpt lat="45.60441" lon="3.21564">
        <ele>417.2537</ele>
        <time>2012-10-05T13:35:48Z</time>
      </trkpt>
      <trkpt lat="45.60425" lon="3.21545">
        <ele>417.23264</ele>
        <time>2012-10-05T13:35:55Z</time>
      </trkpt>
      <trkpt lat="45.60409" lon="3.21528">
        <ele>418.67596</ele>
        <time>2012-10-05T13:36:03Z</time>
      </trkpt>
      <trkpt lat="45.60393" lon="3.21514">
        <ele>421.2358</ele>
        <time>2012-10-05T13:36:13Z</time>
      </trkpt>
      <trkpt lat="45.60374" lon="3.21509">
        <ele>422.76782</ele>
        <time>2012-10-05T13:36:23Z</time>
      </trkpt>
      <trkpt lat="45.60355" lon="3.21507">
        <ele>423.4876</ele>
        <time>2012-10-05T13:36:35Z</time>
      </trkpt>
      <trkpt lat="45.60336" lon="3.21506">
        <ele>428.34756</ele>
        <time>2012-10-05T13:36:47Z</time>
      </trkpt>
      <trkpt lat="45.60318" lon="3.2151">
        <ele>432.0277</ele>
        <time>2012-10-05T13:37:00Z</time>
      </trkpt>
      <trkpt lat="45.60299" lon="3.2151">
        <ele>436.56665</ele>
        <time>2012-10-05T13:37:15Z</time>
      </trkpt>
      <trkpt lat="45.60282" lon="3.215">
        <ele>437.88715</ele>
        <time>2012-10-05T13:37:31Z</time>
      </trkpt>
      <trkpt lat="45.60282" lon="3.21473">
        <ele>438.34448</ele>
        <time>2012-10-05T13:37:43Z</time>
      </trkpt>
      <trkpt lat="45.60289" lon="3.21449">
        <ele>439.93854</ele>
        <time>2012-10-05T13:37:54Z</time>
      </trkpt>
      <trkpt lat="45.60291" lon="3.21422">
        <ele>441.00082</ele>
        <time>2012-10-05T13:38:05Z</time>
      </trkpt>
      <trkpt lat="45.60288" lon="3.21396">
        <ele>443.16034</ele>
        <time>2012-10-05T13:38:15Z</time>
      </trkpt>
      <trkpt lat="45.60284" lon="3.21371">
        <ele>445.89563</ele>
        <time>2012-10-05T13:38:25Z</time>
      </trkpt>
      <trkpt lat="45.60267" lon="3.21362">
        <ele>449.4427</ele>
        <time>2012-10-05T13:38:37Z</time>
      </trkpt>
      <trkpt lat="45.60249" lon="3.21356">
        <ele>453.42255</ele>
        <time>2012-10-05T13:38:49Z</time>
      </trkpt>
      <trkpt lat="45.60234" lon="3.21336">
        <ele>456.19885</ele>
        <time>2012-10-05T13:39:00Z</time>
      </trkpt>
      <trkpt lat="45.60217" lon="3.21323">
        <ele>459.74313</ele>
        <time>2012-10-05T13:39:13Z</time>
      </trkpt>
      <trkpt lat="45.60199" lon="3.21318">
        <ele>462.87512</ele>
        <time>2012-10-05T13:39:25Z</time>
      </trkpt>
      <trkpt lat="45.6018" lon="3.21317">
        <ele>464.17184</ele>
        <time>2012-10-05T13:39:37Z</time>
      </trkpt>
      <trkpt lat="45.60162" lon="3.2132">
        <ele>467.97537</ele>
        <time>2012-10-05T13:39:47Z</time>
      </trkpt>
      <trkpt lat="45.60142" lon="3.21323">
        <ele>469.75388</ele>
        <time>2012-10-05T13:39:57Z</time>
      </trkpt>
      <trkpt lat="45.60123" lon="3.21327">
        <ele>471.49097</ele>
        <time>2012-10-05T13:40:06Z</time>
      </trkpt>
      <trkpt lat="45.60104" lon="3.21332">
        <ele>472.77994</ele>
        <time>2012-10-05T13:40:16Z</time>
      </trkpt>
      <trkpt lat="45.60084" lon="3.21332">
        <ele>474.25702</ele>
        <time>2012-10-05T13:40:23Z</time>
      </trkpt>
      <trkpt lat="45.60065" lon="3.21334">
        <ele>475.94757</ele>
        <time>2012-10-05T13:40:30Z</time>
      </trkpt>
      <trkpt lat="45.60047" lon="3.21334">
        <ele>475.70438</ele>
        <time>2012-10-05T13:40:36Z</time>
      </trkpt>
      <trkpt lat="45.60027" lon="3.21338">
        <ele>475.27863</ele>
        <time>2012-10-05T13:40:43Z</time>
      </trkpt>
      <trkpt lat="45.60009" lon="3.21345">
        <ele>474.55246</ele>
        <time>2012-10-05T13:40:49Z</time>
      </trkpt>
      <trkpt lat="45.59989" lon="3.21349">
        <ele>472.69308</ele>
        <time>2012-10-05T13:40:55Z</time>
      </trkpt>
      <trkpt lat="45.5997" lon="3.21347">
        <ele>471.84985</ele>
        <time>2012-10-05T13:41:00Z</time>
      </trkpt>
      <trkpt lat="45.59951" lon="3.21344">
        <ele>471.88834</ele>
        <time>2012-10-05T13:41:04Z</time>
      </trkpt>
      <trkpt lat="45.59931" lon="3.21345">
        <ele>472.68018</ele>
        <time>2012-10-05T13:41:08Z</time>
      </trkpt>
      <trkpt lat="45.59911" lon="3.21344">
        <ele>472.96082</ele>
        <time>2012-10-05T13:41:12Z</time>
      </trkpt>
      <trkpt lat="45.59893" lon="3.21342">
        <ele>471.57687</ele>
        <time>2012-10-05T13:41:17Z</time>
      </trkpt>
      <trkpt lat="45.59873" lon="3.21338">
        <ele>470.4073</ele>
        <time>2012-10-05T13:41:23Z</time>
      </trkpt>
      <trkpt lat="45.59855" lon="3.21335">
        <ele>469.43423</ele>
        <time>2012-10-05T13:41:27Z</time>
      </trkpt>
      <trkpt lat="45.59836" lon="3.21325">
        <ele>467.48148</ele>
        <time>2012-10-05T13:41:32Z</time>
      </trkpt>
      <trkpt lat="45.59819" lon="3.21311">
        <ele>464.92697</ele>
        <time>2012-10-05T13:41:37Z</time>
      </trkpt>
      <trkpt lat="45.59798" lon="3.21298">
        <ele>463.57538</ele>
        <time>2012-10-05T13:41:42Z</time>
      </trkpt>
      <trkpt lat="45.59778" lon="3.21293">
        <ele>461.6667</ele>
        <time>2012-10-05T13:41:45Z</time>
      </trkpt>
      <trkpt lat="45.59758" lon="3.2129">
        <ele>460.18958</ele>
        <time>2012-10-05T13:41:48Z</time>
      </trkpt>
      <trkpt lat="45.59738" lon="3.21295">
        <ele>458.62042</ele>
        <time>2012-10-05T13:41:52Z</time>
      </trkpt>
      <trkpt lat="45.59718" lon="3.21293">
        <ele>456.55322</ele>
        <time>2012-10-05T13:41:56Z</time>
      </trkpt>
      <trkpt lat="45.59699" lon="3.21278">
        <ele>456.97525</ele>
        <time>2012-10-05T13:42:01Z</time>
      </trkpt>
      <trkpt lat="45.59685" lon="3.21261">
        <ele>456.62326</ele>
        <time>2012-10-05T13:42:06Z</time>
      </trkpt>
      <trkpt lat="45.59666" lon="3.21248">
        <ele>456.76276</ele>
        <time>2012-10-05T13:42:11Z</time>
      </trkpt>
      <trkpt lat="45.59644" lon="3.21234">
        <ele>457.01663</ele>
        <time>2012-10-05T13:42:15Z</time>
      </trkpt>
      <trkpt lat="45.59623" lon="3.21226">
        <ele>458.03094</ele>
        <time>2012-10-05T13:42:18Z</time>
      </trkpt>
      <trkpt lat="45.59604" lon="3.21224">
        <ele>458.02133</ele>
        <time>2012-10-05T13:42:24Z</time>
      </trkpt>
      <trkpt lat="45.59586" lon="3.21207">
        <ele>459.28387</ele>
        <time>2012-10-05T13:42:30Z</time>
      </trkpt>
      <trkpt lat="45.5957" lon="3.21192">
        <ele>462.89667</ele>
        <time>2012-10-05T13:42:36Z</time>
      </trkpt>
      <trkpt lat="45.59553" lon="3.21178">
        <ele>466.95993</ele>
        <time>2012-10-05T13:42:43Z</time>
      </trkpt>
      <trkpt lat="45.59537" lon="3.21164">
        <ele>469.17645</ele>
        <time>2012-10-05T13:42:49Z</time>
      </trkpt>
      <trkpt lat="45.59519" lon="3.21152">
        <ele>471.3052</ele>
        <time>2012-10-05T13:42:57Z</time>
      </trkpt>
      <trkpt lat="45.59502" lon="3.21138">
        <ele>472.87488</ele>
        <time>2012-10-05T13:43:04Z</time>
      </trkpt>
      <trkpt lat="45.59484" lon="3.21127">
        <ele>475.25244</ele>
        <time>2012-10-05T13:43:11Z</time>
      </trkpt>
      <trkpt lat="45.59466" lon="3.21113">
        <ele>477.22397</ele>
        <time>2012-10-05T13:43:18Z</time>
      </trkpt>
      <trkpt lat="45.59448" lon="3.211">
        <ele>478.8687</ele>
        <time>2012-10-05T13:43:25Z</time>
      </trkpt>
      <trkpt lat="45.59431" lon="3.2109">
        <ele>479.89526</ele>
        <time>2012-10-05T13:43:32Z</time>
      </trkpt>
      <trkpt lat="45.59412" lon="3.2108">
        <ele>480.83044</ele>
        <time>2012-10-05T13:43:42Z</time>
      </trkpt>
      <trkpt lat="45.59394" lon="3.21077">
        <ele>480.47745</ele>
        <time>2012-10-05T13:43:47Z</time>
      </trkpt>
      <trkpt lat="45.5938" lon="3.21056">
        <ele>479.45532</ele>
        <time>2012-10-05T13:43:52Z</time>
      </trkpt>
      <trkpt lat="45.59373" lon="3.21026">
        <ele>477.59552</ele>
        <time>2012-10-05T13:43:56Z</time>
      </trkpt>
      <trkpt lat="45.59362" lon="3.21003">
        <ele>475.81113</ele>
        <time>2012-10-05T13:43:59Z</time>
      </trkpt>
      <trkpt lat="45.59349" lon="3.20977">
        <ele>474.36304</ele>
        <time>2012-10-05T13:44:02Z</time>
      </trkpt>
      <trkpt lat="45.59335" lon="3.20944">
        <ele>472.44742</ele>
        <time>2012-10-05T13:44:05Z</time>
      </trkpt>
      <trkpt lat="45.59324" lon="3.20921">
        <ele>470.97437</ele>
        <time>2012-10-05T13:44:07Z</time>
      </trkpt>
      <trkpt lat="45.59312" lon="3.209">
        <ele>469.0145</ele>
        <time>2012-10-05T13:44:09Z</time>
      </trkpt>
      <trkpt lat="45.59299" lon="3.20877">
        <ele>467.4121</ele>
        <time>2012-10-05T13:44:11Z</time>
      </trkpt>
      <trkpt lat="45.59285" lon="3.20855">
        <ele>466.02948</ele>
        <time>2012-10-05T13:44:13Z</time>
      </trkpt>
      <trkpt lat="45.59272" lon="3.20831">
        <ele>464.51428</ele>
        <time>2012-10-05T13:44:15Z</time>
      </trkpt>
      <trkpt lat="45.5926" lon="3.20805">
        <ele>462.77444</ele>
        <time>2012-10-05T13:44:17Z</time>
      </trkpt>
      <trkpt lat="45.59248" lon="3.20782">
        <ele>461.27707</ele>
        <time>2012-10-05T13:44:19Z</time>
      </trkpt>
      <trkpt lat="45.59235" lon="3.2076">
        <ele>460.15353</ele>
        <time>2012-10-05T13:44:21Z</time>
      </trkpt>
      <trkpt lat="45.59222" lon="3.20736">
        <ele>459.10904</ele>
        <time>2012-10-05T13:44:23Z</time>
      </trkpt>
      <trkpt lat="45.59211" lon="3.2071">
        <ele>458.40903</ele>
        <time>2012-10-05T13:44:25Z</time>
      </trkpt>
      <trkpt lat="45.59203" lon="3.20685">
        <ele>457.86526</ele>
        <time>2012-10-05T13:44:27Z</time>
      </trkpt>
      <trkpt lat="45.59197" lon="3.2066">
        <ele>457.02814</ele>
        <time>2012-10-05T13:44:29Z</time>
      </trkpt>
      <trkpt lat="45.59187" lon="3.20627">
        <ele>454.8655</ele>
        <time>2012-10-05T13:44:32Z</time>
      </trkpt>
      <trkpt lat="45.59177" lon="3.20594">
        <ele>453.6094</ele>
        <time>2012-10-05T13:44:35Z</time>
      </trkpt>
      <trkpt lat="45.59167" lon="3.20561">
        <ele>452.55136</ele>
        <time>2012-10-05T13:44:38Z</time>
      </trkpt>
      <trkpt lat="45.59156" lon="3.20531">
        <ele>451.92532</ele>
        <time>2012-10-05T13:44:41Z</time>
      </trkpt>
      <trkpt lat="45.59147" lon="3.20503">
        <ele>451.80026</ele>
        <time>2012-10-05T13:44:44Z</time>
      </trkpt>
      <trkpt lat="45.59134" lon="3.20481">
        <ele>452.03143</ele>
        <time>2012-10-05T13:44:49Z</time>
      </trkpt>
      <trkpt lat="45.59114" lon="3.2048">
        <ele>451.6551</ele>
        <time>2012-10-05T13:44:56Z</time>
      </trkpt>
      <trkpt lat="45.59095" lon="3.20483">
        <ele>450.46768</ele>
        <time>2012-10-05T13:45:01Z</time>
      </trkpt>
      <trkpt lat="45.59072" lon="3.20484">
        <ele>450.01553</ele>
        <time>2012-10-05T13:45:07Z</time>
      </trkpt>
      <trkpt lat="45.59054" lon="3.20487">
        <ele>451.8963</ele>
        <time>2012-10-05T13:45:12Z</time>
      </trkpt>
      <trkpt lat="45.59033" lon="3.20488">
        <ele>453.737</ele>
        <time>2012-10-05T13:45:18Z</time>
      </trkpt>
      <trkpt lat="45.59013" lon="3.2049">
        <ele>452.76828</ele>
        <time>2012-10-05T13:45:23Z</time>
      </trkpt>
      <trkpt lat="45.58995" lon="3.20486">
        <ele>452.17892</ele>
        <time>2012-10-05T13:45:27Z</time>
      </trkpt>
      <trkpt lat="45.58976" lon="3.2048">
        <ele>451.27097</ele>
        <time>2012-10-05T13:45:31Z</time>
      </trkpt>
      <trkpt lat="45.58957" lon="3.20474">
        <ele>450.9669</ele>
        <time>2012-10-05T13:45:35Z</time>
      </trkpt>
      <trkpt lat="45.58936" lon="3.20468">
        <ele>451.48474</ele>
        <time>2012-10-05T13:45:39Z</time>
      </trkpt>
      <trkpt lat="45.58916" lon="3.20461">
        <ele>451.39313</ele>
        <time>2012-10-05T13:45:43Z</time>
      </trkpt>
      <trkpt lat="45.58898" lon="3.20452">
        <ele>450.82104</ele>
        <time>2012-10-05T13:45:46Z</time>
      </trkpt>
      <trkpt lat="45.58879" lon="3.20444">
        <ele>450.4344</ele>
        <time>2012-10-05T13:45:49Z</time>
      </trkpt>
      <trkpt lat="45.58855" lon="3.20435">
        <ele>449.5369</ele>
        <time>2012-10-05T13:45:52Z</time>
      </trkpt>
      <trkpt lat="45.58832" lon="3.2043">
        <ele>448.70358</ele>
        <time>2012-10-05T13:45:55Z</time>
      </trkpt>
      <trkpt lat="45.58807" lon="3.20433">
        <ele>447.63797</ele>
        <time>2012-10-05T13:45:58Z</time>
      </trkpt>
      <trkpt lat="45.58788" lon="3.20451">
        <ele>446.95404</ele>
        <time>2012-10-05T13:46:01Z</time>
      </trkpt>
      <trkpt lat="45.58774" lon="3.20471">
        <ele>446.31232</ele>
        <time>2012-10-05T13:46:05Z</time>
      </trkpt>
      <trkpt lat="45.5876" lon="3.20491">
        <ele>446.90265</ele>
        <time>2012-10-05T13:46:10Z</time>
      </trkpt>
      <trkpt lat="45.58745" lon="3.20513">
        <ele>447.37888</ele>
        <time>2012-10-05T13:46:16Z</time>
      </trkpt>
      <trkpt lat="45.58732" lon="3.20532">
        <ele>447.15305</ele>
        <time>2012-10-05T13:46:22Z</time>
      </trkpt>
      <trkpt lat="45.58721" lon="3.20553">
        <ele>449.55908</ele>
        <time>2012-10-05T13:46:28Z</time>
      </trkpt>
      <trkpt lat="45.58709" lon="3.20574">
        <ele>452.56543</ele>
        <time>2012-10-05T13:46:35Z</time>
      </trkpt>
      <trkpt lat="45.58701" lon="3.20598">
        <ele>455.1311</ele>
        <time>2012-10-05T13:46:42Z</time>
      </trkpt>
      <trkpt lat="45.58695" lon="3.20624">
        <ele>454.8975</ele>
        <time>2012-10-05T13:47:50Z</time>
      </trkpt>
      <trkpt lat="45.58688" lon="3.20649">
        <ele>456.802</ele>
        <time>2012-10-05T13:47:56Z</time>
      </trkpt>
      <trkpt lat="45.58678" lon="3.20676">
        <ele>457.5792</ele>
        <time>2012-10-05T13:48:02Z</time>
      </trkpt>
      <trkpt lat="45.58669" lon="3.207">
        <ele>457.04422</ele>
        <time>2012-10-05T13:48:07Z</time>
      </trkpt>
      <trkpt lat="45.58662" lon="3.20726">
        <ele>456.70905</ele>
        <time>2012-10-05T13:48:12Z</time>
      </trkpt>
      <trkpt lat="45.58655" lon="3.20755">
        <ele>456.42825</ele>
        <time>2012-10-05T13:48:17Z</time>
      </trkpt>
      <trkpt lat="45.58649" lon="3.20782">
        <ele>456.3868</ele>
        <time>2012-10-05T13:48:22Z</time>
      </trkpt>
      <trkpt lat="45.58642" lon="3.20808">
        <ele>458.07764</ele>
        <time>2012-10-05T13:48:28Z</time>
      </trkpt>
      <trkpt lat="45.58634" lon="3.20833">
        <ele>458.4023</ele>
        <time>2012-10-05T13:48:35Z</time>
      </trkpt>
      <trkpt lat="45.58626" lon="3.20857">
        <ele>458.75223</ele>
        <time>2012-10-05T13:48:41Z</time>
      </trkpt>
      <trkpt lat="45.58617" lon="3.20882">
        <ele>460.97528</ele>
        <time>2012-10-05T13:48:48Z</time>
      </trkpt>
      <trkpt lat="45.58607" lon="3.20905">
        <ele>462.44864</ele>
        <time>2012-10-05T13:48:55Z</time>
      </trkpt>
      <trkpt lat="45.58595" lon="3.20924">
        <ele>464.61545</ele>
        <time>2012-10-05T13:49:02Z</time>
      </trkpt>
      <trkpt lat="45.58586" lon="3.20946">
        <ele>465.68555</ele>
        <time>2012-10-05T13:49:09Z</time>
      </trkpt>
      <trkpt lat="45.58576" lon="3.20969">
        <ele>466.75443</ele>
        <time>2012-10-05T13:49:17Z</time>
      </trkpt>
      <trkpt lat="45.58566" lon="3.20992">
        <ele>469.03122</ele>
        <time>2012-10-05T13:49:27Z</time>
      </trkpt>
      <trkpt lat="45.58556" lon="3.21014">
        <ele>469.34872</ele>
        <time>2012-10-05T13:49:35Z</time>
      </trkpt>
      <trkpt lat="45.58545" lon="3.21037">
        <ele>471.11368</ele>
        <time>2012-10-05T13:49:44Z</time>
      </trkpt>
      <trkpt lat="45.58538" lon="3.21061">
        <ele>474.55154</ele>
        <time>2012-10-05T13:49:52Z</time>
      </trkpt>
      <trkpt lat="45.5853" lon="3.21085">
        <ele>474.53238</ele>
        <time>2012-10-05T13:49:59Z</time>
      </trkpt>
      <trkpt lat="45.58521" lon="3.2111">
        <ele>475.66687</ele>
        <time>2012-10-05T13:50:07Z</time>
      </trkpt>
      <trkpt lat="45.58511" lon="3.21133">
        <ele>476.24545</ele>
        <time>2012-10-05T13:50:14Z</time>
      </trkpt>
      <trkpt lat="45.585" lon="3.21155">
        <ele>478.3817</ele>
        <time>2012-10-05T13:50:22Z</time>
      </trkpt>
      <trkpt lat="45.58488" lon="3.21174">
        <ele>480.47144</ele>
        <time>2012-10-05T13:50:29Z</time>
      </trkpt>
      <trkpt lat="45.58475" lon="3.21194">
        <ele>481.75842</ele>
        <time>2012-10-05T13:50:37Z</time>
      </trkpt>
      <trkpt lat="45.58462" lon="3.21213">
        <ele>481.62985</ele>
        <time>2012-10-05T13:50:44Z</time>
      </trkpt>
      <trkpt lat="45.58445" lon="3.2123">
        <ele>480.2369</ele>
        <time>2012-10-05T13:50:51Z</time>
      </trkpt>
      <trkpt lat="45.5843" lon="3.21245">
        <ele>479.32266</ele>
        <time>2012-10-05T13:50:56Z</time>
      </trkpt>
      <trkpt lat="45.58411" lon="3.21258">
        <ele>479.17355</ele>
        <time>2012-10-05T13:51:01Z</time>
      </trkpt>
      <trkpt lat="45.58394" lon="3.21276">
        <ele>479.48715</ele>
        <time>2012-10-05T13:51:07Z</time>
      </trkpt>
      <trkpt lat="45.58378" lon="3.21292">
        <ele>481.8678</ele>
        <time>2012-10-05T13:51:12Z</time>
      </trkpt>
      <trkpt lat="45.58361" lon="3.21306">
        <ele>481.39496</ele>
        <time>2012-10-05T13:51:19Z</time>
      </trkpt>
      <trkpt lat="45.58347" lon="3.21325">
        <ele>481.6358</ele>
        <time>2012-10-05T13:51:26Z</time>
      </trkpt>
      <trkpt lat="45.58333" lon="3.21344">
        <ele>482.09094</ele>
        <time>2012-10-05T13:51:33Z</time>
      </trkpt>
      <trkpt lat="45.58323" lon="3.21366">
        <ele>486.09195</ele>
        <time>2012-10-05T13:51:42Z</time>
      </trkpt>
      <trkpt lat="45.58315" lon="3.21393">
        <ele>491.3681</ele>
        <time>2012-10-05T13:51:52Z</time>
      </trkpt>
      <trkpt lat="45.58305" lon="3.21418">
        <ele>494.0251</ele>
        <time>2012-10-05T13:52:02Z</time>
      </trkpt>
      <trkpt lat="45.58291" lon="3.21437">
        <ele>497.5896</ele>
        <time>2012-10-05T13:52:10Z</time>
      </trkpt>
      <trkpt lat="45.58275" lon="3.21452">
        <ele>501.46713</ele>
        <time>2012-10-05T13:52:19Z</time>
      </trkpt>
      <trkpt lat="45.58258" lon="3.21464">
        <ele>502.33014</ele>
        <time>2012-10-05T13:52:30Z</time>
      </trkpt>
      <trkpt lat="45.5824" lon="3.21471">
        <ele>503.3739</ele>
        <time>2012-10-05T13:52:39Z</time>
      </trkpt>
      <trkpt lat="45.58225" lon="3.21486">
        <ele>502.2057</ele>
        <time>2012-10-05T13:52:45Z</time>
      </trkpt>
      <trkpt lat="45.58223" lon="3.21512">
        <ele>501.47162</ele>
        <time>2012-10-05T13:52:49Z</time>
      </trkpt>
      <trkpt lat="45.58225" lon="3.21544">
        <ele>500.31223</ele>
        <time>2012-10-05T13:52:54Z</time>
      </trkpt>
      <trkpt lat="45.58227" lon="3.21572">
        <ele>500.16034</ele>
        <time>2012-10-05T13:52:59Z</time>
      </trkpt>
      <trkpt lat="45.58227" lon="3.21602">
        <ele>500.10748</ele>
        <time>2012-10-05T13:53:05Z</time>
      </trkpt>
      <trkpt lat="45.58227" lon="3.21628">
        <ele>500.9851</ele>
        <time>2012-10-05T13:53:10Z</time>
      </trkpt>
      <trkpt lat="45.58232" lon="3.21656">
        <ele>501.7046</ele>
        <time>2012-10-05T13:53:16Z</time>
      </trkpt>
      <trkpt lat="45.58241" lon="3.21684">
        <ele>501.38925</ele>
        <time>2012-10-05T13:53:22Z</time>
      </trkpt>
      <trkpt lat="45.58248" lon="3.21712">
        <ele>501.776</ele>
        <time>2012-10-05T13:53:28Z</time>
      </trkpt>
      <trkpt lat="45.58256" lon="3.21741">
        <ele>502.13254</ele>
        <time>2012-10-05T13:53:34Z</time>
      </trkpt>
      <trkpt lat="45.58262" lon="3.21765">
        <ele>502.47348</ele>
        <time>2012-10-05T13:53:38Z</time>
      </trkpt>
      <trkpt lat="45.58264" lon="3.21792">
        <ele>503.16745</ele>
        <time>2012-10-05T13:53:43Z</time>
      </trkpt>
      <trkpt lat="45.58265" lon="3.21822">
        <ele>503.49808</ele>
        <time>2012-10-05T13:53:49Z</time>
      </trkpt>
      <trkpt lat="45.58266" lon="3.21851">
        <ele>504.16003</ele>
        <time>2012-10-05T13:53:55Z</time>
      </trkpt>
      <trkpt lat="45.58265" lon="3.21878">
        <ele>508.41718</ele>
        <time>2012-10-05T13:54:01Z</time>
      </trkpt>
      <trkpt lat="45.58264" lon="3.21905">
        <ele>511.82422</ele>
        <time>2012-10-05T13:54:08Z</time>
      </trkpt>
      <trkpt lat="45.58259" lon="3.21933">
        <ele>513.14087</ele>
        <time>2012-10-05T13:54:15Z</time>
      </trkpt>
      <trkpt lat="45.58255" lon="3.21961">
        <ele>513.362</ele>
        <time>2012-10-05T13:54:21Z</time>
      </trkpt>
      <trkpt lat="45.58256" lon="3.2199">
        <ele>514.31476</ele>
        <time>2012-10-05T13:54:28Z</time>
      </trkpt>
      <trkpt lat="45.58259" lon="3.22016">
        <ele>516.984</ele>
        <time>2012-10-05T13:54:34Z</time>
      </trkpt>
      <trkpt lat="45.58264" lon="3.22044">
        <ele>519.31696</ele>
        <time>2012-10-05T13:54:40Z</time>
      </trkpt>
      <trkpt lat="45.58274" lon="3.22071">
        <ele>518.70807</ele>
        <time>2012-10-05T13:54:46Z</time>
      </trkpt>
      <trkpt lat="45.58282" lon="3.22096">
        <ele>517.77576</ele>
        <time>2012-10-05T13:54:51Z</time>
      </trkpt>
      <trkpt lat="45.58287" lon="3.22122">
        <ele>517.3055</ele>
        <time>2012-10-05T13:54:55Z</time>
      </trkpt>
      <trkpt lat="45.58293" lon="3.22153">
        <ele>517.03094</ele>
        <time>2012-10-05T13:54:59Z</time>
      </trkpt>
      <trkpt lat="45.58306" lon="3.22183">
        <ele>516.4925</ele>
        <time>2012-10-05T13:55:03Z</time>
      </trkpt>
      <trkpt lat="45.58317" lon="3.22206">
        <ele>515.21454</ele>
        <time>2012-10-05T13:55:06Z</time>
      </trkpt>
      <trkpt lat="45.58331" lon="3.22227">
        <ele>513.9754</ele>
        <time>2012-10-05T13:55:09Z</time>
      </trkpt>
      <trkpt lat="45.58347" lon="3.22249">
        <ele>511.77606</ele>
        <time>2012-10-05T13:55:12Z</time>
      </trkpt>
      <trkpt lat="45.58361" lon="3.22272">
        <ele>509.2279</ele>
        <time>2012-10-05T13:55:15Z</time>
      </trkpt>
      <trkpt lat="45.58376" lon="3.223">
        <ele>506.28885</ele>
        <time>2012-10-05T13:55:18Z</time>
      </trkpt>
      <trkpt lat="45.58393" lon="3.22328">
        <ele>504.55988</ele>
        <time>2012-10-05T13:55:21Z</time>
      </trkpt>
      <trkpt lat="45.5841" lon="3.22353">
        <ele>503.40704</ele>
        <time>2012-10-05T13:55:24Z</time>
      </trkpt>
      <trkpt lat="45.58426" lon="3.22378">
        <ele>502.52536</ele>
        <time>2012-10-05T13:55:27Z</time>
      </trkpt>
      <trkpt lat="45.58442" lon="3.22396">
        <ele>502.08466</ele>
        <time>2012-10-05T13:55:30Z</time>
      </trkpt>
      <trkpt lat="45.58455" lon="3.22416">
        <ele>502.0253</ele>
        <time>2012-10-05T13:55:33Z</time>
      </trkpt>
      <trkpt lat="45.58471" lon="3.22435">
        <ele>502.56805</ele>
        <time>2012-10-05T13:55:37Z</time>
      </trkpt>
      <trkpt lat="45.58485" lon="3.22456">
        <ele>503.83942</ele>
        <time>2012-10-05T13:55:42Z</time>
      </trkpt>
      <trkpt lat="45.58501" lon="3.22475">
        <ele>503.9753</ele>
        <time>2012-10-05T13:55:48Z</time>
      </trkpt>
      <trkpt lat="45.58518" lon="3.22488">
        <ele>503.009</ele>
        <time>2012-10-05T13:55:53Z</time>
      </trkpt>
      <trkpt lat="45.58536" lon="3.22503">
        <ele>501.6676</ele>
        <time>2012-10-05T13:55:58Z</time>
      </trkpt>
      <trkpt lat="45.58553" lon="3.22517">
        <ele>501.1842</ele>
        <time>2012-10-05T13:56:02Z</time>
      </trkpt>
      <trkpt lat="45.58573" lon="3.22528">
        <ele>499.5812</ele>
        <time>2012-10-05T13:56:06Z</time>
      </trkpt>
      <trkpt lat="45.58591" lon="3.22538">
        <ele>497.6551</ele>
        <time>2012-10-05T13:56:09Z</time>
      </trkpt>
      <trkpt lat="45.58611" lon="3.2255">
        <ele>495.94095</ele>
        <time>2012-10-05T13:56:12Z</time>
      </trkpt>
      <trkpt lat="45.58635" lon="3.22562">
        <ele>494.2975</ele>
        <time>2012-10-05T13:56:15Z</time>
      </trkpt>
      <trkpt lat="45.58659" lon="3.22572">
        <ele>492.84476</ele>
        <time>2012-10-05T13:56:18Z</time>
      </trkpt>
      <trkpt lat="45.5868" lon="3.22582">
        <ele>492.35535</ele>
        <time>2012-10-05T13:56:21Z</time>
      </trkpt>
      <trkpt lat="45.58699" lon="3.2259">
        <ele>493.1098</ele>
        <time>2012-10-05T13:56:24Z</time>
      </trkpt>
      <trkpt lat="45.58722" lon="3.22597">
        <ele>493.0573</ele>
        <time>2012-10-05T13:56:28Z</time>
      </trkpt>
      <trkpt lat="45.5874" lon="3.22602">
        <ele>492.33093</ele>
        <time>2012-10-05T13:56:31Z</time>
      </trkpt>
      <trkpt lat="45.58762" lon="3.22596">
        <ele>491.1007</ele>
        <time>2012-10-05T13:56:35Z</time>
      </trkpt>
      <trkpt lat="45.58786" lon="3.22591">
        <ele>488.71613</ele>
        <time>2012-10-05T13:56:39Z</time>
      </trkpt>
      <trkpt lat="45.58805" lon="3.22581">
        <ele>487.43665</ele>
        <time>2012-10-05T13:56:43Z</time>
      </trkpt>
      <trkpt lat="45.58825" lon="3.22569">
        <ele>487.27948</ele>
        <time>2012-10-05T13:56:47Z</time>
      </trkpt>
      <trkpt lat="45.58846" lon="3.22556">
        <ele>487.39575</ele>
        <time>2012-10-05T13:56:51Z</time>
      </trkpt>
      <trkpt lat="45.58865" lon="3.22534">
        <ele>487.09778</ele>
        <time>2012-10-05T13:56:55Z</time>
      </trkpt>
      <trkpt lat="45.58878" lon="3.22514">
        <ele>484.93552</ele>
        <time>2012-10-05T13:56:58Z</time>
      </trkpt>
      <trkpt lat="45.58896" lon="3.22503">
        <ele>482.56857</ele>
        <time>2012-10-05T13:57:02Z</time>
      </trkpt>
      <trkpt lat="45.58909" lon="3.2252">
        <ele>480.9732</ele>
        <time>2012-10-05T13:57:05Z</time>
      </trkpt>
      <trkpt lat="45.58923" lon="3.22542">
        <ele>479.73764</ele>
        <time>2012-10-05T13:57:08Z</time>
      </trkpt>
      <trkpt lat="45.5894" lon="3.22567">
        <ele>477.9539</ele>
        <time>2012-10-05T13:57:11Z</time>
      </trkpt>
      <trkpt lat="45.58952" lon="3.22588">
        <ele>476.86075</ele>
        <time>2012-10-05T13:57:14Z</time>
      </trkpt>
      <trkpt lat="45.58964" lon="3.22613">
        <ele>476.24765</ele>
        <time>2012-10-05T13:57:18Z</time>
      </trkpt>
      <trkpt lat="45.58959" lon="3.22638">
        <ele>474.76086</ele>
        <time>2012-10-05T13:57:23Z</time>
      </trkpt>
      <trkpt lat="45.58947" lon="3.22663">
        <ele>473.61447</ele>
        <time>2012-10-05T13:57:27Z</time>
      </trkpt>
      <trkpt lat="45.58935" lon="3.22684">
        <ele>472.15192</ele>
        <time>2012-10-05T13:57:30Z</time>
      </trkpt>
      <trkpt lat="45.58924" lon="3.22705">
        <ele>470.9099</ele>
        <time>2012-10-05T13:57:33Z</time>
      </trkpt>
      <trkpt lat="45.58911" lon="3.22726">
        <ele>470.54843</ele>
        <time>2012-10-05T13:57:36Z</time>
      </trkpt>
      <trkpt lat="45.58897" lon="3.22747">
        <ele>469.78503</ele>
        <time>2012-10-05T13:57:39Z</time>
      </trkpt>
      <trkpt lat="45.58885" lon="3.2277">
        <ele>468.96606</ele>
        <time>2012-10-05T13:57:42Z</time>
      </trkpt>
      <trkpt lat="45.58874" lon="3.22794">
        <ele>467.9784</ele>
        <time>2012-10-05T13:57:45Z</time>
      </trkpt>
      <trkpt lat="45.58862" lon="3.22814">
        <ele>467.23984</ele>
        <time>2012-10-05T13:57:48Z</time>
      </trkpt>
      <trkpt lat="45.58851" lon="3.22837">
        <ele>467.12982</ele>
        <time>2012-10-05T13:57:51Z</time>
      </trkpt>
      <trkpt lat="45.58837" lon="3.22862">
        <ele>467.38824</ele>
        <time>2012-10-05T13:57:55Z</time>
      </trkpt>
      <trkpt lat="45.58825" lon="3.22884">
        <ele>468.00595</ele>
        <time>2012-10-05T13:57:59Z</time>
      </trkpt>
      <trkpt lat="45.58808" lon="3.22897">
        <ele>467.94788</ele>
        <time>2012-10-05T13:58:03Z</time>
      </trkpt>
      <trkpt lat="45.58788" lon="3.22904">
        <ele>467.4459</ele>
        <time>2012-10-05T13:58:07Z</time>
      </trkpt>
      <trkpt lat="45.58768" lon="3.22907">
        <ele>466.25308</ele>
        <time>2012-10-05T13:58:11Z</time>
      </trkpt>
      <trkpt lat="45.58744" lon="3.2291">
        <ele>465.12296</ele>
        <time>2012-10-05T13:58:15Z</time>
      </trkpt>
      <trkpt lat="45.58722" lon="3.22912">
        <ele>463.8352</ele>
        <time>2012-10-05T13:58:18Z</time>
      </trkpt>
      <trkpt lat="45.587" lon="3.22919">
        <ele>462.92004</ele>
        <time>2012-10-05T13:58:21Z</time>
      </trkpt>
      <trkpt lat="45.58683" lon="3.2293">
        <ele>462.37772</ele>
        <time>2012-10-05T13:58:23Z</time>
      </trkpt>
      <trkpt lat="45.58664" lon="3.22943">
        <ele>461.41016</ele>
        <time>2012-10-05T13:58:25Z</time>
      </trkpt>
      <trkpt lat="45.58648" lon="3.22956">
        <ele>459.95966</ele>
        <time>2012-10-05T13:58:27Z</time>
      </trkpt>
      <trkpt lat="45.58631" lon="3.22972">
        <ele>459.35</ele>
        <time>2012-10-05T13:58:29Z</time>
      </trkpt>
      <trkpt lat="45.58616" lon="3.22995">
        <ele>457.88205</ele>
        <time>2012-10-05T13:58:31Z</time>
      </trkpt>
      <trkpt lat="45.58602" lon="3.23016">
        <ele>456.3876</ele>
        <time>2012-10-05T13:58:33Z</time>
      </trkpt>
      <trkpt lat="45.58584" lon="3.23039">
        <ele>454.41714</ele>
        <time>2012-10-05T13:58:36Z</time>
      </trkpt>
      <trkpt lat="45.58564" lon="3.23056">
        <ele>452.08932</ele>
        <time>2012-10-05T13:58:40Z</time>
      </trkpt>
      <trkpt lat="45.58545" lon="3.23056">
        <ele>451.6257</ele>
        <time>2012-10-05T13:58:43Z</time>
      </trkpt>
      <trkpt lat="45.58524" lon="3.23053">
        <ele>451.20822</ele>
        <time>2012-10-05T13:58:46Z</time>
      </trkpt>
      <trkpt lat="45.58502" lon="3.23052">
        <ele>450.54773</ele>
        <time>2012-10-05T13:58:49Z</time>
      </trkpt>
      <trkpt lat="45.5848" lon="3.23052">
        <ele>450.18628</ele>
        <time>2012-10-05T13:58:52Z</time>
      </trkpt>
      <trkpt lat="45.58457" lon="3.23055">
        <ele>449.6666</ele>
        <time>2012-10-05T13:58:55Z</time>
      </trkpt>
      <trkpt lat="45.58439" lon="3.23048">
        <ele>448.5039</ele>
        <time>2012-10-05T13:58:57Z</time>
      </trkpt>
      <trkpt lat="45.5842" lon="3.2304">
        <ele>447.3874</ele>
        <time>2012-10-05T13:58:59Z</time>
      </trkpt>
      <trkpt lat="45.584" lon="3.23028">
        <ele>446.15933</ele>
        <time>2012-10-05T13:59:01Z</time>
      </trkpt>
      <trkpt lat="45.58381" lon="3.23014">
        <ele>445.95605</ele>
        <time>2012-10-05T13:59:02Z</time>
      </trkpt>
      <trkpt lat="45.58362" lon="3.22999">
        <ele>444.79797</ele>
        <time>2012-10-05T13:59:04Z</time>
      </trkpt>
      <trkpt lat="45.58343" lon="3.22984">
        <ele>443.4903</ele>
        <time>2012-10-05T13:59:07Z</time>
      </trkpt>
      <trkpt lat="45.58325" lon="3.22967">
        <ele>442.20474</ele>
        <time>2012-10-05T13:59:09Z</time>
      </trkpt>
      <trkpt lat="45.58306" lon="3.22953">
        <ele>440.0316</ele>
        <time>2012-10-05T13:59:11Z</time>
      </trkpt>
      <trkpt lat="45.58285" lon="3.2294">
        <ele>437.89047</ele>
        <time>2012-10-05T13:59:13Z</time>
      </trkpt>
      <trkpt lat="45.58266" lon="3.22924">
        <ele>436.08606</ele>
        <time>2012-10-05T13:59:15Z</time>
      </trkpt>
      <trkpt lat="45.58258" lon="3.22894">
        <ele>433.9711</ele>
        <time>2012-10-05T13:59:17Z</time>
      </trkpt>
      <trkpt lat="45.58251" lon="3.22862">
        <ele>431.65018</ele>
        <time>2012-10-05T13:59:19Z</time>
      </trkpt>
      <trkpt lat="45.5824" lon="3.22832">
        <ele>429.56967</ele>
        <time>2012-10-05T13:59:21Z</time>
      </trkpt>
      <trkpt lat="45.58226" lon="3.22807">
        <ele>427.2494</ele>
        <time>2012-10-05T13:59:23Z</time>
      </trkpt>
      <trkpt lat="45.58209" lon="3.22784">
        <ele>424.8442</ele>
        <time>2012-10-05T13:59:25Z</time>
      </trkpt>
      <trkpt lat="45.58192" lon="3.22762">
        <ele>422.4163</ele>
        <time>2012-10-05T13:59:27Z</time>
      </trkpt>
      <trkpt lat="45.58171" lon="3.22745">
        <ele>420.3756</ele>
        <time>2012-10-05T13:59:29Z</time>
      </trkpt>
      <trkpt lat="45.5815" lon="3.22745">
        <ele>418.74646</ele>
        <time>2012-10-05T13:59:31Z</time>
      </trkpt>
      <trkpt lat="45.58127" lon="3.22752">
        <ele>417.50507</ele>
        <time>2012-10-05T13:59:33Z</time>
      </trkpt>
      <trkpt lat="45.58115" lon="3.22773">
        <ele>416.45053</ele>
        <time>2012-10-05T13:59:35Z</time>
      </trkpt>
      <trkpt lat="45.58103" lon="3.22792">
        <ele>415.25934</ele>
        <time>2012-10-05T13:59:38Z</time>
      </trkpt>
      <trkpt lat="45.58085" lon="3.22793">
        <ele>414.9017</ele>
        <time>2012-10-05T13:59:43Z</time>
      </trkpt>
      <trkpt lat="45.58071" lon="3.22776">
        <ele>415.2117</ele>
        <time>2012-10-05T13:59:49Z</time>
      </trkpt>
      <trkpt lat="45.58058" lon="3.22753">
        <ele>415.8185</ele>
        <time>2012-10-05T13:59:56Z</time>
      </trkpt>
      <trkpt lat="45.58047" lon="3.22732">
        <ele>416.08145</ele>
        <time>2012-10-05T14:00:03Z</time>
      </trkpt>
      <trkpt lat="45.58036" lon="3.22711">
        <ele>415.97562</ele>
        <time>2012-10-05T14:00:08Z</time>
      </trkpt>
      <trkpt lat="45.58029" lon="3.22685">
        <ele>416.89005</ele>
        <time>2012-10-05T14:00:14Z</time>
      </trkpt>
      <trkpt lat="45.58019" lon="3.22664">
        <ele>418.0978</ele>
        <time>2012-10-05T14:00:22Z</time>
      </trkpt>
      <trkpt lat="45.58008" lon="3.22643">
        <ele>419.5009</ele>
        <time>2012-10-05T14:00:27Z</time>
      </trkpt>
      <trkpt lat="45.57997" lon="3.22621">
        <ele>424.04724</ele>
        <time>2012-10-05T14:00:37Z</time>
      </trkpt>
      <trkpt lat="45.57984" lon="3.22601">
        <ele>426.2882</ele>
        <time>2012-10-05T14:00:48Z</time>
      </trkpt>
      <trkpt lat="45.5797" lon="3.22586">
        <ele>429.3328</ele>
        <time>2012-10-05T14:01:04Z</time>
      </trkpt>
      <trkpt lat="45.57956" lon="3.22567">
        <ele>433.75555</ele>
        <time>2012-10-05T14:01:15Z</time>
      </trkpt>
      <trkpt lat="45.57948" lon="3.22542">
        <ele>438.21338</ele>
        <time>2012-10-05T14:01:26Z</time>
      </trkpt>
      <trkpt lat="45.57935" lon="3.22524">
        <ele>438.73987</ele>
        <time>2012-10-05T14:01:37Z</time>
      </trkpt>
      <trkpt lat="45.57923" lon="3.22504">
        <ele>442.32544</ele>
        <time>2012-10-05T14:01:50Z</time>
      </trkpt>
      <trkpt lat="45.57909" lon="3.22482">
        <ele>442.52185</ele>
        <time>2012-10-05T14:01:58Z</time>
      </trkpt>
      <trkpt lat="45.5789" lon="3.2247">
        <ele>439.7728</ele>
        <time>2012-10-05T14:02:03Z</time>
      </trkpt>
      <trkpt lat="45.57871" lon="3.22466">
        <ele>438.04205</ele>
        <time>2012-10-05T14:02:09Z</time>
      </trkpt>
      <trkpt lat="45.57851" lon="3.22472">
        <ele>438.1506</ele>
        <time>2012-10-05T14:02:16Z</time>
      </trkpt>
      <trkpt lat="45.57833" lon="3.22477">
        <ele>440.17838</ele>
        <time>2012-10-05T14:02:26Z</time>
      </trkpt>
      <trkpt lat="45.57815" lon="3.22485">
        <ele>444.08917</ele>
        <time>2012-10-05T14:02:36Z</time>
      </trkpt>
      <trkpt lat="45.57797" lon="3.2249">
        <ele>446.56378</ele>
        <time>2012-10-05T14:02:45Z</time>
      </trkpt>
      <trkpt lat="45.57786" lon="3.2251">
        <ele>445.9586</ele>
        <time>2012-10-05T14:02:55Z</time>
      </trkpt>
      <trkpt lat="45.57782" lon="3.22537">
        <ele>448.5566</ele>
        <time>2012-10-05T14:05:44Z</time>
      </trkpt>
      <trkpt lat="45.57778" lon="3.22564">
        <ele>452.3788</ele>
        <time>2012-10-05T14:05:56Z</time>
      </trkpt>
      <trkpt lat="45.57773" lon="3.22589">
        <ele>454.9098</ele>
        <time>2012-10-05T14:06:05Z</time>
      </trkpt>
      <trkpt lat="45.57763" lon="3.22612">
        <ele>457.41376</ele>
        <time>2012-10-05T14:06:14Z</time>
      </trkpt>
      <trkpt lat="45.57753" lon="3.22634">
        <ele>458.15952</ele>
        <time>2012-10-05T14:06:22Z</time>
      </trkpt>
      <trkpt lat="45.57742" lon="3.22657">
        <ele>457.7589</ele>
        <time>2012-10-05T14:06:29Z</time>
      </trkpt>
      <trkpt lat="45.57733" lon="3.22679">
        <ele>457.43533</ele>
        <time>2012-10-05T14:06:35Z</time>
      </trkpt>
      <trkpt lat="45.57722" lon="3.22703">
        <ele>458.98016</ele>
        <time>2012-10-05T14:06:41Z</time>
      </trkpt>
      <trkpt lat="45.57713" lon="3.22727">
        <ele>460.68896</ele>
        <time>2012-10-05T14:06:46Z</time>
      </trkpt>
      <trkpt lat="45.57706" lon="3.22755">
        <ele>460.87015</ele>
        <time>2012-10-05T14:06:51Z</time>
      </trkpt>
      <trkpt lat="45.57697" lon="3.22781">
        <ele>460.679</ele>
        <time>2012-10-05T14:06:56Z</time>
      </trkpt>
      <trkpt lat="45.57689" lon="3.22806">
        <ele>459.09836</ele>
        <time>2012-10-05T14:07:01Z</time>
      </trkpt>
      <trkpt lat="45.57676" lon="3.22825">
        <ele>459.44193</ele>
        <time>2012-10-05T14:07:06Z</time>
      </trkpt>
      <trkpt lat="45.57659" lon="3.22843">
        <ele>460.9942</ele>
        <time>2012-10-05T14:07:12Z</time>
      </trkpt>
      <trkpt lat="45.57645" lon="3.22862">
        <ele>462.78387</ele>
        <time>2012-10-05T14:07:18Z</time>
      </trkpt>
      <trkpt lat="45.5763" lon="3.22881">
        <ele>462.8845</ele>
        <time>2012-10-05T14:07:25Z</time>
      </trkpt>
      <trkpt lat="45.57615" lon="3.22897">
        <ele>462.66824</ele>
        <time>2012-10-05T14:07:32Z</time>
      </trkpt>
      <trkpt lat="45.57596" lon="3.22909">
        <ele>461.96564</ele>
        <time>2012-10-05T14:07:36Z</time>
      </trkpt>
      <trkpt lat="45.57573" lon="3.22925">
        <ele>461.2438</ele>
        <time>2012-10-05T14:07:39Z</time>
      </trkpt>
      <trkpt lat="45.57557" lon="3.22937">
        <ele>460.5286</ele>
        <time>2012-10-05T14:07:41Z</time>
      </trkpt>
      <trkpt lat="45.57536" lon="3.2296">
        <ele>460.1954</ele>
        <time>2012-10-05T14:07:43Z</time>
      </trkpt>
      <trkpt lat="45.57524" lon="3.2299">
        <ele>459.8314</ele>
        <time>2012-10-05T14:07:47Z</time>
      </trkpt>
      <trkpt lat="45.57515" lon="3.23016">
        <ele>459.0981</ele>
        <time>2012-10-05T14:07:50Z</time>
      </trkpt>
      <trkpt lat="45.57512" lon="3.23046">
        <ele>458.90442</ele>
        <time>2012-10-05T14:07:52Z</time>
      </trkpt>
      <trkpt lat="45.57509" lon="3.23074">
        <ele>458.90707</ele>
        <time>2012-10-05T14:07:55Z</time>
      </trkpt>
      <trkpt lat="45.57519" lon="3.23104">
        <ele>458.6535</ele>
        <time>2012-10-05T14:07:59Z</time>
      </trkpt>
      <trkpt lat="45.57528" lon="3.23129">
        <ele>458.0137</ele>
        <time>2012-10-05T14:08:02Z</time>
      </trkpt>
      <trkpt lat="45.57531" lon="3.23158">
        <ele>458.8843</ele>
        <time>2012-10-05T14:08:06Z</time>
      </trkpt>
      <trkpt lat="45.57538" lon="3.23187">
        <ele>459.39297</ele>
        <time>2012-10-05T14:08:10Z</time>
      </trkpt>
      <trkpt lat="45.57544" lon="3.23217">
        <ele>460.26917</ele>
        <time>2012-10-05T14:08:14Z</time>
      </trkpt>
      <trkpt lat="45.5755" lon="3.23241">
        <ele>460.5422</ele>
        <time>2012-10-05T14:08:17Z</time>
      </trkpt>
      <trkpt lat="45.57558" lon="3.23273">
        <ele>460.61832</ele>
        <time>2012-10-05T14:08:19Z</time>
      </trkpt>
      <trkpt lat="45.57575" lon="3.23297">
        <ele>460.23578</ele>
        <time>2012-10-05T14:08:24Z</time>
      </trkpt>
      <trkpt lat="45.57588" lon="3.23322">
        <ele>458.57568</ele>
        <time>2012-10-05T14:08:28Z</time>
      </trkpt>
      <trkpt lat="45.57598" lon="3.23347">
        <ele>455.29337</ele>
        <time>2012-10-05T14:08:32Z</time>
      </trkpt>
      <trkpt lat="45.57601" lon="3.23375">
        <ele>452.8118</ele>
        <time>2012-10-05T14:08:35Z</time>
      </trkpt>
      <trkpt lat="45.57603" lon="3.23412">
        <ele>450.28986</ele>
        <time>2012-10-05T14:08:38Z</time>
      </trkpt>
      <trkpt lat="45.57606" lon="3.2344">
        <ele>447.81967</ele>
        <time>2012-10-05T14:08:41Z</time>
      </trkpt>
      <trkpt lat="45.57606" lon="3.23467">
        <ele>444.37305</ele>
        <time>2012-10-05T14:08:46Z</time>
      </trkpt>
      <trkpt lat="45.57586" lon="3.23472">
        <ele>441.35236</ele>
        <time>2012-10-05T14:08:52Z</time>
      </trkpt>
      <trkpt lat="45.57567" lon="3.23471">
        <ele>439.552</ele>
        <time>2012-10-05T14:08:56Z</time>
      </trkpt>
      <trkpt lat="45.57548" lon="3.23472">
        <ele>438.54877</ele>
        <time>2012-10-05T14:09:00Z</time>
      </trkpt>
      <trkpt lat="45.57528" lon="3.23475">
        <ele>438.5962</ele>
        <time>2012-10-05T14:09:04Z</time>
      </trkpt>
      <trkpt lat="45.57509" lon="3.23477">
        <ele>438.12955</ele>
        <time>2012-10-05T14:09:08Z</time>
      </trkpt>
      <trkpt lat="45.57487" lon="3.23477">
        <ele>437.6366</ele>
        <time>2012-10-05T14:09:12Z</time>
      </trkpt>
      <trkpt lat="45.57465" lon="3.23474">
        <ele>437.97046</ele>
        <time>2012-10-05T14:09:16Z</time>
      </trkpt>
      <trkpt lat="45.57444" lon="3.23476">
        <ele>438.34564</ele>
        <time>2012-10-05T14:09:19Z</time>
      </trkpt>
      <trkpt lat="45.57424" lon="3.23476">
        <ele>439.16977</ele>
        <time>2012-10-05T14:09:23Z</time>
      </trkpt>
      <trkpt lat="45.57403" lon="3.23475">
        <ele>439.99713</ele>
        <time>2012-10-05T14:09:26Z</time>
      </trkpt>
      <trkpt lat="45.57383" lon="3.23476">
        <ele>440.30557</ele>
        <time>2012-10-05T14:09:29Z</time>
      </trkpt>
      <trkpt lat="45.57361" lon="3.23476">
        <ele>439.69037</ele>
        <time>2012-10-05T14:09:32Z</time>
      </trkpt>
      <trkpt lat="45.57338" lon="3.23475">
        <ele>438.60425</ele>
        <time>2012-10-05T14:09:35Z</time>
      </trkpt>
      <trkpt lat="45.57314" lon="3.23476">
        <ele>437.66794</ele>
        <time>2012-10-05T14:09:38Z</time>
      </trkpt>
      <trkpt lat="45.5729" lon="3.23476">
        <ele>436.70575</ele>
        <time>2012-10-05T14:09:41Z</time>
      </trkpt>
      <trkpt lat="45.57265" lon="3.23476">
        <ele>436.017</ele>
        <time>2012-10-05T14:09:44Z</time>
      </trkpt>
      <trkpt lat="45.5724" lon="3.23477">
        <ele>435.32956</ele>
        <time>2012-10-05T14:09:47Z</time>
      </trkpt>
      <trkpt lat="45.57216" lon="3.23477">
        <ele>434.57236</ele>
        <time>2012-10-05T14:09:50Z</time>
      </trkpt>
      <trkpt lat="45.57192" lon="3.23477">
        <ele>434.01855</ele>
        <time>2012-10-05T14:09:53Z</time>
      </trkpt>
      <trkpt lat="45.57168" lon="3.23476">
        <ele>433.63333</ele>
        <time>2012-10-05T14:09:56Z</time>
      </trkpt>
      <trkpt lat="45.57146" lon="3.23478">
        <ele>433.56927</ele>
        <time>2012-10-05T14:09:59Z</time>
      </trkpt>
      <trkpt lat="45.57126" lon="3.23478">
        <ele>433.58286</ele>
        <time>2012-10-05T14:10:02Z</time>
      </trkpt>
      <trkpt lat="45.57108" lon="3.23478">
        <ele>433.89484</ele>
        <time>2012-10-05T14:10:05Z</time>
      </trkpt>
      <trkpt lat="45.57085" lon="3.23479">
        <ele>434.7061</ele>
        <time>2012-10-05T14:10:09Z</time>
      </trkpt>
      <trkpt lat="45.57063" lon="3.2348">
        <ele>435.12018</ele>
        <time>2012-10-05T14:10:13Z</time>
      </trkpt>
      <trkpt lat="45.5704" lon="3.23481">
        <ele>435.0977</ele>
        <time>2012-10-05T14:10:17Z</time>
      </trkpt>
      <trkpt lat="45.57019" lon="3.23484">
        <ele>435.46402</ele>
        <time>2012-10-05T14:10:21Z</time>
      </trkpt>
      <trkpt lat="45.56999" lon="3.2349">
        <ele>435.62134</ele>
        <time>2012-10-05T14:10:25Z</time>
      </trkpt>
      <trkpt lat="45.56979" lon="3.23498">
        <ele>435.9457</ele>
        <time>2012-10-05T14:10:29Z</time>
      </trkpt>
      <trkpt lat="45.5696" lon="3.2349">
        <ele>436.6831</ele>
        <time>2012-10-05T14:10:33Z</time>
      </trkpt>
      <trkpt lat="45.5694" lon="3.2348">
        <ele>437.67923</ele>
        <time>2012-10-05T14:10:38Z</time>
      </trkpt>
      <trkpt lat="45.56923" lon="3.23472">
        <ele>438.38153</ele>
        <time>2012-10-05T14:10:43Z</time>
      </trkpt>
      <trkpt lat="45.56905" lon="3.23462">
        <ele>438.85217</ele>
        <time>2012-10-05T14:10:48Z</time>
      </trkpt>
      <trkpt lat="45.56885" lon="3.23451">
        <ele>439.2667</ele>
        <time>2012-10-05T14:10:53Z</time>
      </trkpt>
      <trkpt lat="45.56866" lon="3.23445">
        <ele>439.50732</ele>
        <time>2012-10-05T14:10:57Z</time>
      </trkpt>
      <trkpt lat="45.56848" lon="3.23438">
        <ele>439.703</ele>
        <time>2012-10-05T14:11:01Z</time>
      </trkpt>
      <trkpt lat="45.5683" lon="3.23433">
        <ele>439.60086</ele>
        <time>2012-10-05T14:11:05Z</time>
      </trkpt>
      <trkpt lat="45.5681" lon="3.23431">
        <ele>439.12048</ele>
        <time>2012-10-05T14:11:09Z</time>
      </trkpt>
      <trkpt lat="45.56791" lon="3.23426">
        <ele>438.69153</ele>
        <time>2012-10-05T14:11:13Z</time>
      </trkpt>
      <trkpt lat="45.56774" lon="3.23418">
        <ele>438.12848</ele>
        <time>2012-10-05T14:11:17Z</time>
      </trkpt>
      <trkpt lat="45.56758" lon="3.23408">
        <ele>438.43118</ele>
        <time>2012-10-05T14:11:21Z</time>
      </trkpt>
      <trkpt lat="45.56739" lon="3.23399">
        <ele>438.809</ele>
        <time>2012-10-05T14:11:25Z</time>
      </trkpt>
      <trkpt lat="45.56721" lon="3.23387">
        <ele>438.81445</ele>
        <time>2012-10-05T14:11:29Z</time>
      </trkpt>
      <trkpt lat="45.56703" lon="3.23374">
        <ele>439.2279</ele>
        <time>2012-10-05T14:11:33Z</time>
      </trkpt>
      <trkpt lat="45.56686" lon="3.23361">
        <ele>439.47867</ele>
        <time>2012-10-05T14:11:37Z</time>
      </trkpt>
      <trkpt lat="45.56669" lon="3.23351">
        <ele>439.94315</ele>
        <time>2012-10-05T14:11:41Z</time>
      </trkpt>
      <trkpt lat="45.56651" lon="3.2334">
        <ele>440.2967</ele>
        <time>2012-10-05T14:11:46Z</time>
      </trkpt>
      <trkpt lat="45.56638" lon="3.23362">
        <ele>440.06827</ele>
        <time>2012-10-05T14:11:52Z</time>
      </trkpt>
      <trkpt lat="45.56629" lon="3.2339">
        <ele>439.4508</ele>
        <time>2012-10-05T14:11:56Z</time>
      </trkpt>
      <trkpt lat="45.56622" lon="3.23415">
        <ele>438.50787</ele>
        <time>2012-10-05T14:11:59Z</time>
      </trkpt>
      <trkpt lat="45.56616" lon="3.23442">
        <ele>437.696</ele>
        <time>2012-10-05T14:12:02Z</time>
      </trkpt>
      <trkpt lat="45.5661" lon="3.23471">
        <ele>437.02072</ele>
        <time>2012-10-05T14:12:05Z</time>
      </trkpt>
      <trkpt lat="45.56603" lon="3.235">
        <ele>436.56552</ele>
        <time>2012-10-05T14:12:08Z</time>
      </trkpt>
      <trkpt lat="45.56598" lon="3.2353">
        <ele>436.11722</ele>
        <time>2012-10-05T14:12:11Z</time>
      </trkpt>
      <trkpt lat="45.56592" lon="3.23559">
        <ele>435.62808</ele>
        <time>2012-10-05T14:12:14Z</time>
      </trkpt>
      <trkpt lat="45.56587" lon="3.23588">
        <ele>435.35144</ele>
        <time>2012-10-05T14:12:17Z</time>
      </trkpt>
      <trkpt lat="45.56581" lon="3.23618">
        <ele>435.35034</ele>
        <time>2012-10-05T14:12:20Z</time>
      </trkpt>
      <trkpt lat="45.56576" lon="3.23646">
        <ele>435.428</ele>
        <time>2012-10-05T14:12:23Z</time>
      </trkpt>
      <trkpt lat="45.56571" lon="3.23675">
        <ele>435.45453</ele>
        <time>2012-10-05T14:12:26Z</time>
      </trkpt>
      <trkpt lat="45.56567" lon="3.237">
        <ele>435.4282</ele>
        <time>2012-10-05T14:12:29Z</time>
      </trkpt>
      <trkpt lat="45.56549" lon="3.23698">
        <ele>434.4643</ele>
        <time>2012-10-05T14:12:37Z</time>
      </trkpt>
      <trkpt lat="45.56535" lon="3.23676">
        <ele>433.8737</ele>
        <time>2012-10-05T14:12:43Z</time>
      </trkpt>
      <trkpt lat="45.5652" lon="3.23653">
        <ele>434.08032</ele>
        <time>2012-10-05T14:12:49Z</time>
      </trkpt>
      <trkpt lat="45.56501" lon="3.23642">
        <ele>433.88492</ele>
        <time>2012-10-05T14:12:54Z</time>
      </trkpt>
      <trkpt lat="45.56484" lon="3.23652">
        <ele>433.37054</ele>
        <time>2012-10-05T14:13:01Z</time>
      </trkpt>
      <trkpt lat="45.56492" lon="3.23628">
        <ele>433.43433</ele>
        <time>2012-10-05T14:13:20Z</time>
      </trkpt>
      <trkpt lat="45.56478" lon="3.23608">
        <ele>433.67065</ele>
        <time>2012-10-05T14:13:27Z</time>
      </trkpt>
      <trkpt lat="45.56462" lon="3.23591">
        <ele>433.49338</ele>
        <time>2012-10-05T14:13:32Z</time>
      </trkpt>
      <trkpt lat="45.56448" lon="3.23574">
        <ele>433.10745</ele>
        <time>2012-10-05T14:13:38Z</time>
      </trkpt>
      <trkpt lat="45.56433" lon="3.23557">
        <ele>432.57962</ele>
        <time>2012-10-05T14:13:42Z</time>
      </trkpt>
      <trkpt lat="45.56417" lon="3.2354">
        <ele>431.81003</ele>
        <time>2012-10-05T14:13:48Z</time>
      </trkpt>
      <trkpt lat="45.564" lon="3.23521">
        <ele>431.54468</ele>
        <time>2012-10-05T14:13:53Z</time>
      </trkpt>
      <trkpt lat="45.56384" lon="3.23503">
        <ele>431.40985</ele>
        <time>2012-10-05T14:13:57Z</time>
      </trkpt>
      <trkpt lat="45.5637" lon="3.23487">
        <ele>431.4663</ele>
        <time>2012-10-05T14:14:02Z</time>
      </trkpt>
      <trkpt lat="45.56353" lon="3.23467">
        <ele>431.4607</ele>
        <time>2012-10-05T14:14:07Z</time>
      </trkpt>
      <trkpt lat="45.56335" lon="3.23449">
        <ele>431.85175</ele>
        <time>2012-10-05T14:14:11Z</time>
      </trkpt>
      <trkpt lat="45.56321" lon="3.23432">
        <ele>431.8436</ele>
        <time>2012-10-05T14:14:16Z</time>
      </trkpt>
      <trkpt lat="45.56305" lon="3.23414">
        <ele>431.867</ele>
        <time>2012-10-05T14:14:21Z</time>
      </trkpt>
      <trkpt lat="45.56289" lon="3.23396">
        <ele>431.85608</ele>
        <time>2012-10-05T14:14:26Z</time>
      </trkpt>
      <trkpt lat="45.56272" lon="3.23378">
        <ele>430.67877</ele>
        <time>2012-10-05T14:14:31Z</time>
      </trkpt>
      <trkpt lat="45.56257" lon="3.23359">
        <ele>430.50867</ele>
        <time>2012-10-05T14:14:36Z</time>
      </trkpt>
      <trkpt lat="45.56242" lon="3.23339">
        <ele>431.0344</ele>
        <time>2012-10-05T14:14:41Z</time>
      </trkpt>
      <trkpt lat="45.56226" lon="3.23321">
        <ele>430.6903</ele>
        <time>2012-10-05T14:14:46Z</time>
      </trkpt>
      <trkpt lat="45.5621" lon="3.23302">
        <ele>431.2199</ele>
        <time>2012-10-05T14:14:51Z</time>
      </trkpt>
      <trkpt lat="45.56194" lon="3.23284">
        <ele>431.1651</ele>
        <time>2012-10-05T14:14:56Z</time>
      </trkpt>
      <trkpt lat="45.56179" lon="3.23268">
        <ele>430.90765</ele>
        <time>2012-10-05T14:15:00Z</time>
      </trkpt>
      <trkpt lat="45.56163" lon="3.23253">
        <ele>431.091</ele>
        <time>2012-10-05T14:15:06Z</time>
      </trkpt>
      <trkpt lat="45.5618" lon="3.23267">
        <ele>436.251</ele>
        <time>2012-10-05T14:15:53Z</time>
      </trkpt>
      <trkpt lat="45.56196" lon="3.23285">
        <ele>436.13525</ele>
        <time>2012-10-05T14:15:59Z</time>
      </trkpt>
      <trkpt lat="45.56211" lon="3.23302">
        <ele>436.00272</ele>
        <time>2012-10-05T14:16:04Z</time>
      </trkpt>
      <trkpt lat="45.56227" lon="3.23322">
        <ele>435.31464</ele>
        <time>2012-10-05T14:16:09Z</time>
      </trkpt>
      <trkpt lat="45.56241" lon="3.23339">
        <ele>435.9319</ele>
        <time>2012-10-05T14:16:13Z</time>
      </trkpt>
      <trkpt lat="45.56255" lon="3.23357">
        <ele>436.5018</ele>
        <time>2012-10-05T14:16:17Z</time>
      </trkpt>
      <trkpt lat="45.56272" lon="3.23376">
        <ele>436.13522</ele>
        <time>2012-10-05T14:16:22Z</time>
      </trkpt>
      <trkpt lat="45.56287" lon="3.23394">
        <ele>434.2931</ele>
        <time>2012-10-05T14:16:26Z</time>
      </trkpt>
      <trkpt lat="45.56303" lon="3.2341">
        <ele>433.03247</ele>
        <time>2012-10-05T14:16:30Z</time>
      </trkpt>
      <trkpt lat="45.56318" lon="3.23427">
        <ele>432.11172</ele>
        <time>2012-10-05T14:16:34Z</time>
      </trkpt>
      <trkpt lat="45.56335" lon="3.23444">
        <ele>431.96143</ele>
        <time>2012-10-05T14:16:38Z</time>
      </trkpt>
      <trkpt lat="45.56353" lon="3.23463">
        <ele>432.3709</ele>
        <time>2012-10-05T14:16:42Z</time>
      </trkpt>
      <trkpt lat="45.5637" lon="3.23482">
        <ele>432.7751</ele>
        <time>2012-10-05T14:16:46Z</time>
      </trkpt>
      <trkpt lat="45.56386" lon="3.23501">
        <ele>432.54086</ele>
        <time>2012-10-05T14:16:50Z</time>
      </trkpt>
      <trkpt lat="45.56403" lon="3.23521">
        <ele>431.8468</ele>
        <time>2012-10-05T14:16:54Z</time>
      </trkpt>
      <trkpt lat="45.56419" lon="3.23539">
        <ele>431.64166</ele>
        <time>2012-10-05T14:16:58Z</time>
      </trkpt>
      <trkpt lat="45.56435" lon="3.23556">
        <ele>431.58926</ele>
        <time>2012-10-05T14:17:02Z</time>
      </trkpt>
      <trkpt lat="45.56449" lon="3.23576">
        <ele>431.58362</ele>
        <time>2012-10-05T14:17:06Z</time>
      </trkpt>
      <trkpt lat="45.56465" lon="3.23594">
        <ele>431.0486</ele>
        <time>2012-10-05T14:17:10Z</time>
      </trkpt>
      <trkpt lat="45.56482" lon="3.2361">
        <ele>431.02777</ele>
        <time>2012-10-05T14:17:14Z</time>
      </trkpt>
      <trkpt lat="45.56494" lon="3.23631">
        <ele>431.38876</ele>
        <time>2012-10-05T14:17:18Z</time>
      </trkpt>
      <trkpt lat="45.56514" lon="3.23644">
        <ele>432.45712</ele>
        <time>2012-10-05T14:17:23Z</time>
      </trkpt>
      <trkpt lat="45.56527" lon="3.23664">
        <ele>432.75354</ele>
        <time>2012-10-05T14:17:27Z</time>
      </trkpt>
      <trkpt lat="45.56539" lon="3.23688">
        <ele>432.7145</ele>
        <time>2012-10-05T14:17:31Z</time>
      </trkpt>
      <trkpt lat="45.56553" lon="3.23708">
        <ele>432.71973</ele>
        <time>2012-10-05T14:17:35Z</time>
      </trkpt>
      <trkpt lat="45.5656" lon="3.23735">
        <ele>433.44992</ele>
        <time>2012-10-05T14:17:40Z</time>
      </trkpt>
      <trkpt lat="45.56556" lon="3.23761">
        <ele>433.43912</ele>
        <time>2012-10-05T14:17:44Z</time>
      </trkpt>
      <trkpt lat="45.56549" lon="3.23793">
        <ele>433.3119</ele>
        <time>2012-10-05T14:17:48Z</time>
      </trkpt>
      <trkpt lat="45.56544" lon="3.23825">
        <ele>433.41772</ele>
        <time>2012-10-05T14:17:52Z</time>
      </trkpt>
      <trkpt lat="45.5654" lon="3.23856">
        <ele>433.57425</ele>
        <time>2012-10-05T14:17:56Z</time>
      </trkpt>
      <trkpt lat="45.56523" lon="3.23867">
        <ele>433.72723</ele>
        <time>2012-10-05T14:18:01Z</time>
      </trkpt>
      <trkpt lat="45.56501" lon="3.23864">
        <ele>433.59525</ele>
        <time>2012-10-05T14:18:04Z</time>
      </trkpt>
      <trkpt lat="45.56478" lon="3.23861">
        <ele>433.298</ele>
        <time>2012-10-05T14:18:09Z</time>
      </trkpt>
      <trkpt lat="45.56457" lon="3.23854">
        <ele>433.0598</ele>
        <time>2012-10-05T14:18:13Z</time>
      </trkpt>
      <trkpt lat="45.56435" lon="3.23843">
        <ele>432.50476</ele>
        <time>2012-10-05T14:18:17Z</time>
      </trkpt>
      <trkpt lat="45.56416" lon="3.23833">
        <ele>432.8233</ele>
        <time>2012-10-05T14:18:21Z</time>
      </trkpt>
      <trkpt lat="45.56397" lon="3.23821">
        <ele>432.3143</ele>
        <time>2012-10-05T14:18:25Z</time>
      </trkpt>
      <trkpt lat="45.56378" lon="3.23811">
        <ele>432.62903</ele>
        <time>2012-10-05T14:18:29Z</time>
      </trkpt>
      <trkpt lat="45.56358" lon="3.23805">
        <ele>432.597</ele>
        <time>2012-10-05T14:18:33Z</time>
      </trkpt>
      <trkpt lat="45.56337" lon="3.23797">
        <ele>432.24857</ele>
        <time>2012-10-05T14:18:37Z</time>
      </trkpt>
      <trkpt lat="45.56315" lon="3.2379">
        <ele>432.4637</ele>
        <time>2012-10-05T14:18:41Z</time>
      </trkpt>
      <trkpt lat="45.56295" lon="3.23783">
        <ele>432.56616</ele>
        <time>2012-10-05T14:18:44Z</time>
      </trkpt>
      <trkpt lat="45.56276" lon="3.23775">
        <ele>432.99582</ele>
        <time>2012-10-05T14:18:49Z</time>
      </trkpt>
      <trkpt lat="45.56256" lon="3.23766">
        <ele>433.29623</ele>
        <time>2012-10-05T14:18:53Z</time>
      </trkpt>
      <trkpt lat="45.56236" lon="3.2376">
        <ele>433.70654</ele>
        <time>2012-10-05T14:18:57Z</time>
      </trkpt>
      <trkpt lat="45.56215" lon="3.23753">
        <ele>433.77072</ele>
        <time>2012-10-05T14:19:01Z</time>
      </trkpt>
      <trkpt lat="45.56195" lon="3.23746">
        <ele>433.74377</ele>
        <time>2012-10-05T14:19:05Z</time>
      </trkpt>
      <trkpt lat="45.56176" lon="3.23739">
        <ele>433.23834</ele>
        <time>2012-10-05T14:19:09Z</time>
      </trkpt>
      <trkpt lat="45.56156" lon="3.23731">
        <ele>432.6515</ele>
        <time>2012-10-05T14:19:13Z</time>
      </trkpt>
      <trkpt lat="45.56136" lon="3.23722">
        <ele>432.2904</ele>
        <time>2012-10-05T14:19:17Z</time>
      </trkpt>
      <trkpt lat="45.56118" lon="3.23714">
        <ele>431.53946</ele>
        <time>2012-10-05T14:19:21Z</time>
      </trkpt>
      <trkpt lat="45.56106" lon="3.23692">
        <ele>432.14755</ele>
        <time>2012-10-05T14:19:25Z</time>
      </trkpt>
      <trkpt lat="45.56108" lon="3.23663">
        <ele>433.06845</ele>
        <time>2012-10-05T14:19:29Z</time>
      </trkpt>
      <trkpt lat="45.5611" lon="3.23633">
        <ele>434.0337</ele>
        <time>2012-10-05T14:19:33Z</time>
      </trkpt>
      <trkpt lat="45.56112" lon="3.23602">
        <ele>434.4746</ele>
        <time>2012-10-05T14:19:37Z</time>
      </trkpt>
      <trkpt lat="45.56115" lon="3.23571">
        <ele>434.98093</ele>
        <time>2012-10-05T14:19:41Z</time>
      </trkpt>
      <trkpt lat="45.56103" lon="3.23549">
        <ele>435.24893</ele>
        <time>2012-10-05T14:19:44Z</time>
      </trkpt>
      <trkpt lat="45.56085" lon="3.23536">
        <ele>435.48743</ele>
        <time>2012-10-05T14:19:50Z</time>
      </trkpt>
      <trkpt lat="45.56066" lon="3.23526">
        <ele>435.9999</ele>
        <time>2012-10-05T14:19:53Z</time>
      </trkpt>
      <trkpt lat="45.56047" lon="3.2352">
        <ele>436.30515</ele>
        <time>2012-10-05T14:19:56Z</time>
      </trkpt>
      <trkpt lat="45.5603" lon="3.23512">
        <ele>435.90582</ele>
        <time>2012-10-05T14:19:58Z</time>
      </trkpt>
      <trkpt lat="45.56011" lon="3.23507">
        <ele>436.00296</ele>
        <time>2012-10-05T14:20:02Z</time>
      </trkpt>
      <trkpt lat="45.55992" lon="3.23502">
        <ele>436.06897</ele>
        <time>2012-10-05T14:20:05Z</time>
      </trkpt>
      <trkpt lat="45.55975" lon="3.23494">
        <ele>436.0593</ele>
        <time>2012-10-05T14:20:08Z</time>
      </trkpt>
      <trkpt lat="45.55955" lon="3.23484">
        <ele>435.46146</ele>
        <time>2012-10-05T14:20:11Z</time>
      </trkpt>
      <trkpt lat="45.55937" lon="3.23476">
        <ele>434.5171</ele>
        <time>2012-10-05T14:20:14Z</time>
      </trkpt>
      <trkpt lat="45.55915" lon="3.23466">
        <ele>433.5233</ele>
        <time>2012-10-05T14:20:18Z</time>
      </trkpt>
      <trkpt lat="45.55893" lon="3.23456">
        <ele>433.99243</ele>
        <time>2012-10-05T14:20:22Z</time>
      </trkpt>
      <trkpt lat="45.55872" lon="3.23447">
        <ele>434.3182</ele>
        <time>2012-10-05T14:20:26Z</time>
      </trkpt>
      <trkpt lat="45.55853" lon="3.2344">
        <ele>435.0486</ele>
        <time>2012-10-05T14:20:30Z</time>
      </trkpt>
      <trkpt lat="45.55833" lon="3.2343">
        <ele>435.8774</ele>
        <time>2012-10-05T14:20:34Z</time>
      </trkpt>
      <trkpt lat="45.55814" lon="3.23416">
        <ele>435.95877</ele>
        <time>2012-10-05T14:20:37Z</time>
      </trkpt>
      <trkpt lat="45.55796" lon="3.23401">
        <ele>436.4681</ele>
        <time>2012-10-05T14:20:42Z</time>
      </trkpt>
      <trkpt lat="45.55777" lon="3.23387">
        <ele>437.20935</ele>
        <time>2012-10-05T14:20:46Z</time>
      </trkpt>
      <trkpt lat="45.55758" lon="3.23371">
        <ele>438.15247</ele>
        <time>2012-10-05T14:20:50Z</time>
      </trkpt>
      <trkpt lat="45.55743" lon="3.23358">
        <ele>437.91327</ele>
        <time>2012-10-05T14:20:53Z</time>
      </trkpt>
      <trkpt lat="45.55725" lon="3.23342">
        <ele>436.61896</ele>
        <time>2012-10-05T14:20:56Z</time>
      </trkpt>
      <trkpt lat="45.55706" lon="3.23323">
        <ele>435.43402</ele>
        <time>2012-10-05T14:21:01Z</time>
      </trkpt>
      <trkpt lat="45.55692" lon="3.23304">
        <ele>434.4508</ele>
        <time>2012-10-05T14:21:03Z</time>
      </trkpt>
      <trkpt lat="45.55673" lon="3.2329">
        <ele>434.22693</ele>
        <time>2012-10-05T14:21:07Z</time>
      </trkpt>
      <trkpt lat="45.5565" lon="3.23283">
        <ele>434.426</ele>
        <time>2012-10-05T14:21:12Z</time>
      </trkpt>
      <trkpt lat="45.55628" lon="3.23269">
        <ele>434.25967</ele>
        <time>2012-10-05T14:21:16Z</time>
      </trkpt>
      <trkpt lat="45.55608" lon="3.23254">
        <ele>433.51996</ele>
        <time>2012-10-05T14:21:20Z</time>
      </trkpt>
      <trkpt lat="45.55589" lon="3.23246">
        <ele>432.63394</ele>
        <time>2012-10-05T14:21:23Z</time>
      </trkpt>
      <trkpt lat="45.55567" lon="3.23238">
        <ele>432.92432</ele>
        <time>2012-10-05T14:21:26Z</time>
      </trkpt>
      <trkpt lat="45.55548" lon="3.2323">
        <ele>432.8639</ele>
        <time>2012-10-05T14:21:30Z</time>
      </trkpt>
      <trkpt lat="45.55526" lon="3.23221">
        <ele>431.8634</ele>
        <time>2012-10-05T14:21:33Z</time>
      </trkpt>
      <trkpt lat="45.55505" lon="3.23212">
        <ele>430.7882</ele>
        <time>2012-10-05T14:21:36Z</time>
      </trkpt>
      <trkpt lat="45.55482" lon="3.23215">
        <ele>430.22678</ele>
        <time>2012-10-05T14:21:39Z</time>
      </trkpt>
      <trkpt lat="45.55464" lon="3.23236">
        <ele>430.01495</ele>
        <time>2012-10-05T14:21:42Z</time>
      </trkpt>
      <trkpt lat="45.55448" lon="3.23256">
        <ele>429.82715</ele>
        <time>2012-10-05T14:21:45Z</time>
      </trkpt>
      <trkpt lat="45.55431" lon="3.23277">
        <ele>429.83228</ele>
        <time>2012-10-05T14:21:48Z</time>
      </trkpt>
      <trkpt lat="45.55417" lon="3.233">
        <ele>429.13602</ele>
        <time>2012-10-05T14:21:51Z</time>
      </trkpt>
      <trkpt lat="45.55397" lon="3.2331">
        <ele>429.22665</ele>
        <time>2012-10-05T14:21:54Z</time>
      </trkpt>
      <trkpt lat="45.55378" lon="3.2331">
        <ele>429.90707</ele>
        <time>2012-10-05T14:21:57Z</time>
      </trkpt>
      <trkpt lat="45.55355" lon="3.23307">
        <ele>430.5791</ele>
        <time>2012-10-05T14:22:01Z</time>
      </trkpt>
      <trkpt lat="45.55334" lon="3.23306">
        <ele>430.54953</ele>
        <time>2012-10-05T14:22:05Z</time>
      </trkpt>
      <trkpt lat="45.55313" lon="3.23304">
        <ele>431.2898</ele>
        <time>2012-10-05T14:22:09Z</time>
      </trkpt>
      <trkpt lat="45.55291" lon="3.233">
        <ele>432.42636</ele>
        <time>2012-10-05T14:22:13Z</time>
      </trkpt>
      <trkpt lat="45.55272" lon="3.23297">
        <ele>433.3012</ele>
        <time>2012-10-05T14:22:17Z</time>
      </trkpt>
      <trkpt lat="45.55251" lon="3.23296">
        <ele>434.59464</ele>
        <time>2012-10-05T14:22:22Z</time>
      </trkpt>
      <trkpt lat="45.55231" lon="3.23297">
        <ele>435.17004</ele>
        <time>2012-10-05T14:22:27Z</time>
      </trkpt>
      <trkpt lat="45.55219" lon="3.23319">
        <ele>434.59882</ele>
        <time>2012-10-05T14:22:30Z</time>
      </trkpt>
      <trkpt lat="45.5521" lon="3.2335">
        <ele>433.3097</ele>
        <time>2012-10-05T14:22:34Z</time>
      </trkpt>
      <trkpt lat="45.55203" lon="3.23374">
        <ele>432.6921</ele>
        <time>2012-10-05T14:22:37Z</time>
      </trkpt>
      <trkpt lat="45.55194" lon="3.23399">
        <ele>431.71124</ele>
        <time>2012-10-05T14:22:40Z</time>
      </trkpt>
      <trkpt lat="45.55186" lon="3.23425">
        <ele>430.4709</ele>
        <time>2012-10-05T14:22:43Z</time>
      </trkpt>
      <trkpt lat="45.55175" lon="3.23446">
        <ele>430.09604</ele>
        <time>2012-10-05T14:22:46Z</time>
      </trkpt>
      <trkpt lat="45.55156" lon="3.23447">
        <ele>429.7561</ele>
        <time>2012-10-05T14:22:51Z</time>
      </trkpt>
      <trkpt lat="45.55135" lon="3.23445">
        <ele>429.87866</ele>
        <time>2012-10-05T14:22:56Z</time>
      </trkpt>
      <trkpt lat="45.55113" lon="3.23445">
        <ele>429.51373</ele>
        <time>2012-10-05T14:23:01Z</time>
      </trkpt>
      <trkpt lat="45.55091" lon="3.23445">
        <ele>429.65533</ele>
        <time>2012-10-05T14:23:06Z</time>
      </trkpt>
      <trkpt lat="45.55073" lon="3.23447">
        <ele>428.98108</ele>
        <time>2012-10-05T14:23:10Z</time>
      </trkpt>
      <trkpt lat="45.55054" lon="3.23445">
        <ele>428.91736</ele>
        <time>2012-10-05T14:23:14Z</time>
      </trkpt>
      <trkpt lat="45.55036" lon="3.23449">
        <ele>429.07318</ele>
        <time>2012-10-05T14:23:19Z</time>
      </trkpt>
      <trkpt lat="45.55031" lon="3.23477">
        <ele>427.33298</ele>
        <time>2012-10-05T14:23:27Z</time>
      </trkpt>
      <trkpt lat="45.55024" lon="3.23501">
        <ele>427.11465</ele>
        <time>2012-10-05T14:23:34Z</time>
      </trkpt>
      <trkpt lat="45.55004" lon="3.23501">
        <ele>426.71204</ele>
        <time>2012-10-05T14:23:42Z</time>
      </trkpt>
      <trkpt lat="45.54984" lon="3.23503">
        <ele>422.5954</ele>
        <time>2012-10-05T14:23:49Z</time>
      </trkpt>
      <trkpt lat="45.54964" lon="3.23505">
        <ele>418.1882</ele>
        <time>2012-10-05T14:23:57Z</time>
      </trkpt>
      <trkpt lat="45.54947" lon="3.23518">
        <ele>413.81036</ele>
        <time>2012-10-05T14:24:10Z</time>
      </trkpt>
      <trkpt lat="45.54926" lon="3.23525">
        <ele>411.86478</ele>
        <time>2012-10-05T14:24:19Z</time>
      </trkpt>
      <trkpt lat="45.54906" lon="3.2353">
        <ele>410.5194</ele>
        <time>2012-10-05T14:24:24Z</time>
      </trkpt>
      <trkpt lat="45.54886" lon="3.23534">
        <ele>407.77652</ele>
        <time>2012-10-05T14:24:30Z</time>
      </trkpt>
      <trkpt lat="45.54866" lon="3.23533">
        <ele>405.97256</ele>
        <time>2012-10-05T14:24:34Z</time>
      </trkpt>
      <trkpt lat="45.54843" lon="3.23532">
        <ele>405.21542</ele>
        <time>2012-10-05T14:24:38Z</time>
      </trkpt>
      <trkpt lat="45.54824" lon="3.23534">
        <ele>404.8539</ele>
        <time>2012-10-05T14:24:40Z</time>
      </trkpt>
      <trkpt lat="45.54803" lon="3.23535">
        <ele>404.04984</ele>
        <time>2012-10-05T14:24:43Z</time>
      </trkpt>
      <trkpt lat="45.54783" lon="3.23535">
        <ele>403.22934</ele>
        <time>2012-10-05T14:24:47Z</time>
      </trkpt>
      <trkpt lat="45.54765" lon="3.23532">
        <ele>402.76913</ele>
        <time>2012-10-05T14:24:50Z</time>
      </trkpt>
      <trkpt lat="45.54745" lon="3.2353">
        <ele>401.56857</ele>
        <time>2012-10-05T14:24:55Z</time>
      </trkpt>
      <trkpt lat="45.5475" lon="3.23496">
        <ele>401.449</ele>
        <time>2012-10-05T14:25:01Z</time>
      </trkpt>
      <trkpt lat="45.54752" lon="3.23465">
        <ele>402.88687</ele>
        <time>2012-10-05T14:25:06Z</time>
      </trkpt>
      <trkpt lat="45.54752" lon="3.23439">
        <ele>402.55356</ele>
        <time>2012-10-05T14:25:10Z</time>
      </trkpt>
      <trkpt lat="45.5475" lon="3.23411">
        <ele>404.57172</ele>
        <time>2012-10-05T14:25:15Z</time>
      </trkpt>
      <trkpt lat="45.54748" lon="3.23383">
        <ele>407.14584</ele>
        <time>2012-10-05T14:25:20Z</time>
      </trkpt>
      <trkpt lat="45.54745" lon="3.23353">
        <ele>407.98865</ele>
        <time>2012-10-05T14:25:25Z</time>
      </trkpt>
      <trkpt lat="45.54743" lon="3.23324">
        <ele>408.85934</ele>
        <time>2012-10-05T14:25:30Z</time>
      </trkpt>
      <trkpt lat="45.54743" lon="3.23294">
        <ele>409.10815</ele>
        <time>2012-10-05T14:25:35Z</time>
      </trkpt>
      <trkpt lat="45.54742" lon="3.23267">
        <ele>409.09512</ele>
        <time>2012-10-05T14:25:39Z</time>
      </trkpt>
      <trkpt lat="45.5474" lon="3.23237">
        <ele>408.5264</ele>
        <time>2012-10-05T14:25:45Z</time>
      </trkpt>
      <trkpt lat="45.5474" lon="3.23211">
        <ele>408.48587</ele>
        <time>2012-10-05T14:25:50Z</time>
      </trkpt>
      <trkpt lat="45.54738" lon="3.23182">
        <ele>409.16553</ele>
        <time>2012-10-05T14:25:56Z</time>
      </trkpt>
      <trkpt lat="45.54729" lon="3.23157">
        <ele>410.05835</ele>
        <time>2012-10-05T14:26:02Z</time>
      </trkpt>
      <trkpt lat="45.54709" lon="3.23156">
        <ele>409.50012</ele>
        <time>2012-10-05T14:26:05Z</time>
      </trkpt>
      <trkpt lat="45.54689" lon="3.23154">
        <ele>408.3568</ele>
        <time>2012-10-05T14:26:08Z</time>
      </trkpt>
      <trkpt lat="45.54668" lon="3.2315">
        <ele>407.49637</ele>
        <time>2012-10-05T14:26:11Z</time>
      </trkpt>
      <trkpt lat="45.54648" lon="3.2315">
        <ele>407.45816</ele>
        <time>2012-10-05T14:26:12Z</time>
      </trkpt>
      <trkpt lat="45.54628" lon="3.23149">
        <ele>407.72192</ele>
        <time>2012-10-05T14:26:16Z</time>
      </trkpt>
      <trkpt lat="45.54606" lon="3.23148">
        <ele>408.24472</ele>
        <time>2012-10-05T14:26:20Z</time>
      </trkpt>
      <trkpt lat="45.54598" lon="3.23123">
        <ele>406.9439</ele>
        <time>2012-10-05T14:26:27Z</time>
      </trkpt>
      <trkpt lat="45.54603" lon="3.23095">
        <ele>406.9388</ele>
        <time>2012-10-05T14:26:31Z</time>
      </trkpt>
      <trkpt lat="45.54605" lon="3.23066">
        <ele>406.31412</ele>
        <time>2012-10-05T14:26:35Z</time>
      </trkpt>
      <trkpt lat="45.54605" lon="3.2304">
        <ele>406.46103</ele>
        <time>2012-10-05T14:26:39Z</time>
      </trkpt>
      <trkpt lat="45.5461" lon="3.2301">
        <ele>408.92117</ele>
        <time>2012-10-05T14:26:43Z</time>
      </trkpt>
      <trkpt lat="45.54614" lon="3.2298">
        <ele>411.46167</ele>
        <time>2012-10-05T14:26:47Z</time>
      </trkpt>
      <trkpt lat="45.54614" lon="3.22949">
        <ele>411.63034</ele>
        <time>2012-10-05T14:26:51Z</time>
      </trkpt>
      <trkpt lat="45.54614" lon="3.22918">
        <ele>411.85248</ele>
        <time>2012-10-05T14:26:55Z</time>
      </trkpt>
      <trkpt lat="45.54616" lon="3.22893">
        <ele>411.67734</ele>
        <time>2012-10-05T14:26:58Z</time>
      </trkpt>
      <trkpt lat="45.54614" lon="3.22862">
        <ele>411.4068</ele>
        <time>2012-10-05T14:27:02Z</time>
      </trkpt>
      <trkpt lat="45.54611" lon="3.22831">
        <ele>411.5743</ele>
        <time>2012-10-05T14:27:06Z</time>
      </trkpt>
      <trkpt lat="45.54608" lon="3.228">
        <ele>410.98593</ele>
        <time>2012-10-05T14:27:10Z</time>
      </trkpt>
      <trkpt lat="45.54607" lon="3.2277">
        <ele>411.87708</ele>
        <time>2012-10-05T14:27:14Z</time>
      </trkpt>
      <trkpt lat="45.54604" lon="3.22736">
        <ele>411.1485</ele>
        <time>2012-10-05T14:27:18Z</time>
      </trkpt>
      <trkpt lat="45.54602" lon="3.22703">
        <ele>410.92618</ele>
        <time>2012-10-05T14:27:22Z</time>
      </trkpt>
      <trkpt lat="45.54602" lon="3.22671">
        <ele>410.7457</ele>
        <time>2012-10-05T14:27:26Z</time>
      </trkpt>
      <trkpt lat="45.54602" lon="3.2264">
        <ele>410.3343</ele>
        <time>2012-10-05T14:27:30Z</time>
      </trkpt>
      <trkpt lat="45.54605" lon="3.22608">
        <ele>410.1451</ele>
        <time>2012-10-05T14:27:34Z</time>
      </trkpt>
      <trkpt lat="45.54609" lon="3.22576">
        <ele>410.40247</ele>
        <time>2012-10-05T14:27:37Z</time>
      </trkpt>
      <trkpt lat="45.54612" lon="3.22549">
        <ele>410.59012</ele>
        <time>2012-10-05T14:27:42Z</time>
      </trkpt>
      <trkpt lat="45.54615" lon="3.22517">
        <ele>410.36163</ele>
        <time>2012-10-05T14:27:46Z</time>
      </trkpt>
      <trkpt lat="45.54618" lon="3.22487">
        <ele>410.92606</ele>
        <time>2012-10-05T14:27:50Z</time>
      </trkpt>
      <trkpt lat="45.54619" lon="3.22456">
        <ele>411.3317</ele>
        <time>2012-10-05T14:27:55Z</time>
      </trkpt>
      <trkpt lat="45.54624" lon="3.22426">
        <ele>411.17087</ele>
        <time>2012-10-05T14:27:59Z</time>
      </trkpt>
      <trkpt lat="45.54625" lon="3.22399">
        <ele>411.83444</ele>
        <time>2012-10-05T14:28:03Z</time>
      </trkpt>
      <trkpt lat="45.54613" lon="3.22373">
        <ele>410.54126</ele>
        <time>2012-10-05T14:28:07Z</time>
      </trkpt>
      <trkpt lat="45.54603" lon="3.22344">
        <ele>407.72818</ele>
        <time>2012-10-05T14:28:11Z</time>
      </trkpt>
      <trkpt lat="45.54591" lon="3.22318">
        <ele>406.96</ele>
        <time>2012-10-05T14:28:15Z</time>
      </trkpt>
      <trkpt lat="45.54581" lon="3.22291">
        <ele>407.50677</ele>
        <time>2012-10-05T14:28:19Z</time>
      </trkpt>
      <trkpt lat="45.54575" lon="3.22262">
        <ele>407.84424</ele>
        <time>2012-10-05T14:28:23Z</time>
      </trkpt>
      <trkpt lat="45.5457" lon="3.22235">
        <ele>408.94202</ele>
        <time>2012-10-05T14:28:27Z</time>
      </trkpt>
      <trkpt lat="45.54566" lon="3.22204">
        <ele>411.59756</ele>
        <time>2012-10-05T14:28:31Z</time>
      </trkpt>
      <trkpt lat="45.54561" lon="3.22176">
        <ele>414.01282</ele>
        <time>2012-10-05T14:28:35Z</time>
      </trkpt>
      <trkpt lat="45.54558" lon="3.22146">
        <ele>415.35785</ele>
        <time>2012-10-05T14:28:40Z</time>
      </trkpt>
      <trkpt lat="45.54539" lon="3.22137">
        <ele>414.24832</ele>
        <time>2012-10-05T14:28:45Z</time>
      </trkpt>
      <trkpt lat="45.54516" lon="3.22138">
        <ele>412.80945</ele>
        <time>2012-10-05T14:28:50Z</time>
      </trkpt>
      <trkpt lat="45.54498" lon="3.22134">
        <ele>411.7595</ele>
        <time>2012-10-05T14:28:55Z</time>
      </trkpt>
      <trkpt lat="45.54478" lon="3.22131">
        <ele>411.28006</ele>
        <time>2012-10-05T14:28:59Z</time>
      </trkpt>
      <trkpt lat="45.54458" lon="3.22128">
        <ele>411.60532</ele>
        <time>2012-10-05T14:29:03Z</time>
      </trkpt>
      <trkpt lat="45.54436" lon="3.22126">
        <ele>411.6305</ele>
        <time>2012-10-05T14:29:07Z</time>
      </trkpt>
      <trkpt lat="45.54417" lon="3.2212">
        <ele>411.95172</ele>
        <time>2012-10-05T14:29:11Z</time>
      </trkpt>
      <trkpt lat="45.54397" lon="3.22117">
        <ele>410.18384</ele>
        <time>2012-10-05T14:29:15Z</time>
      </trkpt>
      <trkpt lat="45.54377" lon="3.2212">
        <ele>409.41504</ele>
        <time>2012-10-05T14:29:20Z</time>
      </trkpt>
      <trkpt lat="45.54397" lon="3.22122">
        <ele>407.88406</ele>
        <time>2012-10-05T14:29:34Z</time>
      </trkpt>
      <trkpt lat="45.54419" lon="3.2213">
        <ele>408.42017</ele>
        <time>2012-10-05T14:29:39Z</time>
      </trkpt>
      <trkpt lat="45.54438" lon="3.22135">
        <ele>408.5352</ele>
        <time>2012-10-05T14:29:43Z</time>
      </trkpt>
      <trkpt lat="45.54457" lon="3.22137">
        <ele>408.64462</ele>
        <time>2012-10-05T14:29:47Z</time>
      </trkpt>
      <trkpt lat="45.54478" lon="3.22139">
        <ele>409.20642</ele>
        <time>2012-10-05T14:29:52Z</time>
      </trkpt>
      <trkpt lat="45.54496" lon="3.22147">
        <ele>409.92184</ele>
        <time>2012-10-05T14:29:56Z</time>
      </trkpt>
      <trkpt lat="45.54512" lon="3.22161">
        <ele>410.84204</ele>
        <time>2012-10-05T14:30:02Z</time>
      </trkpt>
      <trkpt lat="45.54517" lon="3.2219">
        <ele>409.49905</ele>
        <time>2012-10-05T14:30:07Z</time>
      </trkpt>
      <trkpt lat="45.54521" lon="3.22218">
        <ele>408.9289</ele>
        <time>2012-10-05T14:30:11Z</time>
      </trkpt>
      <trkpt lat="45.54525" lon="3.22246">
        <ele>408.78055</ele>
        <time>2012-10-05T14:30:15Z</time>
      </trkpt>
      <trkpt lat="45.54527" lon="3.22272">
        <ele>407.92044</ele>
        <time>2012-10-05T14:30:18Z</time>
      </trkpt>
      <trkpt lat="45.54529" lon="3.22303">
        <ele>407.77393</ele>
        <time>2012-10-05T14:30:22Z</time>
      </trkpt>
      <trkpt lat="45.54508" lon="3.22308">
        <ele>407.66434</ele>
        <time>2012-10-05T14:30:27Z</time>
      </trkpt>
      <trkpt lat="45.54487" lon="3.2231">
        <ele>407.42926</ele>
        <time>2012-10-05T14:30:31Z</time>
      </trkpt>
      <trkpt lat="45.54465" lon="3.22309">
        <ele>406.15424</ele>
        <time>2012-10-05T14:30:36Z</time>
      </trkpt>
      <trkpt lat="45.54441" lon="3.22305">
        <ele>406.08035</ele>
        <time>2012-10-05T14:30:40Z</time>
      </trkpt>
      <trkpt lat="45.5442" lon="3.22303">
        <ele>405.88547</ele>
        <time>2012-10-05T14:30:44Z</time>
      </trkpt>
      <trkpt lat="45.54398" lon="3.22299">
        <ele>405.2457</ele>
        <time>2012-10-05T14:30:48Z</time>
      </trkpt>
      <trkpt lat="45.54376" lon="3.22298">
        <ele>404.13547</ele>
        <time>2012-10-05T14:30:52Z</time>
      </trkpt>
      <trkpt lat="45.54356" lon="3.22292">
        <ele>403.2117</ele>
        <time>2012-10-05T14:30:59Z</time>
      </trkpt>
      <trkpt lat="45.54349" lon="3.2232">
        <ele>404.2784</ele>
        <time>2012-10-05T14:31:05Z</time>
      </trkpt>
      <trkpt lat="45.54349" lon="3.22349">
        <ele>403.62003</ele>
        <time>2012-10-05T14:31:09Z</time>
      </trkpt>
      <trkpt lat="45.54347" lon="3.22381">
        <ele>402.40897</ele>
        <time>2012-10-05T14:31:13Z</time>
      </trkpt>
      <trkpt lat="45.54347" lon="3.22415">
        <ele>403.3125</ele>
        <time>2012-10-05T14:31:17Z</time>
      </trkpt>
      <trkpt lat="45.54332" lon="3.22428">
        <ele>404.60074</ele>
        <time>2012-10-05T14:31:21Z</time>
      </trkpt>
      <trkpt lat="45.54313" lon="3.22419">
        <ele>405.23364</ele>
        <time>2012-10-05T14:31:24Z</time>
      </trkpt>
      <trkpt lat="45.54294" lon="3.22417">
        <ele>406.23657</ele>
        <time>2012-10-05T14:31:27Z</time>
      </trkpt>
      <trkpt lat="45.54275" lon="3.22417">
        <ele>407.05502</ele>
        <time>2012-10-05T14:31:30Z</time>
      </trkpt>
      <trkpt lat="45.54255" lon="3.22415">
        <ele>407.25812</ele>
        <time>2012-10-05T14:31:33Z</time>
      </trkpt>
      <trkpt lat="45.54234" lon="3.22416">
        <ele>406.6938</ele>
        <time>2012-10-05T14:31:36Z</time>
      </trkpt>
      <trkpt lat="45.54216" lon="3.22414">
        <ele>406.476</ele>
        <time>2012-10-05T14:31:39Z</time>
      </trkpt>
      <trkpt lat="45.54199" lon="3.22395">
        <ele>406.16888</ele>
        <time>2012-10-05T14:31:43Z</time>
      </trkpt>
      <trkpt lat="45.54194" lon="3.22366">
        <ele>406.10333</ele>
        <time>2012-10-05T14:31:47Z</time>
      </trkpt>
      <trkpt lat="45.5419" lon="3.22336">
        <ele>406.03183</ele>
        <time>2012-10-05T14:31:51Z</time>
      </trkpt>
      <trkpt lat="45.54187" lon="3.22305">
        <ele>405.65958</ele>
        <time>2012-10-05T14:31:55Z</time>
      </trkpt>
      <trkpt lat="45.54181" lon="3.22274">
        <ele>405.03085</ele>
        <time>2012-10-05T14:31:59Z</time>
      </trkpt>
      <trkpt lat="45.54177" lon="3.22243">
        <ele>405.4952</ele>
        <time>2012-10-05T14:32:03Z</time>
      </trkpt>
      <trkpt lat="45.54174" lon="3.2221">
        <ele>406.75504</ele>
        <time>2012-10-05T14:32:07Z</time>
      </trkpt>
      <trkpt lat="45.5417" lon="3.22177">
        <ele>407.12823</ele>
        <time>2012-10-05T14:32:11Z</time>
      </trkpt>
      <trkpt lat="45.54168" lon="3.22146">
        <ele>407.00455</ele>
        <time>2012-10-05T14:32:15Z</time>
      </trkpt>
      <trkpt lat="45.54165" lon="3.22113">
        <ele>406.64157</ele>
        <time>2012-10-05T14:32:19Z</time>
      </trkpt>
      <trkpt lat="45.54162" lon="3.22084">
        <ele>406.6904</ele>
        <time>2012-10-05T14:32:23Z</time>
      </trkpt>
      <trkpt lat="45.54162" lon="3.22051">
        <ele>407.0656</ele>
        <time>2012-10-05T14:32:27Z</time>
      </trkpt>
      <trkpt lat="45.54163" lon="3.22019">
        <ele>408.34018</ele>
        <time>2012-10-05T14:32:31Z</time>
      </trkpt>
      <trkpt lat="45.54165" lon="3.21986">
        <ele>408.94778</ele>
        <time>2012-10-05T14:32:35Z</time>
      </trkpt>
      <trkpt lat="45.54167" lon="3.21957">
        <ele>408.87753</ele>
        <time>2012-10-05T14:32:39Z</time>
      </trkpt>
      <trkpt lat="45.54167" lon="3.21928">
        <ele>408.89554</ele>
        <time>2012-10-05T14:32:43Z</time>
      </trkpt>
      <trkpt lat="45.5417" lon="3.21903">
        <ele>409.02206</ele>
        <time>2012-10-05T14:32:46Z</time>
      </trkpt>
      <trkpt lat="45.5417" lon="3.21873">
        <ele>409.46664</ele>
        <time>2012-10-05T14:32:50Z</time>
      </trkpt>
      <trkpt lat="45.54172" lon="3.21842">
        <ele>409.99637</ele>
        <time>2012-10-05T14:32:54Z</time>
      </trkpt>
      <trkpt lat="45.54173" lon="3.2181">
        <ele>409.99017</ele>
        <time>2012-10-05T14:32:58Z</time>
      </trkpt>
      <trkpt lat="45.54176" lon="3.21779">
        <ele>410.17764</ele>
        <time>2012-10-05T14:33:02Z</time>
      </trkpt>
      <trkpt lat="45.54177" lon="3.21747">
        <ele>410.79868</ele>
        <time>2012-10-05T14:33:06Z</time>
      </trkpt>
      <trkpt lat="45.5418" lon="3.21715">
        <ele>411.52252</ele>
        <time>2012-10-05T14:33:10Z</time>
      </trkpt>
      <trkpt lat="45.5418" lon="3.21683">
        <ele>411.9586</ele>
        <time>2012-10-05T14:33:14Z</time>
      </trkpt>
      <trkpt lat="45.54179" lon="3.21653">
        <ele>413.27234</ele>
        <time>2012-10-05T14:33:18Z</time>
      </trkpt>
      <trkpt lat="45.54178" lon="3.2162">
        <ele>414.5232</ele>
        <time>2012-10-05T14:33:22Z</time>
      </trkpt>
      <trkpt lat="45.54175" lon="3.21589">
        <ele>415.08655</ele>
        <time>2012-10-05T14:33:26Z</time>
      </trkpt>
      <trkpt lat="45.54175" lon="3.21558">
        <ele>414.8855</ele>
        <time>2012-10-05T14:33:30Z</time>
      </trkpt>
      <trkpt lat="45.5418" lon="3.21533">
        <ele>415.24753</ele>
        <time>2012-10-05T14:33:33Z</time>
      </trkpt>
      <trkpt lat="45.54184" lon="3.21501">
        <ele>415.88016</ele>
        <time>2012-10-05T14:33:37Z</time>
      </trkpt>
      <trkpt lat="45.54192" lon="3.21477">
        <ele>415.67184</ele>
        <time>2012-10-05T14:33:40Z</time>
      </trkpt>
      <trkpt lat="45.54201" lon="3.21448">
        <ele>415.7613</ele>
        <time>2012-10-05T14:33:44Z</time>
      </trkpt>
      <trkpt lat="45.54205" lon="3.21421">
        <ele>416.04626</ele>
        <time>2012-10-05T14:33:48Z</time>
      </trkpt>
      <trkpt lat="45.54211" lon="3.21394">
        <ele>416.51688</ele>
        <time>2012-10-05T14:33:52Z</time>
      </trkpt>
      <trkpt lat="45.54215" lon="3.21366">
        <ele>417.20328</ele>
        <time>2012-10-05T14:33:56Z</time>
      </trkpt>
      <trkpt lat="45.54221" lon="3.21337">
        <ele>417.8822</ele>
        <time>2012-10-05T14:34:00Z</time>
      </trkpt>
      <trkpt lat="45.54224" lon="3.2131">
        <ele>418.39154</ele>
        <time>2012-10-05T14:34:03Z</time>
      </trkpt>
      <trkpt lat="45.54229" lon="3.21277">
        <ele>418.5476</ele>
        <time>2012-10-05T14:34:08Z</time>
      </trkpt>
      <trkpt lat="45.54231" lon="3.21245">
        <ele>419.10638</ele>
        <time>2012-10-05T14:34:12Z</time>
      </trkpt>
      <trkpt lat="45.54234" lon="3.21213">
        <ele>420.2953</ele>
        <time>2012-10-05T14:34:15Z</time>
      </trkpt>
      <trkpt lat="45.54238" lon="3.21183">
        <ele>420.70544</ele>
        <time>2012-10-05T14:34:20Z</time>
      </trkpt>
      <trkpt lat="45.54242" lon="3.21154">
        <ele>420.9524</ele>
        <time>2012-10-05T14:34:24Z</time>
      </trkpt>
      <trkpt lat="45.54245" lon="3.21124">
        <ele>420.52313</ele>
        <time>2012-10-05T14:34:28Z</time>
      </trkpt>
      <trkpt lat="45.54252" lon="3.21095">
        <ele>419.71268</ele>
        <time>2012-10-05T14:34:32Z</time>
      </trkpt>
      <trkpt lat="45.54263" lon="3.21067">
        <ele>419.73282</ele>
        <time>2012-10-05T14:34:36Z</time>
      </trkpt>
      <trkpt lat="45.54273" lon="3.21039">
        <ele>417.84933</ele>
        <time>2012-10-05T14:34:40Z</time>
      </trkpt>
      <trkpt lat="45.54286" lon="3.21014">
        <ele>417.19638</ele>
        <time>2012-10-05T14:34:44Z</time>
      </trkpt>
      <trkpt lat="45.54298" lon="3.20994">
        <ele>417.51462</ele>
        <time>2012-10-05T14:34:47Z</time>
      </trkpt>
      <trkpt lat="45.5431" lon="3.20968">
        <ele>418.87094</ele>
        <time>2012-10-05T14:34:51Z</time>
      </trkpt>
      <trkpt lat="45.54317" lon="3.20942">
        <ele>419.33017</ele>
        <time>2012-10-05T14:34:55Z</time>
      </trkpt>
      <trkpt lat="45.54335" lon="3.20933">
        <ele>418.29575</ele>
        <time>2012-10-05T14:35:00Z</time>
      </trkpt>
      <trkpt lat="45.5435" lon="3.20917">
        <ele>417.81555</ele>
        <time>2012-10-05T14:35:07Z</time>
      </trkpt>
      <trkpt lat="45.54354" lon="3.20887">
        <ele>417.62305</ele>
        <time>2012-10-05T14:35:12Z</time>
      </trkpt>
      <trkpt lat="45.54355" lon="3.20855">
        <ele>418.55954</ele>
        <time>2012-10-05T14:35:16Z</time>
      </trkpt>
      <trkpt lat="45.54355" lon="3.20822">
        <ele>420.86755</ele>
        <time>2012-10-05T14:35:20Z</time>
      </trkpt>
      <trkpt lat="45.54356" lon="3.20792">
        <ele>422.56308</ele>
        <time>2012-10-05T14:35:24Z</time>
      </trkpt>
      <trkpt lat="45.54357" lon="3.2076">
        <ele>422.94916</ele>
        <time>2012-10-05T14:35:28Z</time>
      </trkpt>
      <trkpt lat="45.54358" lon="3.2073">
        <ele>422.7842</ele>
        <time>2012-10-05T14:35:32Z</time>
      </trkpt>
      <trkpt lat="45.54365" lon="3.20697">
        <ele>422.94452</ele>
        <time>2012-10-05T14:35:36Z</time>
      </trkpt>
      <trkpt lat="45.5437" lon="3.20667">
        <ele>424.33353</ele>
        <time>2012-10-05T14:35:40Z</time>
      </trkpt>
      <trkpt lat="45.54376" lon="3.20639">
        <ele>425.38785</ele>
        <time>2012-10-05T14:35:44Z</time>
      </trkpt>
      <trkpt lat="45.54382" lon="3.20611">
        <ele>425.75974</ele>
        <time>2012-10-05T14:35:48Z</time>
      </trkpt>
      <trkpt lat="45.5439" lon="3.20585">
        <ele>426.41635</ele>
        <time>2012-10-05T14:35:51Z</time>
      </trkpt>
      <trkpt lat="45.54391" lon="3.20559">
        <ele>426.6168</ele>
        <time>2012-10-05T14:35:54Z</time>
      </trkpt>
      <trkpt lat="45.54398" lon="3.2053">
        <ele>426.60324</ele>
        <time>2012-10-05T14:35:58Z</time>
      </trkpt>
      <trkpt lat="45.54402" lon="3.20501">
        <ele>429.02164</ele>
        <time>2012-10-05T14:36:02Z</time>
      </trkpt>
      <trkpt lat="45.544" lon="3.20472">
        <ele>430.05026</ele>
        <time>2012-10-05T14:36:05Z</time>
      </trkpt>
      <trkpt lat="45.54398" lon="3.20447">
        <ele>429.92798</ele>
        <time>2012-10-05T14:36:08Z</time>
      </trkpt>
      <trkpt lat="45.54397" lon="3.20421">
        <ele>429.5467</ele>
        <time>2012-10-05T14:36:11Z</time>
      </trkpt>
      <trkpt lat="45.54396" lon="3.20394">
        <ele>429.88898</ele>
        <time>2012-10-05T14:36:14Z</time>
      </trkpt>
      <trkpt lat="45.54396" lon="3.20364">
        <ele>430.22726</ele>
        <time>2012-10-05T14:36:18Z</time>
      </trkpt>
      <trkpt lat="45.54395" lon="3.20335">
        <ele>430.13977</ele>
        <time>2012-10-05T14:36:22Z</time>
      </trkpt>
      <trkpt lat="45.54403" lon="3.20304">
        <ele>429.61133</ele>
        <time>2012-10-05T14:36:26Z</time>
      </trkpt>
      <trkpt lat="45.54416" lon="3.2028">
        <ele>428.42575</ele>
        <time>2012-10-05T14:36:30Z</time>
      </trkpt>
      <trkpt lat="45.54427" lon="3.20258">
        <ele>427.42056</ele>
        <time>2012-10-05T14:36:34Z</time>
      </trkpt>
      <trkpt lat="45.54434" lon="3.20227">
        <ele>426.10602</ele>
        <time>2012-10-05T14:36:38Z</time>
      </trkpt>
      <trkpt lat="45.54438" lon="3.20199">
        <ele>425.32953</ele>
        <time>2012-10-05T14:36:41Z</time>
      </trkpt>
      <trkpt lat="45.54442" lon="3.20171">
        <ele>426.74014</ele>
        <time>2012-10-05T14:36:47Z</time>
      </trkpt>
      <trkpt lat="45.54427" lon="3.20153">
        <ele>428.04385</ele>
        <time>2012-10-05T14:36:51Z</time>
      </trkpt>
      <trkpt lat="45.54406" lon="3.20143">
        <ele>425.75558</ele>
        <time>2012-10-05T14:36:55Z</time>
      </trkpt>
      <trkpt lat="45.54388" lon="3.20134">
        <ele>424.2974</ele>
        <time>2012-10-05T14:36:58Z</time>
      </trkpt>
      <trkpt lat="45.54369" lon="3.20125">
        <ele>423.26505</ele>
        <time>2012-10-05T14:37:01Z</time>
      </trkpt>
      <trkpt lat="45.54355" lon="3.20105">
        <ele>423.80765</ele>
        <time>2012-10-05T14:37:03Z</time>
      </trkpt>
      <trkpt lat="45.5434" lon="3.20087">
        <ele>425.407</ele>
        <time>2012-10-05T14:37:07Z</time>
      </trkpt>
      <trkpt lat="45.54328" lon="3.20059">
        <ele>425.94437</ele>
        <time>2012-10-05T14:37:14Z</time>
      </trkpt>
      <trkpt lat="45.54308" lon="3.20038">
        <ele>425.40204</ele>
        <time>2012-10-05T14:37:17Z</time>
      </trkpt>
      <trkpt lat="45.54298" lon="3.20011">
        <ele>423.02478</ele>
        <time>2012-10-05T14:37:21Z</time>
      </trkpt>
      <trkpt lat="45.54301" lon="3.19981">
        <ele>421.47455</ele>
        <time>2012-10-05T14:37:25Z</time>
      </trkpt>
      <trkpt lat="45.54303" lon="3.19951">
        <ele>421.2735</ele>
        <time>2012-10-05T14:37:29Z</time>
      </trkpt>
      <trkpt lat="45.54302" lon="3.19919">
        <ele>422.63293</ele>
        <time>2012-10-05T14:37:33Z</time>
      </trkpt>
      <trkpt lat="45.54303" lon="3.19887">
        <ele>423.01422</ele>
        <time>2012-10-05T14:37:37Z</time>
      </trkpt>
      <trkpt lat="45.543" lon="3.19858">
        <ele>422.9833</ele>
        <time>2012-10-05T14:37:41Z</time>
      </trkpt>
      <trkpt lat="45.54293" lon="3.19828">
        <ele>422.53485</ele>
        <time>2012-10-05T14:37:45Z</time>
      </trkpt>
      <trkpt lat="45.54279" lon="3.19809">
        <ele>422.64334</ele>
        <time>2012-10-05T14:37:48Z</time>
      </trkpt>
      <trkpt lat="45.54263" lon="3.19787">
        <ele>421.9097</ele>
        <time>2012-10-05T14:37:52Z</time>
      </trkpt>
      <trkpt lat="45.54246" lon="3.19771">
        <ele>421.60928</ele>
        <time>2012-10-05T14:37:55Z</time>
      </trkpt>
      <trkpt lat="45.54228" lon="3.19754">
        <ele>421.12198</ele>
        <time>2012-10-05T14:37:59Z</time>
      </trkpt>
      <trkpt lat="45.54212" lon="3.19741">
        <ele>420.67072</ele>
        <time>2012-10-05T14:38:02Z</time>
      </trkpt>
      <trkpt lat="45.54194" lon="3.19725">
        <ele>419.9168</ele>
        <time>2012-10-05T14:38:06Z</time>
      </trkpt>
      <trkpt lat="45.54175" lon="3.19717">
        <ele>419.17154</ele>
        <time>2012-10-05T14:38:14Z</time>
      </trkpt>
      <trkpt lat="45.54159" lon="3.19738">
        <ele>419.1523</ele>
        <time>2012-10-05T14:38:20Z</time>
      </trkpt>
      <trkpt lat="45.54145" lon="3.19765">
        <ele>418.886</ele>
        <time>2012-10-05T14:38:24Z</time>
      </trkpt>
      <trkpt lat="45.54134" lon="3.19786">
        <ele>418.57584</ele>
        <time>2012-10-05T14:38:27Z</time>
      </trkpt>
      <trkpt lat="45.54125" lon="3.19809">
        <ele>418.80597</ele>
        <time>2012-10-05T14:38:30Z</time>
      </trkpt>
      <trkpt lat="45.54116" lon="3.19834">
        <ele>419.49365</ele>
        <time>2012-10-05T14:38:33Z</time>
      </trkpt>
      <trkpt lat="45.54109" lon="3.1986">
        <ele>420.37598</ele>
        <time>2012-10-05T14:38:35Z</time>
      </trkpt>
      <trkpt lat="45.54106" lon="3.1989">
        <ele>420.60443</ele>
        <time>2012-10-05T14:38:39Z</time>
      </trkpt>
      <trkpt lat="45.54099" lon="3.19917">
        <ele>420.8602</ele>
        <time>2012-10-05T14:38:42Z</time>
      </trkpt>
      <trkpt lat="45.54086" lon="3.1994">
        <ele>420.51184</ele>
        <time>2012-10-05T14:38:45Z</time>
      </trkpt>
      <trkpt lat="45.54069" lon="3.19957">
        <ele>420.69458</ele>
        <time>2012-10-05T14:38:48Z</time>
      </trkpt>
      <trkpt lat="45.5405" lon="3.19975">
        <ele>420.28574</ele>
        <time>2012-10-05T14:38:51Z</time>
      </trkpt>
      <trkpt lat="45.54032" lon="3.19989">
        <ele>419.7101</ele>
        <time>2012-10-05T14:38:54Z</time>
      </trkpt>
      <trkpt lat="45.54013" lon="3.20004">
        <ele>419.6298</ele>
        <time>2012-10-05T14:38:57Z</time>
      </trkpt>
      <trkpt lat="45.53995" lon="3.20021">
        <ele>419.43182</ele>
        <time>2012-10-05T14:39:00Z</time>
      </trkpt>
      <trkpt lat="45.53978" lon="3.20037">
        <ele>419.2077</ele>
        <time>2012-10-05T14:39:03Z</time>
      </trkpt>
      <trkpt lat="45.53966" lon="3.20062">
        <ele>418.90845</ele>
        <time>2012-10-05T14:39:06Z</time>
      </trkpt>
      <trkpt lat="45.53954" lon="3.20088">
        <ele>418.55096</ele>
        <time>2012-10-05T14:39:09Z</time>
      </trkpt>
      <trkpt lat="45.53942" lon="3.20114">
        <ele>418.87982</ele>
        <time>2012-10-05T14:39:12Z</time>
      </trkpt>
      <trkpt lat="45.53932" lon="3.20139">
        <ele>419.31387</ele>
        <time>2012-10-05T14:39:15Z</time>
      </trkpt>
      <trkpt lat="45.53922" lon="3.20165">
        <ele>420.56262</ele>
        <time>2012-10-05T14:39:18Z</time>
      </trkpt>
      <trkpt lat="45.53912" lon="3.20191">
        <ele>421.5238</ele>
        <time>2012-10-05T14:39:21Z</time>
      </trkpt>
      <trkpt lat="45.53899" lon="3.20216">
        <ele>422.56995</ele>
        <time>2012-10-05T14:39:24Z</time>
      </trkpt>
      <trkpt lat="45.53888" lon="3.2024">
        <ele>422.78003</ele>
        <time>2012-10-05T14:39:27Z</time>
      </trkpt>
      <trkpt lat="45.53879" lon="3.20267">
        <ele>422.16864</ele>
        <time>2012-10-05T14:39:30Z</time>
      </trkpt>
      <trkpt lat="45.53869" lon="3.20295">
        <ele>421.48572</ele>
        <time>2012-10-05T14:39:33Z</time>
      </trkpt>
      <trkpt lat="45.53861" lon="3.20326">
        <ele>420.84918</ele>
        <time>2012-10-05T14:39:36Z</time>
      </trkpt>
      <trkpt lat="45.5385" lon="3.20355">
        <ele>420.37595</ele>
        <time>2012-10-05T14:39:39Z</time>
      </trkpt>
      <trkpt lat="45.53842" lon="3.20386">
        <ele>419.91382</ele>
        <time>2012-10-05T14:39:42Z</time>
      </trkpt>
      <trkpt lat="45.53834" lon="3.20417">
        <ele>419.49854</ele>
        <time>2012-10-05T14:39:45Z</time>
      </trkpt>
      <trkpt lat="45.53828" lon="3.20448">
        <ele>419.4874</ele>
        <time>2012-10-05T14:39:48Z</time>
      </trkpt>
      <trkpt lat="45.53821" lon="3.2048">
        <ele>419.87177</ele>
        <time>2012-10-05T14:39:51Z</time>
      </trkpt>
      <trkpt lat="45.53815" lon="3.20513">
        <ele>419.6386</ele>
        <time>2012-10-05T14:39:54Z</time>
      </trkpt>
      <trkpt lat="45.53809" lon="3.20543">
        <ele>419.59024</ele>
        <time>2012-10-05T14:39:57Z</time>
      </trkpt>
      <trkpt lat="45.53804" lon="3.20572">
        <ele>419.7136</ele>
        <time>2012-10-05T14:40:00Z</time>
      </trkpt>
      <trkpt lat="45.53797" lon="3.206">
        <ele>420.60156</ele>
        <time>2012-10-05T14:40:03Z</time>
      </trkpt>
      <trkpt lat="45.5379" lon="3.20629">
        <ele>421.08398</ele>
        <time>2012-10-05T14:40:06Z</time>
      </trkpt>
      <trkpt lat="45.53783" lon="3.20657">
        <ele>421.8828</ele>
        <time>2012-10-05T14:40:09Z</time>
      </trkpt>
      <trkpt lat="45.53772" lon="3.20682">
        <ele>422.88077</ele>
        <time>2012-10-05T14:40:12Z</time>
      </trkpt>
      <trkpt lat="45.5376" lon="3.20704">
        <ele>424.20178</ele>
        <time>2012-10-05T14:40:15Z</time>
      </trkpt>
      <trkpt lat="45.53748" lon="3.20725">
        <ele>425.0247</ele>
        <time>2012-10-05T14:40:18Z</time>
      </trkpt>
      <trkpt lat="45.53736" lon="3.20748">
        <ele>424.6203</ele>
        <time>2012-10-05T14:40:21Z</time>
      </trkpt>
      <trkpt lat="45.53723" lon="3.20773">
        <ele>424.02313</ele>
        <time>2012-10-05T14:40:24Z</time>
      </trkpt>
      <trkpt lat="45.53712" lon="3.20799">
        <ele>423.68997</ele>
        <time>2012-10-05T14:40:27Z</time>
      </trkpt>
      <trkpt lat="45.537" lon="3.20824">
        <ele>423.24005</ele>
        <time>2012-10-05T14:40:30Z</time>
      </trkpt>
      <trkpt lat="45.53687" lon="3.2085">
        <ele>423.19553</ele>
        <time>2012-10-05T14:40:33Z</time>
      </trkpt>
      <trkpt lat="45.53674" lon="3.20874">
        <ele>423.08456</ele>
        <time>2012-10-05T14:40:36Z</time>
      </trkpt>
      <trkpt lat="45.53661" lon="3.20901">
        <ele>423.294</ele>
        <time>2012-10-05T14:40:39Z</time>
      </trkpt>
      <trkpt lat="45.53647" lon="3.20928">
        <ele>423.0339</ele>
        <time>2012-10-05T14:40:42Z</time>
      </trkpt>
      <trkpt lat="45.53634" lon="3.20953">
        <ele>423.08514</ele>
        <time>2012-10-05T14:40:45Z</time>
      </trkpt>
      <trkpt lat="45.53622" lon="3.20978">
        <ele>422.74268</ele>
        <time>2012-10-05T14:40:48Z</time>
      </trkpt>
      <trkpt lat="45.53612" lon="3.21004">
        <ele>422.79822</ele>
        <time>2012-10-05T14:40:51Z</time>
      </trkpt>
      <trkpt lat="45.53604" lon="3.21029">
        <ele>422.79196</ele>
        <time>2012-10-05T14:40:54Z</time>
      </trkpt>
      <trkpt lat="45.53593" lon="3.21055">
        <ele>422.92276</ele>
        <time>2012-10-05T14:40:58Z</time>
      </trkpt>
      <trkpt lat="45.53583" lon="3.21079">
        <ele>422.9997</ele>
        <time>2012-10-05T14:41:02Z</time>
      </trkpt>
      <trkpt lat="45.53573" lon="3.21105">
        <ele>422.83246</ele>
        <time>2012-10-05T14:41:07Z</time>
      </trkpt>
      <trkpt lat="45.53565" lon="3.21131">
        <ele>422.18713</ele>
        <time>2012-10-05T14:41:11Z</time>
      </trkpt>
      <trkpt lat="45.53556" lon="3.21158">
        <ele>421.3962</ele>
        <time>2012-10-05T14:41:14Z</time>
      </trkpt>
      <trkpt lat="45.53552" lon="3.21186">
        <ele>421.012</ele>
        <time>2012-10-05T14:41:18Z</time>
      </trkpt>
      <trkpt lat="45.5355" lon="3.21217">
        <ele>420.49902</ele>
        <time>2012-10-05T14:41:23Z</time>
      </trkpt>
      <trkpt lat="45.53551" lon="3.21248">
        <ele>420.12772</ele>
        <time>2012-10-05T14:41:27Z</time>
      </trkpt>
      <trkpt lat="45.53553" lon="3.21277">
        <ele>420.0981</ele>
        <time>2012-10-05T14:41:31Z</time>
      </trkpt>
      <trkpt lat="45.53551" lon="3.21306">
        <ele>420.46375</ele>
        <time>2012-10-05T14:41:35Z</time>
      </trkpt>
      <trkpt lat="45.53554" lon="3.21331">
        <ele>422.7306</ele>
        <time>2012-10-05T14:41:43Z</time>
      </trkpt>
      <trkpt lat="45.5356" lon="3.21359">
        <ele>424.5045</ele>
        <time>2012-10-05T14:42:30Z</time>
      </trkpt>
      <trkpt lat="45.53561" lon="3.21385">
        <ele>425.2767</ele>
        <time>2012-10-05T14:42:34Z</time>
      </trkpt>
      <trkpt lat="45.53561" lon="3.21412">
        <ele>424.79214</ele>
        <time>2012-10-05T14:42:39Z</time>
      </trkpt>
      <trkpt lat="45.53547" lon="3.21432">
        <ele>425.52463</ele>
        <time>2012-10-05T14:42:44Z</time>
      </trkpt>
      <trkpt lat="45.53532" lon="3.21446">
        <ele>427.61996</ele>
        <time>2012-10-05T14:42:54Z</time>
      </trkpt>
      <trkpt lat="45.53514" lon="3.21457">
        <ele>427.74448</ele>
        <time>2012-10-05T14:43:02Z</time>
      </trkpt>
      <trkpt lat="45.53495" lon="3.21463">
        <ele>427.33652</ele>
        <time>2012-10-05T14:43:08Z</time>
      </trkpt>
      <trkpt lat="45.53479" lon="3.21478">
        <ele>428.3963</ele>
        <time>2012-10-05T14:43:15Z</time>
      </trkpt>
      <trkpt lat="45.53461" lon="3.21489">
        <ele>428.36435</ele>
        <time>2012-10-05T14:43:20Z</time>
      </trkpt>
      <trkpt lat="45.53445" lon="3.21504">
        <ele>427.5872</ele>
        <time>2012-10-05T14:43:26Z</time>
      </trkpt>
      <trkpt lat="45.53434" lon="3.21528">
        <ele>432.3118</ele>
        <time>2012-10-05T14:43:34Z</time>
      </trkpt>
      <trkpt lat="45.53437" lon="3.21556">
        <ele>434.78766</ele>
        <time>2012-10-05T14:43:41Z</time>
      </trkpt>
      <trkpt lat="45.53442" lon="3.21583">
        <ele>434.77075</ele>
        <time>2012-10-05T14:43:50Z</time>
      </trkpt>
      <trkpt lat="45.53446" lon="3.2161">
        <ele>438.82162</ele>
        <time>2012-10-05T14:43:59Z</time>
      </trkpt>
      <trkpt lat="45.53452" lon="3.21635">
        <ele>440.29523</ele>
        <time>2012-10-05T14:44:06Z</time>
      </trkpt>
      <trkpt lat="45.53457" lon="3.21663">
        <ele>441.17572</ele>
        <time>2012-10-05T14:44:13Z</time>
      </trkpt>
      <trkpt lat="45.5345" lon="3.21689">
        <ele>443.54028</ele>
        <time>2012-10-05T14:44:20Z</time>
      </trkpt>
      <trkpt lat="45.53434" lon="3.21679">
        <ele>446.3242</ele>
        <time>2012-10-05T14:44:27Z</time>
      </trkpt>
      <trkpt lat="45.53417" lon="3.21665">
        <ele>447.62848</ele>
        <time>2012-10-05T14:44:34Z</time>
      </trkpt>
      <trkpt lat="45.53398" lon="3.21654">
        <ele>449.77444</ele>
        <time>2012-10-05T14:44:41Z</time>
      </trkpt>
      <trkpt lat="45.53378" lon="3.21648">
        <ele>452.51675</ele>
        <time>2012-10-05T14:44:48Z</time>
      </trkpt>
      <trkpt lat="45.5336" lon="3.21648">
        <ele>453.9551</ele>
        <time>2012-10-05T14:44:55Z</time>
      </trkpt>
      <trkpt lat="45.53339" lon="3.21649">
        <ele>454.93866</ele>
        <time>2012-10-05T14:45:02Z</time>
      </trkpt>
      <trkpt lat="45.53321" lon="3.21653">
        <ele>455.42563</ele>
        <time>2012-10-05T14:45:08Z</time>
      </trkpt>
      <trkpt lat="45.53301" lon="3.2166">
        <ele>456.2992</ele>
        <time>2012-10-05T14:45:15Z</time>
      </trkpt>
      <trkpt lat="45.53282" lon="3.2167">
        <ele>457.2663</ele>
        <time>2012-10-05T14:45:22Z</time>
      </trkpt>
      <trkpt lat="45.53264" lon="3.21683">
        <ele>458.38712</ele>
        <time>2012-10-05T14:45:29Z</time>
      </trkpt>
      <trkpt lat="45.53247" lon="3.21701">
        <ele>460.0492</ele>
        <time>2012-10-05T14:45:36Z</time>
      </trkpt>
      <trkpt lat="45.53233" lon="3.2172">
        <ele>461.24335</ele>
        <time>2012-10-05T14:45:43Z</time>
      </trkpt>
      <trkpt lat="45.53221" lon="3.21744">
        <ele>462.3155</ele>
        <time>2012-10-05T14:45:50Z</time>
      </trkpt>
      <trkpt lat="45.5321" lon="3.21769">
        <ele>463.94232</ele>
        <time>2012-10-05T14:45:57Z</time>
      </trkpt>
      <trkpt lat="45.53199" lon="3.21791">
        <ele>466.6016</ele>
        <time>2012-10-05T14:46:03Z</time>
      </trkpt>
      <trkpt lat="45.5318" lon="3.218">
        <ele>467.43848</ele>
        <time>2012-10-05T14:46:09Z</time>
      </trkpt>
      <trkpt lat="45.53161" lon="3.21803">
        <ele>467.8161</ele>
        <time>2012-10-05T14:46:14Z</time>
      </trkpt>
      <trkpt lat="45.53141" lon="3.21802">
        <ele>467.14563</ele>
        <time>2012-10-05T14:46:19Z</time>
      </trkpt>
      <trkpt lat="45.53119" lon="3.21804">
        <ele>466.9593</ele>
        <time>2012-10-05T14:46:24Z</time>
      </trkpt>
      <trkpt lat="45.53097" lon="3.21807">
        <ele>466.91284</ele>
        <time>2012-10-05T14:46:29Z</time>
      </trkpt>
      <trkpt lat="45.53078" lon="3.21806">
        <ele>467.28207</ele>
        <time>2012-10-05T14:46:33Z</time>
      </trkpt>
      <trkpt lat="45.5306" lon="3.21808">
        <ele>466.61688</ele>
        <time>2012-10-05T14:46:37Z</time>
      </trkpt>
      <trkpt lat="45.53041" lon="3.2181">
        <ele>465.7404</ele>
        <time>2012-10-05T14:46:41Z</time>
      </trkpt>
      <trkpt lat="45.53021" lon="3.2181">
        <ele>466.3912</ele>
        <time>2012-10-05T14:46:45Z</time>
      </trkpt>
      <trkpt lat="45.53001" lon="3.21811">
        <ele>466.97604</ele>
        <time>2012-10-05T14:46:49Z</time>
      </trkpt>
      <trkpt lat="45.5298" lon="3.21813">
        <ele>468.5189</ele>
        <time>2012-10-05T14:46:53Z</time>
      </trkpt>
      <trkpt lat="45.52961" lon="3.21813">
        <ele>470.5754</ele>
        <time>2012-10-05T14:46:57Z</time>
      </trkpt>
      <trkpt lat="45.52942" lon="3.21813">
        <ele>472.08667</ele>
        <time>2012-10-05T14:47:01Z</time>
      </trkpt>
      <trkpt lat="45.5292" lon="3.21813">
        <ele>473.27344</ele>
        <time>2012-10-05T14:47:06Z</time>
      </trkpt>
      <trkpt lat="45.52901" lon="3.21814">
        <ele>474.43604</ele>
        <time>2012-10-05T14:47:10Z</time>
      </trkpt>
      <trkpt lat="45.5288" lon="3.21816">
        <ele>475.2949</ele>
        <time>2012-10-05T14:47:14Z</time>
      </trkpt>
      <trkpt lat="45.52861" lon="3.21816">
        <ele>475.27603</ele>
        <time>2012-10-05T14:47:18Z</time>
      </trkpt>
      <trkpt lat="45.5284" lon="3.21817">
        <ele>475.38177</ele>
        <time>2012-10-05T14:47:22Z</time>
      </trkpt>
      <trkpt lat="45.52821" lon="3.2182">
        <ele>475.1785</ele>
        <time>2012-10-05T14:47:26Z</time>
      </trkpt>
      <trkpt lat="45.52803" lon="3.21828">
        <ele>475.3099</ele>
        <time>2012-10-05T14:47:30Z</time>
      </trkpt>
      <trkpt lat="45.52785" lon="3.21841">
        <ele>475.51135</ele>
        <time>2012-10-05T14:47:35Z</time>
      </trkpt>
      <trkpt lat="45.52766" lon="3.21849">
        <ele>476.60947</ele>
        <time>2012-10-05T14:47:40Z</time>
      </trkpt>
      <trkpt lat="45.52748" lon="3.21857">
        <ele>478.4551</ele>
        <time>2012-10-05T14:47:46Z</time>
      </trkpt>
      <trkpt lat="45.52729" lon="3.21869">
        <ele>480.58926</ele>
        <time>2012-10-05T14:47:52Z</time>
      </trkpt>
      <trkpt lat="45.5271" lon="3.2188">
        <ele>482.18692</ele>
        <time>2012-10-05T14:47:58Z</time>
      </trkpt>
      <trkpt lat="45.5269" lon="3.21889">
        <ele>485.12833</ele>
        <time>2012-10-05T14:48:05Z</time>
      </trkpt>
      <trkpt lat="45.52671" lon="3.21891">
        <ele>488.2383</ele>
        <time>2012-10-05T14:48:12Z</time>
      </trkpt>
      <trkpt lat="45.52653" lon="3.21885">
        <ele>491.39697</ele>
        <time>2012-10-05T14:48:19Z</time>
      </trkpt>
      <trkpt lat="45.52635" lon="3.21879">
        <ele>493.4785</ele>
        <time>2012-10-05T14:48:26Z</time>
      </trkpt>
      <trkpt lat="45.52615" lon="3.21874">
        <ele>493.72037</ele>
        <time>2012-10-05T14:48:34Z</time>
      </trkpt>
      <trkpt lat="45.52597" lon="3.2187">
        <ele>495.40076</ele>
        <time>2012-10-05T14:48:44Z</time>
      </trkpt>
      <trkpt lat="45.52578" lon="3.21866">
        <ele>495.72885</ele>
        <time>2012-10-05T14:48:56Z</time>
      </trkpt>
      <trkpt lat="45.52559" lon="3.21863">
        <ele>497.6617</ele>
        <time>2012-10-05T14:49:07Z</time>
      </trkpt>
      <trkpt lat="45.52541" lon="3.21861">
        <ele>500.6762</ele>
        <time>2012-10-05T14:49:18Z</time>
      </trkpt>
      <trkpt lat="45.52522" lon="3.2186">
        <ele>502.92758</ele>
        <time>2012-10-05T14:49:28Z</time>
      </trkpt>
      <trkpt lat="45.52503" lon="3.21859">
        <ele>503.71155</ele>
        <time>2012-10-05T14:49:38Z</time>
      </trkpt>
      <trkpt lat="45.52483" lon="3.21856">
        <ele>504.98932</ele>
        <time>2012-10-05T14:49:47Z</time>
      </trkpt>
      <trkpt lat="45.52465" lon="3.21843">
        <ele>505.7118</ele>
        <time>2012-10-05T14:49:54Z</time>
      </trkpt>
      <trkpt lat="45.52446" lon="3.21833">
        <ele>507.02292</ele>
        <time>2012-10-05T14:50:01Z</time>
      </trkpt>
      <trkpt lat="45.52431" lon="3.21818">
        <ele>507.41812</ele>
        <time>2012-10-05T14:50:06Z</time>
      </trkpt>
      <trkpt lat="45.52417" lon="3.21798">
        <ele>508.34735</ele>
        <time>2012-10-05T14:50:13Z</time>
      </trkpt>
      <trkpt lat="45.52408" lon="3.21773">
        <ele>511.30237</ele>
        <time>2012-10-05T14:50:20Z</time>
      </trkpt>
      <trkpt lat="45.52399" lon="3.21748">
        <ele>513.8179</ele>
        <time>2012-10-05T14:50:26Z</time>
      </trkpt>
      <trkpt lat="45.52389" lon="3.21724">
        <ele>515.4583</ele>
        <time>2012-10-05T14:50:31Z</time>
      </trkpt>
      <trkpt lat="45.52379" lon="3.217">
        <ele>516.93353</ele>
        <time>2012-10-05T14:50:38Z</time>
      </trkpt>
      <trkpt lat="45.52368" lon="3.21676">
        <ele>518.6648</ele>
        <time>2012-10-05T14:50:44Z</time>
      </trkpt>
      <trkpt lat="45.52359" lon="3.21653">
        <ele>521.0469</ele>
        <time>2012-10-05T14:50:50Z</time>
      </trkpt>
      <trkpt lat="45.5235" lon="3.21629">
        <ele>524.2323</ele>
        <time>2012-10-05T14:50:56Z</time>
      </trkpt>
      <trkpt lat="45.52341" lon="3.21604">
        <ele>525.32996</ele>
        <time>2012-10-05T14:51:02Z</time>
      </trkpt>
      <trkpt lat="45.52331" lon="3.2158">
        <ele>525.6242</ele>
        <time>2012-10-05T14:51:08Z</time>
      </trkpt>
      <trkpt lat="45.5232" lon="3.21558">
        <ele>525.00604</ele>
        <time>2012-10-05T14:51:14Z</time>
      </trkpt>
      <trkpt lat="45.52311" lon="3.21535">
        <ele>526.35846</ele>
        <time>2012-10-05T14:51:20Z</time>
      </trkpt>
      <trkpt lat="45.523" lon="3.21513">
        <ele>527.9237</ele>
        <time>2012-10-05T14:51:26Z</time>
      </trkpt>
      <trkpt lat="45.52292" lon="3.21487">
        <ele>528.87634</ele>
        <time>2012-10-05T14:51:32Z</time>
      </trkpt>
      <trkpt lat="45.52282" lon="3.21465">
        <ele>529.6491</ele>
        <time>2012-10-05T14:51:38Z</time>
      </trkpt>
      <trkpt lat="45.52273" lon="3.21441">
        <ele>531.17194</ele>
        <time>2012-10-05T14:51:44Z</time>
      </trkpt>
      <trkpt lat="45.52263" lon="3.21419">
        <ele>531.81464</ele>
        <time>2012-10-05T14:51:50Z</time>
      </trkpt>
      <trkpt lat="45.52253" lon="3.21395">
        <ele>532.4383</ele>
        <time>2012-10-05T14:51:56Z</time>
      </trkpt>
      <trkpt lat="45.52244" lon="3.21371">
        <ele>532.99915</ele>
        <time>2012-10-05T14:52:02Z</time>
      </trkpt>
      <trkpt lat="45.52233" lon="3.21346">
        <ele>534.21155</ele>
        <time>2012-10-05T14:52:09Z</time>
      </trkpt>
      <trkpt lat="45.52219" lon="3.21325">
        <ele>535.8492</ele>
        <time>2012-10-05T14:52:15Z</time>
      </trkpt>
      <trkpt lat="45.52202" lon="3.21309">
        <ele>537.37915</ele>
        <time>2012-10-05T14:52:21Z</time>
      </trkpt>
      <trkpt lat="45.52186" lon="3.21291">
        <ele>537.65967</ele>
        <time>2012-10-05T14:52:27Z</time>
      </trkpt>
      <trkpt lat="45.52171" lon="3.21274">
        <ele>538.0012</ele>
        <time>2012-10-05T14:52:33Z</time>
      </trkpt>
      <trkpt lat="45.52152" lon="3.21259">
        <ele>538.0921</ele>
        <time>2012-10-05T14:52:39Z</time>
      </trkpt>
      <trkpt lat="45.52135" lon="3.21248">
        <ele>538.89056</ele>
        <time>2012-10-05T14:52:44Z</time>
      </trkpt>
      <trkpt lat="45.52114" lon="3.21244">
        <ele>538.61646</ele>
        <time>2012-10-05T14:52:49Z</time>
      </trkpt>
      <trkpt lat="45.52095" lon="3.21248">
        <ele>538.4871</ele>
        <time>2012-10-05T14:52:53Z</time>
      </trkpt>
      <trkpt lat="45.52076" lon="3.21253">
        <ele>538.68726</ele>
        <time>2012-10-05T14:52:57Z</time>
      </trkpt>
      <trkpt lat="45.52057" lon="3.21261">
        <ele>538.65796</ele>
        <time>2012-10-05T14:53:01Z</time>
      </trkpt>
      <trkpt lat="45.52037" lon="3.21268">
        <ele>538.96704</ele>
        <time>2012-10-05T14:53:05Z</time>
      </trkpt>
      <trkpt lat="45.52016" lon="3.21274">
        <ele>540.0325</ele>
        <time>2012-10-05T14:53:09Z</time>
      </trkpt>
      <trkpt lat="45.51996" lon="3.21278">
        <ele>540.9407</ele>
        <time>2012-10-05T14:53:13Z</time>
      </trkpt>
      <trkpt lat="45.51974" lon="3.21286">
        <ele>541.68427</ele>
        <time>2012-10-05T14:53:17Z</time>
      </trkpt>
      <trkpt lat="45.51954" lon="3.2129">
        <ele>541.59216</ele>
        <time>2012-10-05T14:53:21Z</time>
      </trkpt>
      <trkpt lat="45.51932" lon="3.2129">
        <ele>541.3959</ele>
        <time>2012-10-05T14:53:25Z</time>
      </trkpt>
      <trkpt lat="45.51911" lon="3.21288">
        <ele>541.1052</ele>
        <time>2012-10-05T14:53:29Z</time>
      </trkpt>
      <trkpt lat="45.51889" lon="3.21289">
        <ele>541.8703</ele>
        <time>2012-10-05T14:53:33Z</time>
      </trkpt>
      <trkpt lat="45.51869" lon="3.21292">
        <ele>541.90186</ele>
        <time>2012-10-05T14:53:37Z</time>
      </trkpt>
      <trkpt lat="45.51848" lon="3.21299">
        <ele>542.07043</ele>
        <time>2012-10-05T14:53:41Z</time>
      </trkpt>
      <trkpt lat="45.51828" lon="3.2131">
        <ele>542.7788</ele>
        <time>2012-10-05T14:53:44Z</time>
      </trkpt>
      <trkpt lat="45.51809" lon="3.21324">
        <ele>543.369</ele>
        <time>2012-10-05T14:53:49Z</time>
      </trkpt>
      <trkpt lat="45.51795" lon="3.21339">
        <ele>543.81555</ele>
        <time>2012-10-05T14:53:52Z</time>
      </trkpt>
      <trkpt lat="45.51778" lon="3.21353">
        <ele>543.9586</ele>
        <time>2012-10-05T14:53:55Z</time>
      </trkpt>
      <trkpt lat="45.51761" lon="3.21367">
        <ele>543.4784</ele>
        <time>2012-10-05T14:53:58Z</time>
      </trkpt>
      <trkpt lat="45.51745" lon="3.21381">
        <ele>543.16327</ele>
        <time>2012-10-05T14:54:01Z</time>
      </trkpt>
      <trkpt lat="45.51729" lon="3.21395">
        <ele>542.7116</ele>
        <time>2012-10-05T14:54:04Z</time>
      </trkpt>
      <trkpt lat="45.51713" lon="3.21408">
        <ele>542.5507</ele>
        <time>2012-10-05T14:54:07Z</time>
      </trkpt>
      <trkpt lat="45.51696" lon="3.21422">
        <ele>542.3876</ele>
        <time>2012-10-05T14:54:09Z</time>
      </trkpt>
      <trkpt lat="45.51679" lon="3.21436">
        <ele>542.4812</ele>
        <time>2012-10-05T14:54:13Z</time>
      </trkpt>
      <trkpt lat="45.51662" lon="3.2145">
        <ele>542.602</ele>
        <time>2012-10-05T14:54:16Z</time>
      </trkpt>
      <trkpt lat="45.51645" lon="3.21464">
        <ele>542.92633</ele>
        <time>2012-10-05T14:54:19Z</time>
      </trkpt>
      <trkpt lat="45.51629" lon="3.21477">
        <ele>543.5366</ele>
        <time>2012-10-05T14:54:22Z</time>
      </trkpt>
      <trkpt lat="45.5161" lon="3.21493">
        <ele>544.4533</ele>
        <time>2012-10-05T14:54:26Z</time>
      </trkpt>
      <trkpt lat="45.51593" lon="3.21509">
        <ele>545.5023</ele>
        <time>2012-10-05T14:54:30Z</time>
      </trkpt>
      <trkpt lat="45.51575" lon="3.21525">
        <ele>547.03815</ele>
        <time>2012-10-05T14:54:35Z</time>
      </trkpt>
      <trkpt lat="45.51558" lon="3.21542">
        <ele>547.41956</ele>
        <time>2012-10-05T14:54:40Z</time>
      </trkpt>
      <trkpt lat="45.51541" lon="3.21562">
        <ele>547.90405</ele>
        <time>2012-10-05T14:54:45Z</time>
      </trkpt>
      <trkpt lat="45.51526" lon="3.21576">
        <ele>548.3461</ele>
        <time>2012-10-05T14:54:49Z</time>
      </trkpt>
      <trkpt lat="45.51507" lon="3.21594">
        <ele>549.72534</ele>
        <time>2012-10-05T14:54:54Z</time>
      </trkpt>
      <trkpt lat="45.51492" lon="3.21608">
        <ele>550.972</ele>
        <time>2012-10-05T14:54:58Z</time>
      </trkpt>
      <trkpt lat="45.51472" lon="3.21625">
        <ele>552.8887</ele>
        <time>2012-10-05T14:55:03Z</time>
      </trkpt>
      <trkpt lat="45.51454" lon="3.21642">
        <ele>554.24774</ele>
        <time>2012-10-05T14:55:08Z</time>
      </trkpt>
      <trkpt lat="45.51438" lon="3.21656">
        <ele>554.73456</ele>
        <time>2012-10-05T14:55:12Z</time>
      </trkpt>
      <trkpt lat="45.5142" lon="3.21671">
        <ele>555.0733</ele>
        <time>2012-10-05T14:55:16Z</time>
      </trkpt>
      <trkpt lat="45.51402" lon="3.21683">
        <ele>554.9625</ele>
        <time>2012-10-05T14:55:20Z</time>
      </trkpt>
      <trkpt lat="45.51383" lon="3.21698">
        <ele>554.84393</ele>
        <time>2012-10-05T14:55:24Z</time>
      </trkpt>
      <trkpt lat="45.51364" lon="3.21712">
        <ele>555.5161</ele>
        <time>2012-10-05T14:55:28Z</time>
      </trkpt>
      <trkpt lat="45.51345" lon="3.21724">
        <ele>556.6347</ele>
        <time>2012-10-05T14:55:32Z</time>
      </trkpt>
      <trkpt lat="45.51324" lon="3.21742">
        <ele>558.0191</ele>
        <time>2012-10-05T14:55:36Z</time>
      </trkpt>
      <trkpt lat="45.51304" lon="3.21759">
        <ele>559.40826</ele>
        <time>2012-10-05T14:55:40Z</time>
      </trkpt>
      <trkpt lat="45.51287" lon="3.21771">
        <ele>560.5399</ele>
        <time>2012-10-05T14:55:43Z</time>
      </trkpt>
      <trkpt lat="45.51269" lon="3.21787">
        <ele>561.6395</ele>
        <time>2012-10-05T14:55:47Z</time>
      </trkpt>
      <trkpt lat="45.51247" lon="3.218">
        <ele>562.1792</ele>
        <time>2012-10-05T14:55:51Z</time>
      </trkpt>
      <trkpt lat="45.51227" lon="3.21811">
        <ele>561.3093</ele>
        <time>2012-10-05T14:55:55Z</time>
      </trkpt>
      <trkpt lat="45.51208" lon="3.21815">
        <ele>560.62787</ele>
        <time>2012-10-05T14:55:59Z</time>
      </trkpt>
      <trkpt lat="45.51186" lon="3.21818">
        <ele>559.3142</ele>
        <time>2012-10-05T14:56:03Z</time>
      </trkpt>
      <trkpt lat="45.51163" lon="3.21817">
        <ele>559.11847</ele>
        <time>2012-10-05T14:56:07Z</time>
      </trkpt>
      <trkpt lat="45.51144" lon="3.21816">
        <ele>559.10986</ele>
        <time>2012-10-05T14:56:10Z</time>
      </trkpt>
      <trkpt lat="45.51126" lon="3.21821">
        <ele>559.5094</ele>
        <time>2012-10-05T14:56:13Z</time>
      </trkpt>
      <trkpt lat="45.51104" lon="3.21828">
        <ele>560.58295</ele>
        <time>2012-10-05T14:56:17Z</time>
      </trkpt>
      <trkpt lat="45.51085" lon="3.21844">
        <ele>561.5441</ele>
        <time>2012-10-05T14:56:21Z</time>
      </trkpt>
      <trkpt lat="45.51066" lon="3.21862">
        <ele>561.72797</ele>
        <time>2012-10-05T14:56:25Z</time>
      </trkpt>
      <trkpt lat="45.51047" lon="3.21873">
        <ele>561.556</ele>
        <time>2012-10-05T14:56:28Z</time>
      </trkpt>
      <trkpt lat="45.51029" lon="3.21881">
        <ele>560.796</ele>
        <time>2012-10-05T14:56:31Z</time>
      </trkpt>
      <trkpt lat="45.5101" lon="3.21891">
        <ele>561.00977</ele>
        <time>2012-10-05T14:56:34Z</time>
      </trkpt>
      <trkpt lat="45.50993" lon="3.21898">
        <ele>561.00775</ele>
        <time>2012-10-05T14:56:37Z</time>
      </trkpt>
      <trkpt lat="45.50974" lon="3.21906">
        <ele>561.321</ele>
        <time>2012-10-05T14:56:40Z</time>
      </trkpt>
      <trkpt lat="45.50954" lon="3.21914">
        <ele>561.1828</ele>
        <time>2012-10-05T14:56:43Z</time>
      </trkpt>
      <trkpt lat="45.50935" lon="3.21919">
        <ele>561.26984</ele>
        <time>2012-10-05T14:56:46Z</time>
      </trkpt>
      <trkpt lat="45.50917" lon="3.21928">
        <ele>561.5956</ele>
        <time>2012-10-05T14:56:49Z</time>
      </trkpt>
      <trkpt lat="45.50898" lon="3.21934">
        <ele>561.944</ele>
        <time>2012-10-05T14:56:52Z</time>
      </trkpt>
      <trkpt lat="45.50879" lon="3.21942">
        <ele>562.15344</ele>
        <time>2012-10-05T14:56:55Z</time>
      </trkpt>
    </trkseg>
  </trk>
</gpx>